GFSGL_925_spd_000.txt.gz
Wind_Speed
18 25 31 32 31 30 18 10 10 3 2 4 8 11 15 14 14 10 9 10 11 12 12 15 16 15 16 17 18 19 20 21 10 18 18 18 22 21 21 22 23 22 21
22 28 29 26 26 16 3 5 2 5 6 9 11 10 13 16 14 12 12 12 13 14 16 17 18 18 18 17 17 18 20 22 21 16 14 11 15 15 14 16 20 25 27
24 24 22 23 19 7 7 7 8 9 6 8 9 16 15 14 13 12 13 12 13 14 15 14 15 14 16 18 20 22 23 23 23 19 16 18 20 20 23 22 22 22 22
21 17 17 15 8 6 8 9 14 12 12 14 13 21 17 13 12 13 14 12 11 11 14 17 20 22 24 26 26 26 24 24 23 22 22 19 21 21 23 22 23 26 29
14 13 12 10 10 11 15 16 20 23 21 18 19 22 15 15 16 15 13 10 13 18 23 26 27 26 23 24 24 23 22 20 19 20 19 20 19 17 20 22 25 26 27
12 14 14 14 13 11 17 16 18 22 23 23 19 17 17 16 13 7 9 14 19 23 26 26 28 26 25 23 22 22 23 22 20 20 20 19 19 18 21 23 22 18 10
11 15 20 20 19 18 17 16 16 16 15 15 17 17 14 10 7 11 15 20 24 27 26 25 23 21 22 24 24 23 24 25 27 26 24 22 22 22 21 21 22 21 21
7 8 12 15 16 14 15 16 17 14 16 16 16 13 12 13 16 20 22 24 25 25 25 25 24 25 23 22 24 24 24 26 26 27 28 30 29 28 29 28 26 24 24
10 13 14 12 13 15 16 15 14 15 16 14 11 14 17 21 21 22 20 24 25 25 23 22 22 22 25 23 25 24 24 25 26 26 29 31 30 28 27 25 21 19 14
12 12 10 12 14 14 14 15 16 14 10 14 18 19 20 22 23 22 21 24 23 21 24 22 23 23 22 23 25 24 23 24 23 25 26 27 28 31 32 30 23 19 17
11 11 12 13 12 12 14 14 14 12 16 19 20 20 21 23 23 23 23 22 21 22 21 23 24 18 21 23 21 23 22 24 23 22 24 23 22 25 28 29 30 27 22
10 11 11 12 13 12 11 13 15 13 19 21 22 24 25 25 23 26 22 21 21 23 23 23 14 19 20 19 19 18 19 19 20 18 18 19 20 23 25 27 29 29 30
9 10 11 12 11 10 11 15 15 16 19 21 18 20 23 22 28 27 25 21 23 25 21 14 14 18 18 17 15 17 14 13 13 14 15 18 20 24 23 25 27 27 27
10 10 11 12 12 11 13 14 14 17 19 17 20 19 20 23 24 27 23 26 24 17 14 11 15 17 18 17 18 18 16 14 14 14 15 19 22 20 19 20 19 21 18
12 11 10 12 14 15 14 13 14 13 14 17 20 21 22 19 23 25 24 24 19 14 10 14 18 20 20 20 20 21 21 20 16 16 15 13 11 8 12 13 14 15 14
14 12 12 14 15 12 12 16 12 14 15 16 16 17 20 20 22 22 22 18 15 11 12 13 13 16 17 17 18 20 21 23 21 19 16 14 13 9 7 8 11 12 10
11 10 11 11 11 13 15 16 17 18 15 17 17 17 17 19 19 20 20 14 13 14 13 14 14 16 18 18 18 17 19 23 21 19 17 17 16 13 5 7 8 9 10
8 8 10 9 11 14 14 13 14 15 17 22 20 18 18 18 17 18 19 15 18 19 16 14 15 17 17 17 20 21 22 25 25 22 21 19 16 17 14 11 7 1 1
8 11 7 7 11 13 11 13 13 14 15 18 20 22 22 18 15 16 17 19 15 15 16 16 18 19 19 20 22 23 23 23 24 23 22 20 18 12 12 13 10 9 6
8 8 6 8 11 11 12 13 14 14 15 16 17 18 21 21 20 20 19 19 18 17 18 17 18 20 21 21 23 24 24 24 25 24 22 19 16 15 14 12 12 11 10
10 7 5 9 9 10 13 12 14 14 14 14 14 15 15 15 15 15 17 18 18 17 17 17 17 19 21 22 22 23 24 24 23 23 21 19 17 16 13 12 12 12 10
8 6 7 10 9 10 12 13 14 13 12 13 14 14 14 13 13 14 14 15 15 15 15 15 16 17 19 20 21 21 22 24 24 23 20 18 16 15 14 14 13 12 11
7 5 7 8 10 10 11 12 12 12 12 11 12 12 12 12 12 11 14 14 14 14 15 15 16 17 17 18 19 19 19 20 21 20 18 17 15 15 15 15 14 14 13
7 6 8 9 10 10 10 11 11 11 11 11 11 10 10 11 10 11 12 13 13 14 14 15 16 17 17 17 17 18 18 18 17 17 17 16 17 14 14 14 14 13 12
11 7 9 10 12 11 10 11 11 10 10 10 11 10 10 10 9 10 11 12 13 14 14 15 15 16 17 17 17 17 16 16 16 15 15 15 16 16 16 14 13 12 11
8 9 9 10 12 12 11 11 10 11 10 9 10 9 9 9 8 8 10 12 13 14 13 14 14 14 15 17 18 17 17 16 15 15 14 14 15 16 16 16 15 16 14

GFSGL_925_spd_003.txt.gz
Wind_Speed
14 20 23 22 21 20 14 10 5 6 6 5 7 9 12 12 10 11 8 7 6 4 5 7 9 11 12 13 14 16 18 19 14 25 22 20 22 22 22 22 23 24 22
19 20 17 15 16 12 7 6 7 7 6 6 9 13 15 16 14 11 7 6 8 9 11 11 12 12 12 12 12 14 15 17 19 21 23 21 21 21 19 19 20 21 21
18 15 14 14 14 9 7 8 11 11 10 11 13 14 16 16 14 12 11 11 11 10 10 9 9 9 11 12 15 18 19 21 23 24 25 25 24 24 26 27 26 26 26
12 9 10 10 10 10 10 11 13 13 14 14 13 16 17 17 15 14 15 12 9 8 10 11 13 14 16 18 20 22 22 23 24 25 25 26 26 25 26 26 27 26 28
9 9 9 7 8 12 12 14 15 15 16 15 14 14 15 16 12 12 9 7 9 12 15 16 16 17 20 22 23 23 23 23 23 23 23 23 23 21 21 24 26 25 27
3 5 7 8 10 13 14 15 15 15 16 16 16 17 17 13 12 7 8 12 15 17 20 22 22 21 21 20 20 21 22 24 24 22 22 21 23 23 22 22 23 22 13
3 7 10 11 12 12 13 16 17 15 15 15 15 14 12 10 10 12 15 17 19 20 21 21 22 21 20 20 19 20 22 24 26 27 27 27 26 24 22 22 22 22 22
6 9 11 11 11 13 15 14 14 14 15 15 13 11 13 14 17 18 18 19 19 20 20 21 21 21 18 18 19 21 22 23 23 25 27 28 28 27 26 26 26 24 23
9 11 11 10 11 12 12 14 14 14 14 12 13 15 16 17 17 19 18 19 20 21 21 19 18 20 19 20 21 24 25 24 22 27 29 30 31 32 30 23 23 22 17
10 11 11 11 11 11 12 14 12 13 12 13 16 15 16 17 19 18 18 19 20 20 19 19 19 19 20 19 20 22 23 21 19 17 18 22 26 29 32 31 26 22 19
14 12 12 11 11 12 13 12 13 14 12 16 17 17 15 17 18 19 19 18 18 21 20 20 19 17 13 18 19 19 20 21 21 20 20 20 20 20 21 22 28 27 23
13 12 10 10 12 13 13 13 13 14 14 16 17 18 18 17 18 21 19 19 18 21 21 18 12 11 14 15 14 14 17 17 16 16 17 19 18 19 20 21 23 25 26
10 10 9 11 13 13 13 14 14 13 14 16 18 20 21 21 19 20 22 19 21 21 19 10 11 13 12 11 11 12 12 10 11 12 13 14 15 17 17 18 21 22 23
10 9 9 10 12 14 12 12 12 13 14 16 19 20 21 20 20 22 22 22 20 12 12 7 10 11 10 10 12 11 11 11 10 10 11 13 13 12 12 13 14 15 18
10 9 9 9 11 12 10 9 10 9 10 15 17 18 19 20 22 23 22 22 14 13 7 7 10 11 13 15 15 13 12 13 11 11 10 10 9 7 5 6 9 10 13
10 8 8 9 9 8 10 11 9 10 11 12 12 14 16 17 20 19 21 16 14 10 7 9 10 11 14 15 15 15 14 15 15 13 11 11 10 8 5 3 5 7 8
8 8 8 8 6 8 10 10 11 12 12 13 14 14 15 17 17 18 19 13 13 11 10 10 11 12 13 14 15 14 15 15 15 14 13 12 11 10 8 3 3 5 6
8 8 9 6 6 8 9 9 8 10 12 13 14 15 17 16 15 16 17 13 13 14 11 11 12 12 13 13 14 15 15 16 16 15 14 13 12 9 9 9 6 2 1
9 7 8 4 7 9 9 8 8 9 11 12 13 14 16 15 13 14 15 13 12 13 13 12 12 12 12 13 14 14 14 16 16 16 15 14 13 11 9 8 6 7 3
8 8 6 6 8 7 8 9 9 10 11 11 13 14 16 15 15 15 14 13 12 12 13 13 13 12 13 13 14 14 15 16 16 16 16 14 13 11 10 9 9 7 7
9 7 5 6 7 7 8 8 9 9 10 10 10 11 14 12 12 12 12 12 12 12 12 12 12 12 13 13 13 14 14 15 15 15 14 14 13 12 10 8 8 7 6
8 6 7 7 8 7 7 8 9 8 8 8 10 10 13 11 11 10 11 11 11 11 11 11 11 11 12 13 13 13 14 15 16 15 15 13 12 12 10 9 9 8 7
6 5 6 7 8 8 7 8 9 9 8 8 8 9 9 10 10 10 11 11 11 11 13 12 11 12 14 14 15 15 14 14 14 16 14 13 12 11 10 10 10 10 9
9 9 6 6 9 10 8 7 9 9 9 7 7 7 7 8 8 8 9 10 11 12 13 13 13 15 16 16 17 16 16 16 15 15 15 13 12 11 10 9 9 9 10
9 7 5 7 8 9 10 7 8 8 9 8 7 6 6 6 5 6 8 10 12 12 12 12 13 13 14 15 16 16 15 14 14 14 14 13 13 13 12 10 9 8 9
5 6 6 7 8 11 10 8 8 9 9 8 7 7 6 6 6 6 7 7 8 11 12 11 11 12 13 14 15 15 15 15 15 14 14 13 13 13 10 10 10 9 10

GFSGL_925_spd_006.txt.gz
Wind_Speed
10 13 15 15 13 14 15 14 12 12 10 8 8 9 10 13 16 11 11 13 12 11 12 14 15 15 16 16 17 17 19 19 14 21 21 21 22 21 22 22 22 23 24
12 14 15 13 13 14 14 13 12 12 10 10 11 13 17 13 15 14 15 15 14 15 15 16 17 17 17 17 17 18 19 20 21 20 23 23 23 23 23 24 24 24 24
13 12 12 13 15 14 14 15 14 13 13 14 16 15 15 18 19 17 15 15 18 19 18 17 16 15 16 16 17 19 20 21 22 23 24 24 24 24 26 26 26 27 27
12 13 14 15 12 12 11 11 11 14 16 17 19 19 18 18 18 18 17 19 19 17 15 15 15 17 18 19 20 21 23 23 23 24 25 25 24 25 26 26 26 27 28
10 13 9 8 9 12 14 14 15 16 17 17 17 17 17 18 16 15 17 17 17 18 18 19 19 19 19 22 24 24 24 24 24 23 23 23 23 23 23 25 26 25 27
11 7 7 10 12 12 13 15 17 17 16 16 17 17 18 17 14 13 15 18 20 22 23 22 22 22 23 22 21 23 24 25 25 24 22 21 25 23 21 21 20 20 13
10 7 9 11 12 13 15 16 16 17 17 18 17 16 16 17 16 19 18 21 23 24 24 23 23 23 22 22 22 21 22 24 25 27 26 26 26 23 22 22 21 21 22
11 11 10 11 11 14 15 15 16 17 18 18 17 17 19 19 17 17 20 21 21 23 23 23 24 24 22 18 20 21 21 22 23 24 27 28 27 25 25 25 26 25 24
14 12 12 10 12 13 14 15 17 18 18 18 17 19 20 21 18 19 20 21 21 23 23 22 21 21 21 19 20 22 23 25 24 26 30 29 29 29 28 24 22 21 18
12 12 11 11 11 13 14 16 17 18 18 17 18 19 20 20 18 19 19 21 21 21 19 20 20 22 22 20 19 18 23 25 24 22 21 20 32 28 29 29 28 24 20
10 12 13 11 11 13 15 17 19 20 18 14 16 18 18 17 21 18 19 19 20 21 21 21 20 14 9 12 16 20 22 20 21 21 21 22 21 22 23 24 27 27 25
13 14 12 10 11 13 16 19 20 20 17 15 17 18 19 17 19 17 20 21 20 22 22 20 10 16 14 15 15 13 16 17 17 17 16 17 18 19 20 20 21 23 26
14 13 11 10 11 14 17 19 19 16 14 16 19 20 21 20 20 18 21 21 21 21 18 14 16 14 12 12 8 12 12 10 11 13 13 13 13 15 15 16 18 19 20
15 13 11 11 12 15 16 15 15 14 12 16 18 19 20 20 19 21 22 23 20 16 17 9 10 11 10 10 9 8 8 9 11 11 12 13 13 13 14 13 14 14 17
13 11 10 10 11 13 13 11 11 10 9 13 14 17 18 19 19 22 21 22 17 17 13 8 9 10 11 11 11 9 9 11 11 11 11 11 11 10 10 7 8 10 12
10 8 8 9 9 10 11 13 8 8 9 8 9 11 15 16 18 19 20 17 16 12 8 9 10 11 12 14 14 14 12 12 12 12 11 10 11 10 10 5 5 8 9
6 6 7 7 8 7 10 11 12 10 9 8 9 11 14 16 15 17 18 14 13 11 10 11 11 12 13 14 14 14 14 14 13 12 12 11 11 11 11 9 4 5 5
7 7 6 6 5 7 9 10 10 12 14 13 10 11 13 15 13 15 17 11 11 12 12 12 12 13 14 14 15 15 14 13 13 12 12 12 12 11 10 10 10 11 7
8 6 6 4 5 7 7 9 10 11 12 12 13 12 13 13 10 12 13 12 12 12 12 12 12 13 13 13 14 14 14 14 14 13 13 12 12 11 10 10 10 8 9
7 5 3 4 6 7 8 9 10 11 11 11 11 12 14 12 12 12 12 12 12 11 12 11 12 12 13 13 14 14 15 15 15 14 14 13 12 10 10 9 10 10 8
6 5 4 5 6 7 6 8 9 9 9 10 10 8 9 9 10 10 10 11 12 12 12 11 11 11 12 13 13 14 14 15 15 15 15 14 13 11 10 9 9 8 8
5 4 4 4 6 6 7 7 8 8 8 8 8 7 6 7 7 7 8 9 10 10 10 10 11 11 12 12 13 13 13 14 14 15 14 14 13 11 10 10 9 9 9
4 4 5 5 5 7 7 7 7 8 8 7 7 7 6 6 5 5 6 7 8 9 9 9 10 11 11 11 11 11 12 13 13 14 14 13 12 12 10 10 10 10 9
7 7 6 5 5 8 7 8 7 6 6 7 7 6 5 5 4 4 4 5 6 7 7 7 7 9 10 11 11 11 12 13 12 11 12 12 12 11 10 9 9 9 9
7 6 5 6 6 7 8 8 8 7 7 7 7 6 5 5 4 4 4 4 5 6 6 6 7 8 9 10 11 12 13 13 14 13 10 10 10 10 10 9 9 8 9
5 6 6 6 7 7 8 8 8 8 7 7 7 6 5 5 5 4 4 4 5 5 5 5 6 7 8 8 11 12 12 12 13 12 11 10 10 10 9 9 9 8 9

GFSGL_925_spd_009.txt.gz
Wind_Speed
15 14 15 15 15 17 19 19 18 18 18 17 15 14 14 17 21 18 15 18 17 17 17 18 18 18 18 19 19 19 20 20 13 21 21 20 19 19 21 20 18 20 22
12 15 16 17 18 19 17 16 17 18 18 18 19 19 19 18 17 18 18 19 19 19 20 21 22 23 22 21 21 21 21 22 22 19 22 22 22 22 22 21 22 23 23
15 17 18 18 19 17 15 16 15 15 17 18 19 20 22 22 22 22 22 21 19 21 22 24 23 24 23 21 21 21 21 22 22 22 22 23 23 23 23 23 23 23 25
17 17 18 16 15 13 12 15 16 17 19 20 20 21 21 22 22 22 18 20 24 25 23 23 22 23 23 22 21 21 21 22 23 23 24 23 24 24 24 22 22 23 23
18 18 17 14 15 15 15 16 17 18 19 19 19 20 20 21 17 13 16 21 23 25 26 26 26 24 21 23 25 26 23 23 23 22 22 22 21 20 20 20 20 19 20
18 18 16 15 14 15 15 16 17 18 18 19 20 21 20 21 17 16 17 20 25 26 27 27 27 27 24 21 18 20 25 24 23 23 23 21 23 22 21 21 20 18 10
18 18 18 12 15 15 16 17 17 18 19 20 21 20 20 21 16 19 20 21 25 26 27 27 27 26 25 25 25 22 16 19 25 25 25 26 25 25 24 24 22 20 19
20 21 16 14 16 16 16 17 17 19 20 21 20 19 21 23 19 19 18 24 24 26 26 26 26 27 26 19 19 22 22 22 22 23 26 27 26 25 25 25 23 24 23
25 17 15 16 17 16 17 17 19 20 20 20 18 19 23 24 24 16 21 23 23 25 25 24 24 25 26 24 21 22 23 23 22 23 27 31 33 33 32 26 21 18 15
21 13 14 16 16 15 16 18 19 21 21 18 16 19 20 23 19 20 17 21 23 23 23 23 24 25 26 25 23 21 20 21 22 23 23 23 22 23 27 30 25 21 20
19 11 14 16 14 14 15 19 21 22 20 12 14 18 21 19 20 19 14 18 22 24 24 24 23 8 11 13 14 16 20 20 21 22 22 22 22 23 24 22 30 28 25
18 12 13 16 12 14 17 20 19 22 16 15 17 19 19 19 18 16 17 21 23 25 24 24 18 21 17 17 16 14 15 17 17 18 18 18 17 16 18 19 20 24 28
16 15 15 13 14 16 16 19 19 16 15 15 19 19 21 21 21 19 21 23 24 25 21 22 20 13 16 14 10 14 14 14 12 12 13 14 12 12 13 15 16 16 20
14 15 13 13 11 15 15 17 14 14 13 16 19 19 20 21 22 21 25 24 23 20 21 19 13 13 13 16 10 9 8 8 10 12 12 12 13 12 14 15 15 14 14
14 14 13 12 12 14 15 11 12 8 6 12 14 15 19 20 21 23 23 24 20 20 20 12 12 13 13 14 11 10 9 9 10 11 11 11 11 11 13 9 7 8 10
14 12 11 10 11 10 11 12 9 9 11 12 8 9 13 16 20 20 21 21 16 16 13 12 13 13 13 14 14 14 13 14 13 13 13 11 11 12 14 10 4 7 8
11 11 11 10 8 8 9 10 12 9 11 9 7 8 9 15 18 18 19 17 12 14 12 13 13 14 15 15 16 16 16 15 14 13 12 12 12 12 14 12 11 8 6
10 11 7 9 6 7 9 8 9 11 13 12 9 11 10 15 15 15 17 13 12 12 13 13 14 15 16 17 17 17 17 15 15 14 12 12 12 12 10 11 11 10 10
8 8 8 7 6 7 7 8 9 10 12 12 13 12 14 16 12 9 12 12 12 12 13 13 14 14 15 15 16 17 17 15 15 15 14 13 12 12 11 11 11 11 11
7 6 7 6 7 7 7 7 8 9 11 12 12 12 14 14 13 11 10 11 11 11 12 12 13 13 14 14 15 16 17 16 16 16 16 14 13 11 10 10 10 10 10
8 7 7 8 7 7 7 8 8 8 10 11 11 6 11 9 11 10 10 9 10 10 10 11 12 12 13 13 14 15 16 16 17 17 17 17 15 13 12 10 10 10 10
8 7 7 7 7 7 7 9 8 9 9 10 10 8 7 8 9 8 8 8 8 8 8 9 10 10 11 12 13 14 15 16 16 17 18 19 16 15 14 11 12 11 11
8 8 8 9 7 8 9 8 9 9 9 10 9 9 9 8 8 8 8 7 7 8 8 8 8 9 10 10 11 11 13 14 14 15 16 17 16 16 13 12 11 12 12
8 9 10 10 8 8 9 9 9 9 9 9 9 8 8 8 9 8 8 7 7 7 7 7 7 8 9 10 10 10 11 13 13 14 12 14 14 14 13 12 12 11 12
8 9 9 9 10 9 9 9 9 9 10 9 9 8 8 8 8 8 8 8 7 8 8 7 7 8 8 9 11 12 12 12 12 14 11 12 12 12 12 11 12 11 11
8 9 10 9 10 10 9 9 9 9 9 9 8 8 8 9 9 8 8 8 7 8 8 7 7 8 8 8 11 12 12 12 12 11 11 10 11 11 11 10 11 10 10

GFSGL_925_spd_012.txt.gz
Wind_Speed
13 12 12 12 13 12 13 13 15 18 19 20 20 20 21 21 20 20 18 18 17 19 19 18 17 18 19 19 21 23 21 18 10 18 19 18 20 13 14 15 18 22 19
12 14 16 15 13 16 16 17 17 16 16 19 21 21 21 20 20 21 21 20 22 20 20 22 21 19 19 18 19 20 20 19 21 16 19 20 21 21 19 18 18 16 18
12 15 15 12 13 14 18 12 15 17 18 19 21 21 21 21 21 22 22 17 21 24 26 27 27 23 22 20 20 20 19 18 20 20 19 20 22 23 24 21 20 20 19
19 15 13 8 8 11 10 14 16 17 19 19 19 19 21 22 23 16 15 18 20 21 24 29 30 27 25 24 17 17 16 19 22 23 22 21 22 23 24 25 24 23 23
17 25 18 15 11 4 9 12 16 17 17 16 18 20 22 20 14 17 18 17 19 22 25 26 27 29 29 26 21 21 18 16 17 18 19 20 19 18 16 15 16 13 14
17 23 21 20 9 9 7 10 15 17 15 18 18 19 19 17 17 19 21 22 21 23 26 27 28 28 27 23 19 21 24 24 21 18 18 17 20 22 20 19 18 14 4
25 15 12 11 9 13 12 8 14 15 18 18 19 16 13 15 14 19 20 22 19 23 26 27 27 25 27 24 20 17 16 15 20 22 21 22 22 24 24 23 19 17 16
28 20 14 11 12 13 10 8 10 15 18 20 16 13 14 16 22 26 24 21 21 21 24 27 27 27 24 23 21 19 19 20 19 19 22 28 26 26 24 23 21 19 22
36 17 19 12 9 11 11 9 11 17 20 13 14 14 17 20 23 21 18 18 19 21 25 24 25 27 28 26 26 23 23 22 20 21 21 22 23 25 28 26 22 17 15
26 21 16 16 14 9 7 11 14 18 14 14 12 13 17 22 20 18 17 15 19 22 23 24 25 25 12 10 11 13 14 14 15 19 24 25 26 25 24 24 24 19 17
23 20 16 11 11 6 8 12 16 12 13 11 13 20 20 19 17 17 14 16 19 22 24 25 25 23 20 14 16 18 18 18 20 19 21 23 23 23 22 22 24 26 21
20 20 21 16 12 11 13 14 13 14 11 13 17 19 18 17 19 21 16 21 24 24 25 24 24 25 16 19 17 15 14 17 19 19 19 20 21 23 23 19 19 21 26
18 18 17 15 14 13 13 15 14 10 11 13 14 17 18 20 22 18 24 25 24 26 23 25 23 17 16 17 17 15 15 18 18 11 13 15 15 17 17 16 16 18 19
18 18 16 16 15 13 13 15 12 12 9 11 14 13 16 18 19 22 25 25 25 23 25 23 16 18 17 17 17 14 13 11 12 14 14 16 15 15 15 15 19 16 15
16 16 17 14 15 14 13 9 7 8 9 11 10 11 13 15 18 22 22 24 24 22 22 14 16 19 19 18 19 19 17 17 16 16 17 16 15 15 16 18 12 8 9
14 15 15 15 14 11 10 12 14 15 12 14 12 10 11 11 19 20 20 21 18 17 15 14 14 16 16 17 15 16 16 16 17 17 16 16 15 16 17 18 18 10 12
10 13 13 13 11 9 10 11 12 14 14 14 11 10 8 12 19 18 19 20 13 15 14 15 15 16 17 17 17 17 18 18 18 20 16 16 16 17 15 16 18 17 15
11 9 8 10 8 10 12 13 12 12 13 13 10 10 6 15 18 15 15 15 15 13 14 15 15 16 16 17 19 19 22 18 20 21 19 18 17 17 14 14 15 14 15
16 9 6 8 10 10 11 11 11 11 12 14 12 8 10 22 14 12 12 13 14 15 15 14 15 16 16 17 19 20 21 20 20 21 21 21 19 15 14 14 13 13 14
14 4 4 8 9 9 8 10 11 10 11 12 12 7 11 18 13 13 13 12 12 14 15 15 15 15 16 17 18 19 20 19 20 20 21 23 23 18 17 13 14 13 13
11 6 8 11 11 9 10 10 10 10 11 12 12 10 9 11 9 11 11 11 12 13 14 14 15 14 15 15 17 18 18 18 18 19 20 22 23 20 21 15 16 14 14
9 10 11 10 10 10 9 11 14 12 11 10 11 11 11 9 6 9 9 10 11 11 12 13 12 13 13 13 15 15 16 17 17 18 17 20 21 21 21 17 14 15 14
10 11 11 12 13 11 10 12 12 12 12 10 12 11 10 9 8 8 9 10 10 12 11 13 12 13 13 13 12 12 14 16 17 16 16 18 19 19 19 18 17 16 15
10 11 12 14 14 12 11 12 10 13 14 13 11 11 10 10 9 10 10 10 11 10 11 13 11 11 13 13 14 14 14 15 15 15 12 16 17 17 14 16 15 18 14
12 13 12 13 13 12 12 12 11 12 13 13 11 11 10 10 10 10 9 10 10 11 10 13 12 12 12 11 14 16 14 14 14 13 11 13 13 14 12 14 14 16 15
11 11 13 13 13 13 12 11 10 12 13 13 12 11 12 12 11 11 11 11 11 10 11 11 12 12 11 9 13 15 14 14 13 10 10 13 12 12 14 12 14 14 14

GFSGL_925_spd_015.txt.gz
Wind_Speed
7 10 11 12 3 1 5 6 9 14 17 13 14 15 18 17 19 20 20 20 18 15 16 18 21 24 22 22 20 16 14 15 12 19 16 16 19 18 14 14 14 6 14
11 11 13 15 10 11 6 9 10 10 10 9 12 15 15 18 20 21 20 13 17 20 22 27 27 26 27 27 25 22 19 16 12 5 13 19 20 21 22 19 18 12 13
16 17 14 8 13 15 13 6 2 5 7 10 12 11 13 17 20 18 14 17 20 22 25 26 28 29 28 26 27 25 19 14 15 14 12 18 21 23 24 25 22 23 21
10 20 23 19 17 10 3 7 7 10 11 10 8 12 14 16 14 12 16 17 19 22 25 26 26 26 26 25 26 25 25 23 21 22 20 17 17 19 18 16 17 15 16
24 23 26 21 9 11 12 8 19 14 10 5 12 14 13 9 11 13 16 20 24 25 23 24 25 25 25 25 20 18 19 19 18 18 18 15 14 16 14 16 15 19 19
26 30 19 7 9 9 10 12 22 8 5 12 14 14 5 8 10 14 22 25 24 21 23 27 28 24 22 23 22 16 16 15 16 16 15 12 13 17 22 21 20 16 4
29 24 18 18 15 15 14 15 9 5 10 14 12 4 9 10 10 20 21 20 22 20 22 24 28 22 25 24 23 22 20 16 15 15 15 18 19 24 21 22 19 15 16
18 22 19 18 14 13 6 18 3 10 15 8 8 11 10 16 21 18 16 18 18 20 20 25 26 26 25 24 25 24 24 22 20 19 19 23 23 23 22 22 21 20 19
16 16 18 16 13 12 17 4 7 14 6 7 10 11 16 18 16 14 19 19 18 19 20 22 24 25 23 22 15 16 16 16 16 15 16 14 14 16 17 19 18 15 16
14 15 17 17 14 15 11 9 10 7 2 6 9 15 16 15 14 18 17 15 19 20 21 22 22 22 21 22 14 16 17 21 17 18 22 25 26 26 25 24 23 17 14
14 15 15 15 14 13 12 11 8 4 6 7 13 12 15 15 21 17 16 20 20 19 21 23 23 23 25 18 16 18 20 17 17 19 21 20 18 17 18 18 21 24 21
15 14 17 18 15 14 12 10 6 6 7 12 13 17 16 18 20 17 21 21 20 22 22 24 27 25 16 18 17 17 13 14 17 17 17 18 17 16 16 16 18 20 23
15 17 17 17 17 14 12 9 7 8 11 11 15 15 16 18 20 21 22 20 20 22 22 23 18 18 17 18 17 17 15 12 11 10 10 11 14 14 14 14 11 12 16
13 14 16 14 15 12 11 8 9 12 12 13 14 14 14 17 20 22 23 23 24 20 22 17 17 19 20 18 20 18 18 17 14 14 15 16 15 14 12 14 13 10 6
13 13 13 15 16 13 7 7 11 12 12 14 13 11 13 14 17 19 20 22 22 18 17 16 18 18 19 19 20 20 22 19 18 17 16 15 15 15 15 17 15 9 7
10 12 12 13 11 9 8 9 12 14 13 14 12 10 10 11 15 17 17 19 16 18 16 16 16 18 16 17 18 20 21 18 19 20 17 17 16 17 16 17 17 16 14
9 11 10 7 6 7 10 14 16 14 12 14 12 9 7 8 15 14 13 15 14 15 16 16 16 19 17 16 18 18 21 19 20 20 20 20 19 18 16 17 18 18 15
13 12 12 10 9 8 10 11 12 13 13 15 10 7 5 10 13 12 12 15 16 16 17 15 17 18 17 17 19 19 21 21 21 21 21 22 21 18 17 17 16 16 15
14 17 12 6 5 7 9 9 11 12 11 12 12 5 5 12 11 11 11 12 12 14 16 16 17 17 18 18 19 20 19 20 20 20 21 22 24 19 18 16 15 14 14
14 12 6 5 4 9 10 8 12 11 11 12 12 10 10 10 10 11 10 10 12 13 13 14 14 15 17 17 18 19 19 21 20 19 20 22 22 22 21 17 17 14 15
13 4 3 7 9 9 9 10 9 13 14 13 12 11 11 10 9 8 10 10 11 12 13 14 13 13 16 16 16 17 17 19 20 19 18 20 21 23 21 20 16 16 15
13 11 10 9 11 12 12 10 12 13 13 14 11 12 12 12 10 9 10 10 10 11 12 13 14 11 14 14 14 16 16 18 19 19 17 18 19 21 19 19 18 17 17
15 12 11 10 12 13 12 13 11 13 12 13 14 14 13 12 11 11 11 11 11 11 11 12 13 12 12 13 12 15 16 16 16 15 15 16 17 19 16 16 16 16 16
14 12 13 11 13 14 14 14 14 11 13 13 14 15 12 12 12 12 12 11 11 11 11 13 13 14 13 12 11 14 17 15 14 12 11 12 14 15 13 14 15 14 14
18 17 15 15 14 15 14 14 14 15 10 13 13 13 13 12 13 13 12 12 12 12 12 12 13 13 12 11 11 15 16 13 12 10 9 10 11 11 12 11 12 12 13
20 20 18 14 14 15 15 14 13 11 13 14 14 12 12 13 13 12 12 13 13 13 12 13 11 13 12 11 12 15 14 12 11 8 8 8 11 10 10 11 10 11 11

GFSGL_925_spd_018.txt.gz
Wind_Speed
6 12 13 14 16 13 10 9 10 8 8 14 9 6 9 8 8 10 13 8 7 9 13 17 20 22 22 25 25 23 19 19 12 16 13 11 13 17 18 16 14 15 14
16 13 12 16 11 9 8 11 16 15 8 15 9 7 8 9 11 13 14 10 9 10 14 18 21 22 25 26 25 23 22 22 19 10 8 11 14 15 18 20 20 19 17
15 15 22 25 20 19 19 15 7 4 9 12 12 11 11 11 11 14 10 9 11 15 18 19 19 21 23 24 24 24 23 24 22 19 14 10 15 17 18 19 16 14 15
15 17 20 21 18 18 11 9 17 17 18 14 12 9 13 10 11 10 11 13 17 21 20 17 19 19 21 24 24 22 19 18 19 18 20 16 12 14 14 11 15 15 15
15 15 14 14 17 16 18 20 19 17 18 16 9 11 11 10 8 11 13 20 22 20 20 18 20 19 20 20 20 20 19 15 17 15 13 13 13 13 12 11 16 19 22
11 10 13 17 18 17 17 19 18 18 5 9 11 11 5 8 10 13 20 19 19 20 19 22 21 20 21 20 20 19 20 18 15 14 11 9 14 15 13 16 15 12 4
6 6 12 19 19 16 15 14 14 9 5 12 8 3 5 9 11 16 16 16 17 18 19 20 21 19 23 24 24 21 22 21 19 19 18 15 17 18 18 18 16 14 14
5 12 16 18 17 17 15 14 4 4 12 8 1 3 9 12 13 13 14 17 16 17 18 21 22 24 22 22 23 21 19 16 16 17 20 21 21 20 19 19 18 18 17
11 12 14 15 16 15 13 11 10 13 4 1 4 8 10 9 10 15 15 16 20 23 22 21 21 22 21 21 22 22 16 19 16 14 13 12 11 10 12 13 13 12 9
10 11 12 13 13 14 11 10 11 3 4 3 5 7 9 10 15 14 16 20 21 19 19 21 19 20 23 24 21 16 14 19 20 17 16 17 18 20 20 21 24 18 16
12 11 11 13 14 14 12 10 2 6 5 4 6 8 8 13 17 16 18 18 18 19 20 20 23 22 18 22 17 19 17 17 16 16 18 17 14 12 12 13 16 22 20
12 10 10 12 12 9 5 5 8 4 3 4 8 8 9 14 17 17 18 17 18 19 19 22 20 20 18 17 17 16 14 11 11 12 13 13 12 13 12 12 14 18 21
8 8 11 8 9 7 4 4 5 3 5 6 8 9 11 15 17 18 19 18 19 17 17 15 16 17 17 18 17 15 15 15 13 12 11 12 13 12 10 9 9 11 17
9 10 8 9 9 8 2 4 4 5 7 7 9 9 11 13 17 20 19 21 17 17 17 14 16 17 16 18 19 21 20 18 15 13 13 13 12 12 10 11 6 3 2
9 8 8 6 7 4 3 3 6 7 7 9 9 9 11 13 15 17 16 17 17 18 14 15 17 20 18 18 20 21 22 20 20 19 17 15 14 14 13 14 12 10 9
13 10 7 6 4 1 1 4 7 7 8 9 9 8 9 10 12 14 12 14 14 14 14 15 16 19 18 17 18 20 21 21 21 20 19 17 16 15 14 15 15 14 13
15 11 11 8 6 5 3 7 10 9 8 9 8 8 8 7 12 10 10 11 13 13 14 14 15 16 16 15 17 16 17 20 19 20 20 19 19 17 16 15 15 15 14
13 13 13 14 9 5 5 7 8 8 10 10 10 7 7 8 9 8 8 11 13 14 14 13 14 14 16 14 16 17 18 20 19 18 20 20 21 18 16 16 14 14 13
13 13 15 8 6 6 7 6 6 9 10 8 10 9 8 9 8 8 10 9 10 11 12 13 11 12 15 13 14 16 17 19 18 17 19 20 20 20 18 18 16 15 15
13 14 10 7 6 8 9 7 8 8 8 10 11 10 10 9 9 9 9 9 9 9 10 11 12 11 13 13 13 15 16 19 19 17 17 18 18 18 19 16 16 14 15
15 13 10 10 10 12 11 10 10 8 12 13 13 12 11 11 11 10 10 10 9 9 10 10 12 12 12 14 13 15 15 16 16 16 15 17 17 18 16 15 14 14 13
14 14 13 13 11 11 11 13 15 11 11 12 11 9 11 12 12 12 12 10 10 9 9 10 10 12 11 12 12 14 16 16 15 15 14 14 15 16 15 14 12 12 14
17 17 16 15 14 13 14 15 14 15 14 11 12 13 12 14 12 12 11 10 10 9 9 10 10 11 10 10 11 11 16 16 14 12 12 12 14 14 13 12 12 10 13
17 17 17 15 15 15 16 16 15 14 15 13 11 10 10 9 11 11 10 10 10 10 10 9 9 10 11 11 11 10 15 14 12 9 9 10 12 12 12 11 10 10 11
18 19 20 21 19 20 17 16 17 16 15 17 10 10 10 9 10 10 10 10 10 10 10 10 10 10 10 11 11 11 13 12 11 8 7 8 9 9 9 9 10 9 10
18 21 23 24 24 23 21 17 17 18 15 13 14 13 12 11 11 10 9 10 10 10 10 10 11 8 9 10 10 10 11 11 10 8 7 7 8 8 5 8 8 8 8

GFSGL_925_spd_021.txt.gz
Wind_Speed
6 10 12 14 17 19 18 16 11 11 13 13 14 19 13 12 10 8 11 13 11 11 12 13 17 20 21 23 24 25 23 18 11 18 21 19 14 10 13 17 17 15 15
5 6 9 13 17 17 14 12 14 19 17 12 11 13 19 13 10 11 12 10 11 13 14 17 21 19 20 20 21 23 23 23 21 17 18 17 17 16 15 17 18 17 16
7 10 14 16 16 14 15 18 21 22 18 18 18 18 14 15 13 14 12 11 11 14 19 21 20 19 21 22 23 24 23 21 21 20 19 21 19 16 15 13 14 14 12
10 13 13 12 14 15 15 17 21 20 19 20 17 13 14 12 19 12 11 12 15 21 21 20 20 20 21 22 24 23 19 19 20 18 17 17 19 17 14 12 12 12 15
9 10 9 10 13 15 19 20 21 18 17 15 10 9 12 17 8 10 12 18 21 22 22 23 21 21 21 22 22 22 24 20 18 13 11 11 12 14 14 11 10 13 15
9 8 8 11 15 17 18 17 16 15 11 7 8 9 9 5 8 11 16 17 17 21 24 23 22 21 20 22 23 21 22 22 19 16 15 13 14 13 14 14 13 8 2
8 8 10 13 16 18 17 16 13 14 5 4 7 3 3 7 9 12 14 17 19 19 20 23 23 20 23 24 23 22 22 22 21 22 19 18 17 20 18 18 16 13 12
6 9 11 14 18 19 17 15 11 2 8 10 2 2 5 8 10 13 14 16 19 22 22 20 22 23 23 22 24 22 24 22 17 16 18 20 23 22 21 20 19 16 16
7 10 15 17 17 18 16 13 10 9 10 4 2 3 7 10 12 13 14 18 21 21 19 22 19 20 20 24 22 21 24 21 19 16 16 17 17 13 11 15 16 11 9
9 14 16 13 16 16 14 11 10 9 6 4 1 6 7 9 12 12 15 17 19 18 22 21 18 18 22 23 20 18 20 21 17 19 18 17 16 18 19 20 20 14 12
14 14 13 12 15 14 11 9 7 5 5 1 5 5 5 8 12 12 15 16 18 19 19 19 20 20 20 19 18 19 18 17 14 14 17 16 14 12 13 16 20 24 19
15 13 11 13 9 7 5 1 5 5 2 2 4 4 5 8 11 13 14 15 17 17 18 20 18 19 18 18 18 19 16 14 14 13 12 13 13 13 13 13 14 18 22
17 13 11 8 7 5 5 5 5 3 2 3 4 4 5 8 11 13 14 14 15 16 17 15 15 17 16 16 17 17 17 20 18 16 14 14 15 14 12 8 10 15 19
17 12 9 9 8 7 6 5 4 2 4 4 5 6 7 9 12 15 14 15 17 16 16 13 15 17 15 16 17 18 19 20 18 17 16 17 15 15 12 11 6 3 4
10 12 12 9 6 4 3 5 5 5 6 6 7 7 8 9 11 13 13 14 15 15 13 13 17 20 20 18 20 19 20 21 22 21 19 19 17 17 15 15 12 8 5
14 17 15 10 10 7 7 7 6 7 7 6 8 8 7 8 9 11 9 10 11 13 10 12 15 18 19 16 18 18 19 21 20 20 19 18 17 17 15 15 13 12 12
17 19 12 10 12 12 10 9 8 9 7 6 6 7 7 7 7 7 7 8 10 11 10 10 11 13 16 14 16 16 17 19 16 17 18 19 17 16 16 15 14 13 12
18 15 13 13 14 17 12 12 11 8 9 8 6 6 6 7 7 6 6 9 9 9 9 10 10 11 13 13 14 15 17 18 16 16 17 18 19 16 16 15 14 14 12
15 15 12 14 16 13 12 13 13 9 9 10 9 8 7 8 8 8 8 8 8 8 8 8 9 9 11 11 11 13 14 16 15 14 16 17 17 17 16 14 14 12 12
19 15 13 13 10 11 13 14 13 12 11 11 12 11 11 10 11 9 9 9 9 8 7 8 8 9 9 11 11 13 14 15 15 14 14 15 15 14 15 15 13 13 13
17 19 14 13 13 16 16 18 17 14 13 12 13 11 11 12 12 11 11 10 10 9 8 7 7 9 9 10 10 10 13 14 13 13 13 13 14 15 13 13 11 11 13
22 23 18 16 16 17 14 14 14 15 17 15 13 12 11 13 14 13 12 11 9 10 9 9 8 8 9 9 10 9 12 13 13 12 11 12 12 13 12 12 11 10 13
23 22 22 19 19 17 17 16 15 16 17 18 17 15 13 13 14 14 12 10 9 9 9 9 9 8 8 9 9 8 10 12 12 11 10 11 12 12 12 11 10 11 12
23 22 20 20 18 17 18 19 18 17 17 18 20 18 15 14 13 12 11 10 10 9 9 10 10 9 9 9 9 8 10 11 10 9 9 9 10 10 10 8 9 9 10
23 20 19 21 21 22 22 22 22 21 20 20 19 20 17 13 14 13 13 12 11 10 10 10 10 10 10 9 9 8 9 10 10 9 8 8 8 9 6 7 7 7 7
22 21 21 22 25 26 27 27 27 25 24 22 21 20 17 16 16 14 13 13 12 11 11 11 11 11 10 9 9 8 8 9 9 9 9 7 7 8 5 5 6 6 6

GFSGL_925_spd_024.txt.gz
Wind_Speed
3 5 6 9 12 14 14 14 14 15 18 24 21 16 14 8 14 15 13 17 15 13 13 13 17 20 24 23 21 21 21 18 15 25 25 28 29 26 25 19 18 21 19
3 5 8 11 10 9 10 12 14 19 23 22 17 12 15 19 14 15 18 16 14 14 14 17 23 24 23 22 22 23 22 22 21 21 25 26 25 24 19 21 22 20 19
4 7 8 6 8 10 12 17 22 22 20 14 13 18 15 9 10 11 14 11 11 14 19 23 23 24 25 25 26 24 23 21 21 19 24 23 24 25 25 23 22 20 17
7 7 5 6 9 13 16 21 22 21 19 17 17 16 9 3 9 11 7 11 16 20 22 22 25 25 24 26 24 21 19 21 20 21 23 25 19 22 19 19 21 19 17
10 10 7 7 12 17 21 23 21 20 17 15 7 3 5 10 7 6 10 16 19 21 23 25 23 22 24 24 24 21 23 22 19 18 18 18 17 14 13 14 13 18 16
12 9 8 11 16 19 20 21 21 17 14 14 8 7 5 2 4 8 13 16 18 22 24 25 24 22 20 21 23 23 24 24 20 19 20 18 19 18 14 14 11 7 3
11 8 9 14 17 19 19 19 18 15 7 5 8 3 1 4 8 11 14 16 19 22 22 21 19 18 21 22 22 23 25 23 22 24 18 15 18 20 21 16 14 14 11
7 9 12 15 17 17 18 18 16 10 8 11 3 2 2 6 9 11 12 16 20 21 20 18 20 20 21 21 26 21 21 23 22 20 20 22 22 22 23 23 20 15 16
10 11 13 15 16 18 19 18 13 11 10 5 4 2 5 7 10 12 13 16 18 20 18 19 18 18 20 23 24 18 21 19 19 16 18 19 20 20 19 17 15 16 13
10 13 14 15 16 17 19 17 14 13 8 6 2 4 6 8 10 10 11 16 18 19 20 18 18 17 21 22 21 20 20 17 19 18 18 18 17 18 19 19 21 15 5
13 17 16 15 15 17 15 13 10 6 6 5 3 5 6 7 9 10 11 14 17 18 18 19 20 18 21 20 19 19 18 18 16 15 15 14 14 14 14 15 18 23 19
16 19 19 13 15 13 13 10 6 6 5 4 5 6 7 7 8 10 11 12 14 15 19 19 18 19 19 17 16 17 17 17 18 17 16 15 16 17 16 15 16 19 22
17 19 15 12 13 13 12 10 9 7 5 6 8 8 7 7 7 9 11 10 14 15 16 14 15 16 16 14 15 16 17 19 18 17 16 16 18 17 15 12 10 14 19
13 15 13 13 13 12 11 10 9 7 7 9 10 10 9 8 7 8 10 11 15 15 17 13 14 15 15 15 17 17 19 18 16 17 17 19 17 18 17 17 9 5 9
12 13 14 17 16 11 9 8 9 9 10 12 12 11 11 10 7 8 9 11 12 15 14 12 15 18 20 18 20 19 21 20 20 20 20 20 19 19 19 19 17 13 9
15 16 17 20 16 12 12 12 11 11 11 12 11 12 11 10 8 7 7 7 9 12 12 12 14 15 17 17 17 19 20 22 19 19 19 19 17 18 18 19 18 15 12
15 17 19 17 12 12 14 17 15 12 10 10 11 10 11 10 9 8 6 8 8 10 10 11 11 12 14 14 14 16 18 19 17 16 17 18 19 16 18 16 18 16 13
15 17 17 16 15 14 17 20 17 16 15 13 10 10 10 11 11 8 7 8 8 8 9 10 11 11 12 13 12 14 15 17 17 16 16 17 17 15 15 15 15 16 14
19 19 19 17 15 16 19 16 15 16 18 15 13 11 11 10 11 11 10 11 10 9 9 10 10 11 11 11 11 11 12 13 14 14 14 15 16 15 15 14 14 14 14
20 21 17 18 18 15 14 15 17 19 19 19 16 15 13 12 15 14 12 13 13 12 11 11 9 10 11 10 11 10 12 13 13 13 13 13 13 14 13 14 13 13 15
24 21 22 20 21 18 18 18 19 20 21 21 19 15 13 14 15 15 13 14 14 13 12 12 10 10 10 10 10 10 10 12 12 12 11 12 13 14 14 13 13 11 13
24 21 19 21 22 23 20 19 20 19 18 20 21 19 16 16 16 17 17 15 14 13 13 13 12 11 10 10 10 10 9 11 12 12 11 11 12 12 14 13 13 12 14
22 22 23 23 22 22 20 21 20 21 21 20 21 20 20 20 19 18 18 17 14 14 13 14 13 12 10 10 10 10 10 10 11 12 11 11 11 12 12 12 12 12 13
22 23 23 24 21 20 23 22 22 23 23 23 22 23 23 23 22 19 18 17 16 16 15 15 14 13 11 11 11 10 10 9 10 10 10 10 11 11 11 11 11 10 11
22 21 21 23 22 20 22 24 25 27 27 27 26 26 25 24 24 22 19 18 18 17 16 15 14 13 12 12 11 10 10 9 9 9 9 9 9 9 10 8 9 9 9
20 19 21 23 22 22 22 26 29 30 31 32 31 29 27 27 25 22 20 19 19 19 17 16 16 14 13 12 12 11 10 9 9 9 9 8 7 8 8 7 7 8 8

GFSGL_925_spd_027.txt.gz
Wind_Speed
4 4 4 3 7 9 9 10 12 15 19 21 21 18 16 15 14 15 12 11 14 14 11 11 13 15 18 19 20 20 19 20 21 31 28 28 29 27 27 25 25 23 22
5 3 3 7 7 7 9 10 15 19 22 21 18 12 9 13 14 12 9 10 11 10 11 13 17 19 21 21 21 22 22 23 24 28 28 28 24 26 26 24 22 22 23
1 4 8 7 6 7 10 14 18 19 18 16 11 12 13 13 7 5 9 10 6 8 13 16 19 20 23 23 23 24 22 21 22 24 29 27 26 24 23 22 22 24 23
5 7 8 7 7 9 13 17 19 20 17 14 13 13 6 2 4 8 6 4 8 12 14 16 18 19 21 23 23 23 22 20 21 24 27 25 23 22 17 18 19 19 21
8 10 10 8 8 12 16 20 20 17 13 13 10 6 5 4 2 1 4 8 12 15 16 17 18 19 19 18 19 21 22 22 22 22 23 23 21 20 18 20 18 18 18
10 11 9 8 10 15 19 18 16 14 12 8 6 4 3 1 2 6 9 11 13 14 17 18 17 16 15 18 18 18 19 23 24 23 23 21 23 20 19 19 18 14 10
10 8 6 8 13 17 15 14 14 12 8 5 8 4 2 1 6 10 13 10 12 15 15 16 16 16 17 16 18 22 20 20 22 23 24 24 22 18 18 19 18 16 15
6 6 8 11 14 14 13 14 14 10 8 8 6 4 2 3 8 11 13 10 12 14 15 15 16 17 17 18 22 21 19 21 19 18 20 22 21 19 19 20 17 18 18
7 8 10 13 13 11 12 16 14 10 8 7 5 5 3 5 8 10 11 11 13 15 14 15 16 17 16 20 21 20 20 20 17 19 20 20 19 21 21 18 18 16 14
8 10 13 15 13 11 14 13 13 9 8 6 6 5 6 7 8 10 10 11 14 16 15 15 14 15 18 19 19 18 19 20 21 20 18 16 15 14 15 16 17 18 18
10 13 15 16 14 11 12 11 11 7 5 7 6 6 7 8 8 9 10 11 12 15 16 16 15 16 19 18 16 13 17 20 18 17 16 15 14 13 12 11 13 16 18
13 15 15 16 12 11 11 10 9 7 6 7 7 7 8 9 9 9 10 10 10 13 15 15 15 17 17 16 12 14 15 15 14 14 14 14 14 15 15 14 14 15 17
16 14 12 13 10 10 10 9 9 8 8 7 7 8 8 8 8 10 10 11 10 12 12 15 14 15 15 11 13 13 12 12 13 14 14 15 16 16 17 15 12 11 15
13 11 10 11 12 12 11 10 9 9 9 8 9 10 10 9 9 8 8 9 11 11 13 11 11 12 12 10 11 12 12 11 11 13 14 16 15 15 15 17 13 10 7
11 11 12 12 13 14 12 11 10 10 10 10 12 11 11 11 10 9 8 9 10 10 13 9 9 11 12 11 11 11 12 13 12 13 14 16 15 15 15 16 15 12 10
9 10 11 13 14 13 11 11 13 15 14 13 13 13 13 15 13 11 9 9 10 11 9 9 9 9 10 12 12 12 11 13 13 12 13 14 15 14 15 14 14 13 12
10 12 12 13 13 12 10 11 13 13 16 15 14 14 15 15 13 12 10 10 11 10 8 8 8 8 9 10 10 11 12 12 12 11 12 12 13 13 13 13 13 13 12
13 14 15 15 14 13 13 13 13 14 14 11 12 13 14 13 14 14 12 10 11 9 8 9 8 8 8 8 9 10 11 11 11 12 11 12 12 12 12 13 13 13 13
14 12 14 18 17 16 16 15 14 14 12 12 12 14 14 14 14 15 13 14 14 12 10 10 9 8 8 8 8 8 9 10 11 10 9 10 11 12 11 11 12 12 12
12 15 18 18 16 15 15 16 15 14 14 15 15 16 12 15 13 15 16 15 15 14 13 12 10 9 8 8 8 8 8 9 9 9 9 9 9 9 10 11 11 11 11
12 15 18 19 18 15 17 17 17 15 15 17 18 16 17 15 15 15 15 16 19 16 14 13 11 10 10 9 8 8 8 8 8 9 8 8 9 9 9 9 9 9 10
17 16 15 15 18 19 17 16 17 16 16 18 16 15 19 21 19 18 17 17 20 20 18 16 14 12 11 9 8 8 8 7 7 8 8 9 8 8 9 9 9 8 9
20 18 16 16 18 19 17 16 17 17 17 17 17 17 16 20 22 22 21 21 21 21 21 20 18 17 15 13 12 11 9 7 7 9 9 8 8 8 8 8 9 9 9
17 18 16 17 19 18 16 16 16 22 21 19 19 20 20 20 21 25 28 25 23 21 22 21 20 18 16 14 14 12 11 10 9 9 9 9 7 7 7 7 7 8 8
16 17 18 20 17 17 17 16 16 18 20 22 23 23 24 25 24 26 28 28 27 24 24 23 21 19 17 16 14 13 11 10 9 8 8 8 8 8 7 6 6 6 7
19 20 19 19 18 16 17 16 15 16 16 18 21 24 26 27 29 31 29 29 28 25 23 24 23 21 18 17 15 13 12 10 9 8 7 7 7 6 5 5 5 5 6

GFSGL_925_spd_030.txt.gz
Wind_Speed
6 5 5 3 1 3 5 7 9 13 17 20 20 20 19 18 17 18 19 15 13 14 15 17 17 20 23 24 25 26 27 27 24 35 33 31 29 29 29 26 27 29 28
7 7 4 2 4 5 6 8 11 16 18 19 18 17 16 15 16 16 15 9 11 14 15 16 20 23 25 25 25 26 27 28 27 30 31 29 28 28 28 29 28 26 27
9 6 4 5 7 7 8 10 14 17 17 16 15 15 15 15 14 9 7 9 11 11 13 18 21 22 23 23 24 25 24 25 25 26 29 28 28 27 26 24 24 23 24
7 5 6 8 8 8 9 12 15 16 15 15 14 12 9 9 6 6 8 7 11 14 16 18 18 18 20 21 22 21 21 22 23 25 27 26 25 24 24 24 22 21 20
5 6 8 8 8 8 10 14 15 14 14 15 12 9 8 7 5 5 6 11 14 16 16 16 17 16 17 16 17 20 20 20 21 24 24 24 23 22 22 23 22 22 23
5 8 8 8 8 9 12 14 13 14 13 12 8 7 6 5 7 5 8 13 15 15 15 16 16 15 14 18 16 18 20 24 26 25 25 24 26 24 24 21 20 19 11
8 8 7 7 9 11 13 13 13 13 12 11 10 9 8 6 7 7 12 12 13 13 14 16 16 15 16 18 18 20 23 20 21 23 27 25 23 24 23 21 21 21 19
7 7 7 9 11 12 12 13 14 13 12 12 10 9 9 7 7 9 12 10 12 13 14 15 16 16 16 16 20 22 21 20 20 20 23 25 25 25 22 21 23 24 22
8 9 10 11 13 13 13 13 14 11 13 12 10 10 10 8 9 9 10 11 11 14 13 14 14 15 15 17 20 21 22 20 17 19 22 23 22 22 19 19 20 19 17
10 10 10 12 14 15 14 13 12 11 12 11 10 10 10 7 9 8 8 9 12 13 14 14 12 12 16 18 19 19 20 20 22 22 20 18 17 17 16 17 17 16 17
8 10 12 14 15 15 14 14 12 12 10 9 9 9 9 9 8 10 9 8 11 13 14 15 14 15 17 18 17 15 17 21 20 19 18 17 16 15 16 16 15 16 16
8 12 14 14 14 13 12 14 13 12 11 10 10 10 11 10 10 10 9 9 10 10 13 14 15 17 17 17 13 15 16 15 15 15 15 16 16 17 18 19 20 19 17
11 13 13 12 12 12 13 15 16 12 11 12 12 13 13 10 10 11 11 9 9 10 12 15 17 15 15 13 11 13 13 12 13 13 15 16 17 18 19 18 19 13 13
12 13 13 12 13 14 14 16 16 13 12 12 12 12 13 11 10 10 8 8 8 10 10 13 13 13 12 11 11 10 11 12 12 13 14 15 16 16 17 17 19 18 9
12 11 11 11 13 14 15 16 14 14 13 12 11 11 11 11 10 10 11 9 9 10 13 10 11 10 10 10 9 9 10 11 12 12 14 15 15 16 16 16 16 16 14
11 10 10 13 13 15 16 15 14 15 16 17 17 14 11 14 14 15 13 10 9 10 10 11 11 10 10 10 9 10 9 10 11 12 13 14 15 15 16 15 14 14 14
10 11 13 13 15 16 15 14 14 13 15 18 21 19 17 15 15 15 14 12 11 10 11 11 11 11 11 10 9 9 10 10 10 11 11 12 13 14 14 14 14 14 14
10 13 14 15 16 17 17 15 16 14 14 15 16 18 17 16 16 16 14 12 13 13 12 12 11 11 11 10 9 9 9 9 10 10 10 11 12 13 13 13 13 13 14
12 14 15 17 18 18 19 18 18 17 16 16 14 13 15 17 17 17 16 19 16 15 14 13 11 11 11 10 9 9 9 8 9 10 10 10 11 11 12 12 12 12 12
15 16 16 17 18 18 18 17 16 17 18 17 15 16 14 11 14 16 18 19 18 17 15 14 13 12 11 10 9 9 8 8 7 8 8 9 9 10 10 11 11 12 11
18 18 17 19 17 18 17 18 19 19 19 17 16 16 17 18 17 16 15 17 18 19 17 15 14 13 12 11 10 9 8 8 7 7 7 8 8 9 10 9 10 10 11
19 20 19 20 19 18 19 19 19 17 18 18 17 16 17 17 20 20 19 19 19 19 19 18 16 14 13 12 11 10 9 8 7 6 7 7 7 8 9 9 9 9 10
18 20 19 20 19 19 20 19 18 18 18 20 19 17 17 18 19 21 22 22 22 21 21 19 19 17 15 14 13 11 10 8 7 6 5 6 6 6 7 8 8 8 9
16 17 19 21 21 20 20 18 16 17 19 20 21 21 21 22 23 24 25 26 26 26 25 22 20 19 17 16 14 12 11 9 7 6 6 5 5 5 6 6 6 7 7
14 16 19 21 22 21 18 17 16 17 17 18 20 22 22 24 25 27 28 29 29 28 27 25 22 20 22 20 17 15 13 13 10 8 6 5 6 6 5 5 5 6 6
13 15 18 19 18 18 18 16 16 17 16 17 18 20 21 22 23 26 27 27 28 28 27 26 24 23 22 21 20 19 17 14 12 10 8 6 6 5 5 5 5 5 5

GFSGL_925_spd_033.txt.gz
Wind_Speed
12 8 6 6 7 7 6 5 6 8 12 14 16 17 17 18 17 14 17 18 19 13 12 13 15 15 18 22 24 25 25 26 20 28 31 30 29 29 29 28 30 29 31
10 8 7 9 8 8 7 7 8 11 13 15 16 16 17 16 17 17 17 13 10 12 13 14 16 19 22 24 24 25 26 28 27 27 30 27 28 28 29 30 29 28 28
9 9 9 10 9 9 9 9 10 13 15 16 15 16 16 16 14 12 9 7 10 10 12 15 19 21 21 21 22 24 25 26 25 23 26 26 27 26 27 27 27 26 25
10 8 12 8 9 10 10 10 12 14 15 15 15 15 13 14 10 9 8 8 9 13 15 17 18 18 18 17 22 21 22 23 23 22 24 26 26 27 26 26 24 24 24
10 12 10 9 9 10 10 11 13 14 14 15 15 12 11 10 8 4 8 11 14 17 17 16 16 15 17 15 14 20 20 21 21 22 23 23 22 24 24 25 25 25 24
12 11 9 9 10 10 11 12 14 14 15 16 14 11 11 10 8 9 8 11 15 16 16 15 16 16 13 17 18 13 17 22 25 24 24 22 26 25 25 22 24 21 13
11 9 9 9 9 10 12 14 14 15 15 16 14 12 12 9 10 9 9 11 15 13 14 15 16 15 15 16 16 19 20 22 24 24 25 24 24 25 27 26 25 23 23
9 8 8 9 10 11 13 15 15 15 16 16 13 11 11 9 12 10 11 12 13 12 13 14 15 15 13 13 17 19 21 21 21 20 21 24 26 27 25 25 26 27 25
8 8 8 10 12 13 15 16 16 16 16 15 14 12 11 10 13 12 11 10 11 12 13 14 12 14 13 18 17 19 21 21 19 20 21 23 25 28 27 26 25 20 17
7 9 10 11 12 15 16 17 16 16 17 15 13 11 11 8 9 12 10 9 10 12 12 12 12 7 12 14 16 17 20 20 23 23 22 21 19 19 18 18 21 21 19
7 9 11 12 14 15 16 16 15 16 15 13 11 10 11 9 12 11 11 8 10 11 12 12 11 13 17 16 15 14 16 21 20 19 19 18 18 17 17 19 20 21 21
7 10 12 14 15 15 15 15 16 17 15 12 12 11 12 13 14 14 14 12 10 11 13 12 12 17 17 15 14 13 19 16 16 17 17 16 16 17 19 22 23 23 23
8 11 14 15 14 14 16 17 17 16 14 14 12 12 13 12 12 14 15 13 11 10 12 13 16 15 14 13 9 15 12 13 15 15 16 16 17 18 20 21 23 24 26
10 13 13 14 14 15 16 19 14 12 15 14 12 13 13 11 11 10 11 11 9 11 12 9 14 14 12 13 12 11 11 11 13 15 15 16 16 17 18 19 21 22 21
12 12 12 13 14 16 18 17 13 13 14 15 14 14 12 12 12 14 12 10 9 9 11 11 11 10 11 11 11 11 11 11 12 12 14 16 16 16 17 19 18 19 17
11 11 11 12 15 17 17 17 15 15 17 20 22 22 19 15 15 16 16 16 15 12 10 12 12 9 10 11 11 11 10 10 11 12 12 13 15 16 17 16 15 16 16
11 12 13 15 16 16 17 17 18 18 18 19 21 23 24 25 18 17 17 16 14 12 12 13 13 11 10 11 11 10 10 9 10 11 12 12 13 15 16 16 14 15 15
13 15 17 16 15 15 17 19 19 19 18 17 18 19 22 23 23 20 19 15 16 17 16 15 13 12 10 12 11 10 10 10 10 10 11 11 12 13 14 15 15 15 15
17 18 17 16 16 17 18 19 20 20 20 20 19 17 19 22 22 21 19 19 19 18 16 17 16 13 12 12 10 8 8 9 9 8 10 10 11 12 12 12 14 14 15
22 22 19 18 19 19 17 18 20 20 20 18 19 19 14 15 17 19 23 24 22 21 17 18 17 14 12 11 10 9 10 9 8 8 8 9 9 10 11 12 11 13 14
24 23 19 19 20 21 20 20 19 20 20 20 20 20 18 17 17 18 18 19 22 21 20 20 18 17 13 12 12 11 10 10 8 7 8 8 8 9 10 10 11 11 12
24 21 20 20 21 20 22 22 18 21 21 20 20 18 20 21 20 20 20 20 21 21 21 20 21 19 17 16 15 13 12 11 9 8 7 6 7 8 8 9 9 10 10
21 22 21 21 17 22 24 24 22 21 20 19 19 19 19 20 21 21 22 23 22 22 24 24 23 22 21 20 18 16 13 12 10 8 8 7 6 6 7 8 8 8 9
21 22 21 16 18 20 24 25 24 22 18 17 18 20 20 22 22 24 25 25 26 27 27 27 27 26 24 23 23 22 17 13 11 9 9 7 6 6 6 6 7 7 7
24 23 19 17 17 19 21 21 20 20 19 17 17 18 18 20 21 23 25 27 28 29 30 30 30 29 28 28 25 24 19 18 16 11 9 8 7 6 5 6 6 7 5
27 27 23 16 16 16 16 15 16 16 16 16 17 19 19 18 19 20 21 22 23 26 28 30 31 33 31 28 29 26 22 22 19 16 12 9 8 7 6 6 5 6 6

GFSGL_925_spd_036.txt.gz
Wind_Speed
18 16 14 10 12 9 10 8 6 6 7 8 11 13 14 16 13 17 18 18 13 11 8 11 10 11 13 16 18 18 20 20 17 24 26 24 26 24 26 28 28 30 30
18 17 15 12 10 14 7 8 7 6 8 9 11 13 14 13 13 14 15 14 9 9 10 10 12 14 15 15 17 17 19 23 24 23 24 24 22 25 26 27 26 26 29
18 14 10 14 11 9 10 6 7 7 8 10 12 13 15 10 11 11 10 11 10 9 10 12 13 14 17 15 14 19 21 20 22 22 24 24 23 25 27 26 26 27 26
13 12 14 5 16 4 6 6 6 8 9 12 12 14 12 8 10 11 8 8 7 11 13 14 14 14 12 14 16 17 17 19 21 21 22 23 23 24 23 24 21 25 24
12 7 7 11 5 7 6 7 8 9 11 13 13 16 10 8 10 6 6 6 8 13 17 16 13 14 17 17 14 16 14 17 19 20 21 22 21 22 21 21 22 24 26
9 10 8 12 1 6 6 7 10 12 13 12 13 16 10 8 11 9 9 8 8 13 16 13 13 14 12 11 7 7 13 17 22 21 23 22 23 21 19 22 22 22 15
11 12 5 5 8 6 6 9 11 13 12 14 16 16 12 11 12 13 11 8 9 11 13 12 13 13 14 14 15 19 23 19 22 25 25 20 20 19 24 24 23 23 23
2 3 7 6 6 7 8 12 13 15 13 13 15 16 13 12 13 13 11 8 7 11 13 12 13 12 14 15 18 23 18 19 21 23 19 21 22 26 27 26 28 27 30
7 3 8 4 7 12 12 12 13 14 14 13 15 16 12 13 13 12 12 6 7 10 12 13 13 12 13 15 19 19 18 19 18 20 24 22 22 24 25 24 23 19 19
12 13 13 8 11 13 16 15 14 14 14 15 12 8 7 7 12 13 11 7 8 11 11 11 14 9 10 14 16 16 18 18 22 25 21 22 22 22 19 17 19 19 19
5 9 15 14 14 15 18 13 13 15 17 17 15 12 11 10 11 15 11 11 11 9 11 11 10 9 14 20 14 14 14 19 19 20 20 21 19 18 19 21 22 22 23
14 10 12 14 15 15 17 16 16 18 19 14 11 12 12 14 16 17 16 15 11 13 13 12 12 15 20 15 12 12 14 15 16 17 20 19 18 20 22 24 24 23 24
8 11 13 15 15 15 16 16 14 18 17 10 12 11 14 17 16 17 18 16 15 13 11 11 14 15 15 14 11 14 14 13 13 16 18 19 21 22 22 22 24 24 24
11 13 14 14 14 15 17 17 18 18 10 11 13 15 16 14 12 11 12 15 16 15 12 12 10 16 14 13 13 10 9 11 13 15 14 19 21 21 20 21 23 22 21
13 13 14 14 15 15 16 17 16 16 13 15 16 18 16 14 15 14 13 13 17 16 12 13 15 15 12 11 11 11 10 10 11 11 15 17 18 19 20 22 20 19 16
13 14 14 14 15 16 17 18 15 18 20 20 22 21 23 21 19 19 17 16 17 16 15 12 13 17 14 10 12 14 10 9 8 14 13 15 16 17 20 22 19 18 16
15 15 16 16 16 18 15 14 19 23 20 20 20 23 23 24 23 21 19 17 17 15 16 15 17 19 15 11 12 13 10 7 9 10 11 14 14 17 17 18 19 19 18
16 19 20 23 22 18 15 18 18 18 19 21 21 20 22 25 23 24 22 18 17 19 21 19 19 19 17 14 13 12 7 7 10 10 12 12 12 14 17 15 17 18 19
22 23 24 26 25 21 21 20 21 20 20 22 22 20 19 21 22 23 19 22 20 19 21 23 24 22 20 17 14 12 10 10 11 13 10 10 11 12 14 15 15 16 19
24 26 28 28 23 22 20 20 19 19 20 19 19 20 19 18 21 23 25 25 24 24 23 22 22 19 17 17 16 13 12 12 13 11 8 8 10 10 13 14 14 14 14
26 26 28 27 21 21 21 20 20 19 21 19 20 21 22 21 19 21 24 26 27 26 25 24 24 24 24 19 17 16 15 14 13 12 10 9 9 10 11 11 12 12 14
28 28 25 23 24 23 21 19 18 21 23 21 20 20 20 21 23 23 22 21 23 27 25 24 25 26 24 23 22 20 18 19 16 13 11 11 10 8 10 9 11 10 11
27 30 29 27 21 20 21 18 20 21 22 24 22 20 19 19 20 26 25 24 22 23 25 25 26 27 26 25 26 24 22 20 17 16 14 12 10 9 8 7 9 10 9
30 31 29 27 25 22 18 17 19 21 20 22 20 17 17 17 19 19 24 27 26 25 26 27 28 29 29 28 28 27 26 23 19 18 17 16 13 9 8 7 6 8 8
30 32 30 26 26 25 20 14 12 12 14 16 18 16 16 17 18 18 16 17 21 24 26 28 29 30 31 33 31 29 28 26 23 21 18 14 13 11 11 7 6 7 7
28 34 26 20 22 20 3 8 11 13 16 18 19 19 19 19 21 19 18 16 16 17 18 20 24 27 29 32 34 32 29 27 25 24 20 14 11 10 8 8 7 6 6

GFSGL_925_spd_039.txt.gz
Wind_Speed
25 23 19 16 10 11 7 6 6 7 7 5 6 8 10 11 7 9 12 14 11 6 5 6 7 7 7 5 6 8 8 12 9 17 19 21 25 24 27 26 26 27 24
25 21 19 15 13 6 7 7 8 13 9 8 8 8 10 11 11 9 9 8 8 8 7 7 9 8 8 10 11 9 12 17 14 15 22 25 26 26 26 27 27 25 26
23 22 18 14 9 8 4 13 13 11 8 7 7 11 11 10 6 6 5 5 5 5 7 9 7 10 11 10 10 15 16 17 15 17 21 24 24 26 27 26 25 24 26
26 22 15 11 9 2 4 3 12 6 5 7 11 13 15 15 11 9 7 6 5 5 7 10 11 7 7 12 14 13 14 12 15 19 19 20 22 25 23 23 20 23 26
24 16 15 9 8 1 10 12 6 10 11 12 14 15 15 15 12 12 11 12 10 11 10 11 8 9 12 13 8 10 10 13 17 19 17 18 21 21 19 18 21 25 29
24 20 14 5 2 3 4 12 8 9 12 13 13 14 17 15 15 14 13 13 10 8 10 8 11 10 11 8 6 6 10 15 21 17 16 17 22 18 16 22 22 20 12
19 13 9 13 3 10 7 6 7 14 18 16 19 15 14 16 16 16 15 13 9 8 8 10 8 8 12 12 14 17 18 21 15 18 21 17 18 21 22 24 23 21 23
20 14 9 10 9 7 11 14 16 18 17 19 14 15 15 17 16 16 15 14 10 8 9 9 9 11 11 13 16 17 21 20 16 14 17 24 23 21 22 24 26 28 27
20 19 16 13 14 15 14 15 19 22 23 18 17 17 18 14 14 13 14 12 11 10 11 12 10 10 12 12 15 19 22 20 14 13 17 16 18 19 18 19 15 17 19
20 15 13 11 9 10 17 17 21 15 16 16 18 16 14 14 12 14 16 15 15 13 11 9 10 12 11 12 16 18 17 17 16 19 19 19 19 17 16 16 19 17 19
13 8 3 6 12 13 17 13 15 18 20 22 22 20 16 17 17 16 17 19 17 14 12 13 12 12 11 13 16 14 13 13 17 17 18 20 19 20 20 20 20 21 21
1 6 7 9 11 13 16 17 18 19 21 21 19 14 15 16 18 17 19 20 18 17 13 12 12 12 15 17 12 11 12 13 16 17 17 19 18 22 23 22 21 21 20
4 8 12 13 12 15 16 17 18 19 22 24 17 14 15 17 20 21 20 21 21 19 17 13 10 13 14 15 14 15 15 16 15 16 18 14 18 19 21 21 22 20 22
10 13 13 14 15 18 19 17 18 20 15 12 14 17 20 19 18 22 23 21 21 21 19 17 15 15 14 14 15 13 13 12 12 12 11 16 16 17 22 21 23 23 21
13 14 15 18 18 19 19 20 19 19 17 18 20 21 22 22 23 19 20 20 21 21 18 18 17 17 18 15 15 14 13 12 12 11 12 12 15 16 20 21 20 20 17
13 19 20 20 20 22 23 24 19 18 23 21 23 23 25 26 24 22 22 22 21 19 20 21 21 19 17 18 18 16 13 14 12 9 10 10 13 15 17 19 19 19 16
22 22 23 22 23 25 26 26 24 28 24 23 21 22 22 24 25 24 24 23 22 20 20 22 21 20 20 21 20 16 16 14 10 9 10 11 11 13 15 17 17 19 16
21 21 26 29 30 31 32 32 33 28 21 24 25 23 23 22 22 24 27 24 22 23 25 25 24 23 22 22 21 19 16 13 11 10 11 10 9 11 12 15 17 16 18
24 26 28 31 31 32 31 28 28 27 26 29 28 27 26 23 23 22 23 26 24 26 28 26 26 26 26 25 23 21 20 17 14 11 12 11 9 9 11 12 14 15 16
23 25 28 28 29 29 28 22 22 21 22 22 21 25 29 24 23 22 22 25 28 29 28 29 28 27 26 26 24 23 23 19 15 12 12 11 9 9 11 10 13 14 15
26 26 25 26 26 27 28 27 21 18 19 17 21 26 28 24 22 22 24 26 29 30 31 31 29 29 28 27 26 21 22 22 17 14 14 13 11 11 10 8 10 10 11
25 27 28 27 29 28 27 31 22 21 22 21 23 26 27 27 24 23 22 26 32 32 30 29 28 28 27 28 28 26 25 25 21 18 18 16 13 12 9 8 8 8 8
30 28 27 28 32 30 26 23 23 24 20 20 22 24 24 25 20 18 21 22 27 28 27 26 28 29 28 26 27 28 29 29 26 21 20 17 15 13 10 9 6 6 7
27 25 26 25 35 27 26 26 25 25 18 8 9 14 18 18 17 16 18 18 17 28 29 26 25 27 28 28 29 30 30 29 26 23 21 18 18 15 12 10 8 6 5
25 24 26 26 28 29 26 28 28 26 20 17 16 16 18 20 21 21 20 21 19 16 19 24 25 26 26 28 29 30 31 31 28 26 23 20 19 16 15 12 10 6 5
26 22 27 25 25 25 25 25 24 24 22 22 22 21 19 20 20 20 22 23 22 20 18 15 14 16 19 21 24 29 32 32 30 28 25 21 19 16 17 12 8 6 5

GFSGL_925_spd_042.txt.gz
Wind_Speed
29 25 27 27 24 19 16 12 12 6 2 6 10 10 9 9 10 9 8 10 10 6 5 6 5 5 4 3 5 7 7 6 6 13 20 24 26 30 26 24 23 22 21
33 33 32 28 22 18 13 13 6 5 7 9 11 9 6 11 12 11 10 8 8 8 6 6 7 7 7 10 11 8 8 9 9 14 21 24 28 26 24 24 22 23 22
35 32 27 23 21 17 17 13 5 7 12 10 7 6 13 9 13 14 13 10 10 10 8 7 5 8 10 10 9 11 10 10 12 14 19 27 27 24 26 25 24 23 24
33 32 29 25 22 20 15 11 7 8 11 7 9 10 10 12 13 15 14 14 13 13 11 10 10 9 8 8 12 10 9 11 12 16 21 22 20 24 22 21 20 23 29
34 32 27 21 17 13 10 9 6 4 6 7 8 14 18 14 15 17 19 17 16 15 13 10 10 10 10 11 10 9 10 10 14 19 17 17 17 18 16 20 21 25 30
25 21 22 19 14 11 9 7 5 1 3 9 16 20 17 17 17 19 21 19 17 17 14 12 10 11 13 13 12 10 10 10 14 16 15 15 18 16 21 22 22 20 10
26 22 19 17 17 12 8 7 7 6 15 17 20 17 24 22 20 18 21 19 18 17 14 11 11 11 11 13 12 12 12 13 16 15 18 17 19 23 23 23 19 19 20
26 23 19 18 16 13 9 1 9 14 18 17 21 24 20 21 18 17 20 19 18 15 13 12 13 12 14 13 13 13 15 18 16 11 12 18 19 20 21 23 24 21 20
24 23 21 20 14 3 10 16 16 16 19 22 17 17 19 21 21 17 18 20 19 19 18 14 16 16 14 13 13 13 17 20 12 9 10 13 15 15 15 19 19 17 18
22 17 10 6 10 11 11 13 15 16 14 14 17 20 21 18 18 17 17 19 23 22 18 16 16 16 15 13 13 14 17 16 10 12 13 15 14 17 16 14 18 16 16
9 10 12 7 8 9 10 12 15 17 17 19 21 20 21 22 22 19 20 23 25 24 21 18 16 16 16 15 13 15 14 11 12 14 17 18 18 18 17 17 17 18 18
3 2 2 5 9 12 11 14 15 16 17 19 21 23 21 20 19 20 22 25 25 25 24 21 17 16 17 15 14 15 13 13 16 18 19 20 18 18 18 20 18 17 16
2 5 9 10 10 12 12 15 18 18 18 20 20 20 20 19 19 22 24 26 27 28 27 24 20 17 15 16 15 15 15 16 18 20 19 17 15 15 17 20 18 17 16
10 12 12 13 14 18 18 19 19 20 22 22 20 21 22 22 22 22 23 25 29 32 27 26 23 21 18 17 17 16 15 15 16 17 17 14 14 15 16 17 19 20 18
13 15 16 17 21 21 22 23 24 26 24 25 23 22 24 27 28 23 22 23 25 25 25 26 24 23 23 21 20 18 17 17 15 16 15 13 12 13 14 16 16 19 16
17 20 24 27 27 27 28 32 31 30 29 28 29 27 27 25 26 25 24 25 25 25 24 24 25 27 27 25 23 21 17 19 16 15 15 12 11 10 12 14 14 17 18
19 21 24 25 27 28 27 26 26 33 30 31 32 33 24 29 26 24 23 24 23 26 22 27 25 28 27 26 24 23 20 18 16 15 14 11 9 8 10 12 14 16 19
24 25 25 28 26 25 24 25 25 24 25 27 26 28 29 26 26 23 22 22 24 25 25 28 29 29 28 26 25 21 19 19 17 17 14 10 8 9 10 11 11 15 17
23 24 26 27 26 26 26 26 26 26 24 24 22 28 23 24 21 22 22 23 22 24 27 28 31 30 28 27 24 22 20 19 20 19 15 11 9 9 10 10 9 11 13
22 24 26 25 26 26 26 26 26 25 25 25 21 23 24 20 24 25 23 23 21 24 27 29 29 30 28 25 24 22 21 21 22 22 18 13 11 10 10 9 8 10 10
27 25 24 23 23 22 29 29 27 27 26 27 24 23 19 21 26 22 21 24 22 24 27 29 29 30 28 26 24 23 23 23 21 24 21 16 13 12 10 8 7 7 7
22 23 23 22 23 24 28 30 28 27 26 22 25 21 17 18 19 20 20 23 21 21 25 28 29 30 27 26 25 25 25 26 25 24 24 19 15 13 10 9 7 6 5
21 21 22 23 23 25 27 26 24 31 29 22 20 17 9 13 17 19 15 15 16 19 20 26 28 29 26 24 24 24 25 26 27 25 26 22 19 16 13 11 8 6 4
19 18 23 22 22 23 23 24 23 26 26 26 25 25 25 23 20 20 18 19 18 17 15 19 26 29 25 23 23 24 25 25 24 24 24 24 22 18 16 13 10 7 5
19 17 23 22 21 21 22 22 22 23 23 24 24 24 25 23 24 24 23 23 23 20 19 17 17 20 23 22 22 22 23 23 25 26 24 24 23 20 18 14 13 9 6
19 18 19 23 21 22 22 21 22 22 23 22 23 23 24 22 25 26 26 25 26 25 23 18 17 16 17 14 17 17 19 22 24 24 25 25 25 22 19 15 13 10 7

GFSGL_925_spd_045.txt.gz
Wind_Speed
31 30 27 30 29 28 30 32 31 24 22 15 16 14 12 13 9 9 10 10 9 8 7 6 8 8 8 9 8 9 11 10 8 13 19 21 23 25 26 21 21 20 19
34 30 32 31 31 34 32 28 26 24 23 17 15 14 13 8 9 12 12 11 11 10 9 10 10 10 10 10 11 12 11 10 12 16 21 23 26 28 25 22 22 21 20
32 33 32 32 33 31 28 25 24 17 11 12 10 9 5 8 10 11 13 14 14 14 13 13 13 11 12 14 14 12 12 13 12 15 19 24 28 26 24 23 22 23 24
31 30 28 28 26 23 23 25 16 12 9 10 8 3 9 12 13 14 15 17 18 17 16 15 15 14 14 13 12 14 14 13 13 14 20 24 21 22 19 17 22 22 26
27 25 25 24 21 18 18 12 8 11 9 5 3 11 17 20 17 15 15 18 21 20 17 15 15 15 13 14 14 14 13 13 12 15 19 18 17 17 15 21 21 25 27
25 23 22 19 19 17 16 17 14 12 6 7 13 17 23 16 16 20 19 20 22 22 20 17 19 18 15 15 15 13 12 12 12 15 19 16 17 15 21 19 20 17 10
23 22 23 22 23 20 16 11 7 8 13 15 18 17 14 20 21 19 19 20 23 23 22 19 18 16 13 17 14 14 13 12 13 16 20 18 17 19 19 21 19 20 20
25 26 25 25 22 13 7 11 10 12 13 14 18 19 20 17 19 21 19 21 23 22 20 19 19 16 16 17 18 18 15 14 15 17 15 14 15 17 18 20 22 23 21
25 25 21 12 7 6 5 8 11 13 15 15 17 15 17 19 19 20 20 20 23 24 23 22 21 20 16 17 18 18 16 16 17 12 10 11 12 13 14 18 20 17 18
20 12 6 10 11 6 6 8 12 13 14 15 19 18 19 21 19 19 20 21 24 23 26 24 22 21 18 16 18 17 16 17 14 10 10 11 12 14 15 14 16 16 16
5 5 7 4 4 6 8 11 13 15 17 19 21 21 21 21 23 21 21 23 24 24 27 28 25 23 20 18 18 18 18 15 13 13 13 16 17 16 16 15 16 18 17
5 4 4 5 8 10 11 13 15 17 20 22 24 25 24 22 21 20 20 22 24 28 30 30 28 25 23 19 18 19 17 16 15 16 17 19 19 16 15 16 16 17 16
6 7 9 9 11 12 14 17 20 20 23 25 26 29 32 26 23 21 22 22 26 29 28 30 31 27 24 20 19 18 18 18 19 20 20 20 16 14 15 16 15 15 18
9 11 14 16 18 20 22 21 23 24 27 29 26 25 30 33 29 26 26 25 24 26 29 31 32 30 26 22 20 21 22 20 20 20 20 18 16 15 15 14 16 17 19
11 14 16 18 20 24 25 24 25 28 28 29 28 29 27 30 35 29 24 22 22 24 26 26 23 23 24 24 25 26 24 20 21 20 19 18 16 14 15 12 14 15 16
18 20 22 25 27 26 27 30 25 28 32 32 33 32 34 33 37 37 31 25 24 23 23 20 21 24 24 25 26 27 26 23 22 21 19 18 15 13 13 11 12 13 16
19 20 23 24 23 22 22 23 28 35 29 30 30 32 31 30 33 35 25 26 23 19 23 21 23 23 25 26 26 26 26 24 22 22 19 18 15 12 10 10 11 12 15
19 20 21 23 23 21 23 24 24 26 29 34 32 32 32 32 31 30 25 22 21 18 22 22 25 25 26 27 26 26 25 22 19 18 18 18 15 13 11 10 10 10 13
21 21 22 22 21 22 22 22 25 28 28 29 32 32 29 32 29 22 20 21 19 21 20 22 25 27 28 29 28 27 24 21 20 18 18 19 16 14 13 10 9 8 10
20 20 21 23 22 21 21 23 24 24 30 28 27 30 35 30 28 22 20 20 20 20 20 25 26 28 29 28 27 24 23 21 20 20 21 20 18 16 14 10 9 7 7
19 19 19 18 18 20 20 21 24 22 23 25 30 34 34 30 21 14 19 20 21 20 22 27 23 24 27 27 25 23 22 22 22 22 22 24 21 18 15 12 10 8 6
17 15 18 19 18 19 21 20 21 22 23 24 27 30 34 30 28 24 21 21 22 16 20 18 19 24 26 26 25 24 23 23 23 22 23 22 23 20 16 13 11 9 5
15 15 19 19 19 20 20 22 19 21 22 23 24 24 26 25 25 29 26 27 24 24 20 16 16 22 23 25 23 24 22 23 23 22 23 23 24 22 19 17 13 10 7
13 13 17 18 18 20 20 20 20 21 22 22 22 23 23 24 23 27 28 30 27 25 23 22 20 17 19 25 23 23 21 20 22 20 20 23 24 24 22 19 15 11 9
13 14 14 17 17 20 21 20 23 22 23 23 22 23 23 23 24 27 27 30 30 28 27 26 23 22 18 16 25 22 18 17 19 20 22 23 23 25 23 21 17 14 11
12 13 14 14 17 20 21 20 24 23 23 23 23 23 25 21 25 26 26 30 32 30 28 26 26 25 19 14 14 14 13 14 16 17 19 21 24 25 25 22 18 15 12

GFSGL_925_spd_048.txt.gz
Wind_Speed
34 33 34 33 31 30 28 29 31 34 31 25 19 16 9 9 6 5 9 13 16 15 14 12 12 12 13 13 14 14 14 16 11 10 14 14 18 20 22 22 20 20 20
32 30 27 26 25 24 25 25 26 28 25 19 16 10 8 6 6 8 12 19 20 18 16 14 15 15 16 16 16 15 17 16 15 16 18 16 20 22 23 22 20 18 20
27 25 23 22 21 22 22 22 23 21 17 12 7 5 7 9 8 18 21 20 19 18 18 18 17 16 18 18 17 18 18 16 16 18 19 17 20 22 24 24 21 23 23
21 20 19 20 22 20 20 20 18 16 10 9 9 10 7 13 16 18 20 19 20 20 21 21 20 19 20 18 18 19 18 18 17 18 19 20 19 20 21 18 22 21 23
16 18 19 17 15 16 15 17 12 11 10 9 9 10 13 14 18 23 18 19 22 23 23 24 23 21 21 19 19 19 19 19 18 17 18 16 17 16 14 16 19 25 23
18 19 18 18 19 20 18 19 20 17 6 7 15 17 18 19 21 13 18 21 24 27 27 26 25 23 21 21 20 19 20 20 19 16 17 15 18 19 18 18 18 16 10
24 22 22 23 25 26 22 14 5 1 11 15 14 16 18 17 19 20 17 21 24 26 27 28 25 23 21 19 18 19 21 19 19 17 18 20 18 17 16 18 15 17 19
26 27 29 29 21 11 7 5 5 7 9 12 14 16 20 20 16 17 19 22 24 25 26 26 25 24 23 20 20 20 22 21 20 18 19 20 15 13 15 18 19 23 19
28 28 19 12 9 8 10 9 7 9 12 14 16 17 17 21 20 21 21 21 23 25 24 25 25 26 22 21 20 22 23 24 20 17 17 14 12 13 14 16 20 14 15
19 13 8 9 11 9 5 5 8 11 14 16 18 20 21 25 24 23 21 23 25 27 26 25 25 27 26 24 21 23 23 24 19 16 14 13 13 14 14 14 16 14 13
9 8 8 6 5 5 7 10 12 14 16 19 22 24 26 26 27 25 24 23 25 26 26 26 26 25 26 29 23 25 25 19 16 15 14 15 15 15 15 14 14 16 14
11 10 7 7 8 9 11 13 15 18 20 23 25 29 30 30 29 29 25 23 24 24 27 28 28 26 26 28 26 27 24 19 17 16 17 19 19 17 15 14 15 16 16
11 11 10 10 11 12 14 17 19 21 24 27 26 26 32 34 32 29 26 27 25 26 28 28 27 26 25 26 28 28 24 22 20 19 22 23 20 16 14 14 15 15 16
13 13 13 14 16 18 19 21 22 24 25 21 22 23 26 29 28 32 32 30 27 26 25 27 26 26 26 24 26 29 26 25 24 23 24 22 18 16 15 12 14 14 16
13 14 17 18 20 22 21 20 20 20 19 24 25 27 27 31 32 30 34 31 31 30 24 21 21 22 21 23 26 28 28 27 25 25 23 22 19 17 15 12 12 12 11
15 16 17 19 20 20 19 20 18 17 19 21 23 25 32 30 35 38 37 36 31 33 23 19 19 20 20 21 23 26 30 30 29 26 24 21 20 19 16 12 10 10 12
15 15 17 19 18 17 19 19 25 27 20 23 26 29 29 34 36 37 36 32 30 28 20 18 18 18 21 22 23 24 25 28 25 24 23 21 20 18 15 13 10 10 11
14 14 16 16 17 18 20 18 19 21 27 33 35 33 31 35 35 36 33 33 22 15 16 18 17 21 21 23 24 25 26 26 21 21 21 20 20 18 16 14 11 9 9
14 14 16 16 16 16 19 20 18 20 21 22 30 35 37 42 34 29 29 23 19 13 15 19 21 23 24 25 27 26 25 26 23 21 20 20 19 19 18 14 12 9 9
12 12 15 16 17 17 18 18 18 18 20 21 22 26 33 35 31 33 32 32 27 21 21 23 23 22 25 27 25 25 24 24 23 21 21 20 21 21 19 15 13 10 8
13 11 15 16 17 17 18 16 18 17 19 20 21 24 27 26 23 25 26 28 30 28 28 26 24 24 23 19 23 24 23 22 23 24 24 24 23 23 21 17 14 11 9
11 12 14 14 15 16 17 17 16 18 18 20 23 24 27 24 23 24 27 26 29 29 30 27 26 19 17 20 23 23 22 22 24 24 25 25 25 25 22 18 16 13 10
11 12 13 13 13 15 17 18 17 20 19 22 25 24 25 24 24 24 27 28 31 33 31 29 28 25 22 20 16 24 23 22 24 24 25 26 25 23 25 22 19 15 12
11 10 11 12 13 15 17 18 17 21 21 23 24 24 23 26 24 27 27 28 29 33 31 29 28 26 25 23 21 17 25 23 21 21 22 25 26 24 24 24 21 17 13
9 11 11 11 13 15 18 19 19 21 22 23 25 24 24 29 23 27 30 29 27 33 32 31 28 28 27 25 20 18 14 23 20 20 20 23 24 25 24 26 23 19 15
9 10 12 11 12 15 19 21 21 22 23 23 24 25 25 28 26 28 30 30 32 34 32 31 30 28 26 25 24 19 10 13 18 16 17 20 25 25 26 27 25 22 17

GFSGL_925_spd_051.txt.gz
Wind_Speed
18 17 19 24 25 25 24 24 23 25 30 26 27 23 19 11 6 6 1 9 14 14 15 15 15 12 12 13 13 14 15 15 16 20 14 14 13 15 16 17 19 20 20
21 23 21 22 21 20 20 22 24 25 28 30 25 21 15 14 13 8 19 14 15 16 17 16 17 15 16 16 16 17 16 15 17 20 18 16 15 15 16 17 18 18 18
16 16 15 15 12 13 17 17 19 24 26 25 22 16 11 10 13 15 12 16 18 19 20 19 19 17 18 17 17 17 17 16 16 17 20 16 15 14 16 17 17 18 17
6 6 6 8 8 10 11 14 15 17 22 21 16 15 12 14 13 11 15 18 20 21 23 23 21 21 21 20 17 18 17 17 17 17 19 18 16 15 15 16 16 16 18
7 7 8 10 11 12 15 17 18 20 15 12 10 10 15 14 15 19 18 20 18 19 23 25 24 25 26 24 18 17 18 18 17 18 19 17 17 15 16 16 17 17 19
12 13 16 17 17 18 19 18 17 18 14 9 9 14 14 19 21 19 22 18 19 21 21 21 24 27 27 27 25 23 22 20 19 19 19 18 18 16 15 14 15 14 15
18 17 20 23 26 27 25 19 11 6 4 10 12 16 19 19 19 19 22 22 19 19 21 21 22 23 25 24 25 26 22 25 25 21 20 20 18 15 14 14 14 15 18
23 25 27 29 24 17 11 7 2 2 6 10 11 13 15 19 19 17 19 22 21 22 23 24 23 22 21 23 21 20 21 21 21 21 20 19 17 16 14 14 15 17 20
26 24 20 16 13 10 8 6 5 4 6 8 11 14 15 18 20 21 23 23 22 24 24 25 25 23 23 25 23 20 21 21 20 24 24 22 21 17 14 14 15 16 18
17 14 12 10 9 8 4 2 4 7 9 11 14 16 18 22 23 24 24 25 23 27 27 25 28 28 27 24 26 23 22 24 18 15 16 18 17 16 16 15 14 15 16
14 14 13 11 9 5 4 5 7 9 12 15 17 19 21 23 25 26 26 26 25 28 25 23 21 25 25 27 26 29 29 24 19 16 16 15 15 15 14 13 13 14 16
14 13 12 10 9 7 7 8 9 10 12 14 18 18 17 19 22 26 27 28 28 25 28 27 26 28 25 25 24 28 30 31 18 15 15 16 16 15 14 14 13 14 15
14 13 11 9 9 9 9 10 11 12 13 14 16 20 22 21 22 23 25 28 29 31 28 30 34 34 27 23 25 26 24 25 19 18 19 18 16 14 12 12 12 13 15
12 10 9 10 10 10 10 10 11 12 14 15 18 21 25 25 24 25 28 30 30 32 29 27 29 30 27 20 19 18 23 23 24 22 20 17 13 12 12 12 11 11 13
10 10 9 9 10 9 9 10 10 10 11 14 16 20 25 27 28 33 35 35 32 32 33 31 24 20 17 15 14 16 17 20 22 22 19 18 16 13 13 12 11 11 12
10 8 9 8 8 9 10 10 9 9 10 9 13 17 19 23 32 35 35 35 34 30 26 23 21 21 17 14 13 14 16 19 21 22 21 19 18 15 14 12 11 11 12
9 7 7 9 9 10 11 11 13 12 11 10 14 18 19 24 28 30 34 34 26 22 19 19 15 16 16 14 14 14 17 18 21 22 21 19 18 15 15 13 12 11 11
8 11 9 8 8 9 10 11 12 13 15 16 16 18 21 26 27 26 29 27 31 30 28 17 14 11 14 16 16 15 17 18 18 19 19 18 17 16 15 14 13 11 10
8 8 7 6 7 8 9 10 11 13 15 17 19 19 23 27 24 22 24 23 23 24 25 26 27 23 19 20 20 20 21 18 17 16 17 18 16 16 17 14 12 11 9
6 7 7 6 7 8 9 10 11 12 14 16 18 21 25 27 25 24 23 23 22 23 24 24 25 24 25 25 20 20 15 14 15 16 17 17 15 17 17 15 13 11 10
5 5 7 6 7 8 8 9 10 11 13 14 16 17 21 20 20 21 21 22 22 23 24 24 25 24 24 26 22 15 12 13 14 15 16 16 16 18 17 15 13 11 10
5 5 5 6 6 8 9 9 10 11 13 14 16 17 19 16 18 20 20 22 23 21 22 23 23 24 22 22 22 20 16 14 13 14 15 17 17 18 17 16 14 12 11
5 6 5 5 6 7 8 9 9 11 13 14 16 17 17 17 18 20 20 22 23 23 22 23 22 25 23 24 20 18 17 17 16 16 16 18 18 18 18 17 16 14 13
6 7 6 5 6 7 8 10 10 11 13 13 14 15 17 17 19 20 20 22 23 23 23 25 23 24 25 26 24 20 18 21 18 17 18 20 19 19 19 18 18 16 13
6 6 6 5 6 7 9 10 11 12 13 13 14 15 17 17 19 20 21 22 23 25 29 27 27 25 26 27 25 22 23 20 16 13 20 19 23 21 21 19 19 17 15
4 5 7 7 6 7 9 11 12 12 13 14 15 15 16 18 19 20 22 23 25 31 29 27 28 27 27 26 25 25 23 23 17 9 19 17 19 21 21 21 22 19 17

GFSGL_925_spd_054.txt.gz
Wind_Speed
16 16 17 16 16 16 21 21 20 22 24 23 26 25 24 22 16 11 12 12 18 16 14 14 15 15 14 14 15 16 18 18 19 22 19 18 16 19 21 21 22 23 24
12 12 11 9 9 12 16 16 17 19 19 18 23 26 24 22 14 14 13 15 15 15 16 17 17 16 16 18 19 19 20 20 21 23 23 21 21 19 21 21 22 21 23
7 7 7 7 7 7 8 10 11 14 16 20 21 21 21 16 11 13 14 15 16 18 18 18 18 18 20 21 21 22 21 21 22 23 24 22 22 19 21 21 21 21 21
10 10 9 8 7 7 8 9 11 12 14 15 18 19 16 13 13 14 13 17 19 19 19 20 21 23 23 23 24 25 23 23 24 23 24 23 22 20 18 20 21 18 21
13 13 13 12 12 12 12 11 11 11 11 13 14 10 9 13 12 13 15 22 19 20 21 21 23 25 27 28 28 27 24 24 23 21 23 22 21 20 20 17 19 20 20
17 16 16 16 15 15 16 16 17 14 14 10 9 8 11 11 14 18 21 18 20 20 23 25 26 25 27 31 36 36 33 28 25 23 23 19 23 22 18 17 18 18 16
19 18 18 18 20 20 19 17 14 12 6 4 7 9 14 18 19 17 19 20 22 23 25 26 27 28 28 28 30 31 33 34 33 29 26 23 24 21 19 18 19 18 19
21 21 21 20 19 16 15 13 9 6 5 7 8 8 9 11 14 17 17 19 23 26 27 28 29 30 30 29 27 29 27 26 26 26 28 28 23 20 17 17 18 19 20
21 20 18 16 14 11 8 5 3 2 2 3 5 7 10 12 14 18 19 20 24 27 28 30 31 32 31 29 28 31 29 30 25 26 28 23 24 23 21 17 17 17 18
17 15 13 10 10 7 6 5 3 1 2 4 6 9 11 14 15 17 20 20 24 27 29 30 31 32 33 33 29 29 28 28 24 23 20 26 30 22 22 19 18 17 17
15 14 12 10 9 7 6 5 3 3 5 7 8 11 13 13 15 18 20 20 22 26 28 30 30 30 30 32 33 29 30 28 23 22 21 22 20 18 18 18 18 19 18
14 13 12 10 8 6 5 4 4 6 7 8 9 10 11 13 15 18 20 21 23 27 30 30 30 30 32 33 33 31 33 31 24 20 19 21 19 17 17 17 18 18 18
14 12 10 8 7 6 5 5 5 5 6 8 9 10 12 14 16 18 22 28 30 30 30 33 37 37 33 30 31 33 30 23 20 20 21 22 21 18 16 15 15 16 17
12 10 8 7 6 6 4 5 5 6 7 8 9 11 13 15 16 20 24 27 28 30 30 30 33 36 37 31 29 27 28 24 21 20 21 22 19 16 17 15 16 15 15
10 9 7 6 5 4 4 4 4 5 5 7 8 11 14 15 17 23 24 27 30 30 32 29 27 26 25 23 20 21 21 18 19 22 20 18 17 17 16 15 15 15 15
9 7 6 5 4 3 3 1 4 5 4 3 5 9 11 14 21 23 24 27 28 28 25 22 23 22 23 20 17 14 13 13 15 17 19 19 18 19 17 15 15 16 15
9 7 5 4 3 3 2 3 4 3 6 3 7 9 11 17 23 23 25 28 22 23 20 22 23 24 28 20 13 11 10 11 14 16 17 18 19 18 18 16 15 15 15
9 9 5 3 2 2 2 3 4 6 7 8 8 10 12 17 21 20 22 21 22 21 20 21 23 24 24 24 25 18 11 12 13 17 18 19 20 20 18 17 16 16 15
6 5 4 3 2 2 2 3 4 6 7 9 11 10 13 18 17 16 17 17 19 20 21 21 21 22 23 23 23 24 23 20 20 18 16 17 19 19 18 16 16 16 13
6 5 4 2 1 2 3 4 5 6 8 9 11 13 16 19 17 17 17 17 18 19 20 21 21 22 22 22 23 22 24 23 12 14 15 17 19 19 16 15 16 15 14
4 2 3 1 1 2 3 4 5 7 8 10 11 12 14 15 16 17 18 17 18 19 20 20 21 22 21 21 22 22 22 23 18 10 12 14 16 17 15 15 16 15 13
4 3 1 1 1 2 3 5 6 7 9 11 12 13 14 14 16 17 18 18 19 19 20 20 21 21 20 21 21 22 21 21 19 18 12 12 14 15 15 16 15 14 14
3 2 1 0 1 2 3 5 6 8 9 11 13 14 14 15 16 18 19 20 20 21 20 20 21 21 20 20 20 19 20 19 19 20 20 15 14 15 16 17 16 15 15
2 1 1 1 2 3 4 6 7 8 9 11 12 14 15 16 17 18 19 20 21 21 21 21 22 22 22 23 21 21 19 19 22 22 19 19 16 17 17 17 18 17 15
1 1 2 3 3 4 6 6 8 9 10 11 13 14 15 16 18 19 19 20 21 22 23 24 21 22 24 26 26 24 23 25 25 21 20 17 18 18 19 19 18 17 16
1 2 3 4 4 5 6 7 8 10 11 12 13 14 15 17 18 19 19 19 21 24 24 22 23 24 25 25 23 24 27 25 24 24 19 16 16 17 19 20 20 19 19

GFSGL_925_spd_057.txt.gz
Wind_Speed
25 23 21 17 16 17 18 19 19 17 18 21 22 25 24 23 20 17 14 10 8 9 11 15 18 17 19 18 18 18 19 20 17 22 22 22 21 19 21 20 22 22 26
18 16 16 16 15 14 14 16 19 16 16 17 18 19 23 22 19 17 14 10 9 14 16 18 19 19 20 21 20 22 22 23 22 22 25 23 24 22 22 20 22 24 25
14 17 15 13 11 10 12 11 11 11 10 12 17 17 18 17 13 10 9 8 12 15 17 18 20 20 22 22 23 24 25 26 24 23 24 23 23 23 23 22 21 22 24
16 14 13 11 11 10 9 9 9 9 13 13 10 15 17 16 10 11 10 11 12 16 20 21 21 22 24 24 26 27 27 27 27 25 25 24 27 23 23 21 22 22 23
17 17 17 15 13 14 14 13 12 13 10 13 14 13 12 12 10 11 11 10 15 18 18 22 23 24 25 28 29 30 30 28 27 25 25 24 23 22 22 21 23 22 22
19 18 17 17 16 16 16 16 16 16 14 14 14 12 9 6 8 9 12 14 17 18 20 22 24 27 29 32 35 38 39 33 34 32 29 24 25 23 22 20 20 20 16
20 19 18 18 18 17 16 15 14 13 12 9 6 4 2 7 9 10 11 13 16 20 23 25 27 28 29 30 31 33 36 36 37 37 32 32 28 25 23 19 21 19 21
20 20 19 18 18 16 14 12 10 8 6 4 3 4 5 5 4 7 12 14 18 21 24 26 28 30 30 32 31 33 34 35 32 31 28 33 29 27 21 20 19 18 19
20 19 18 16 15 13 10 7 5 5 5 3 1 1 4 5 8 11 12 15 18 22 24 26 29 31 32 33 35 34 35 35 34 35 34 29 26 25 21 16 16 16 17
18 17 15 13 11 9 7 7 5 4 3 2 2 3 4 6 7 12 15 15 18 21 23 25 28 30 34 36 34 31 32 32 31 31 23 23 29 27 27 24 20 19 18
17 16 14 12 10 9 8 7 4 3 2 2 3 5 6 6 8 15 15 14 17 22 25 28 29 31 33 34 34 33 32 35 34 32 28 23 20 20 23 22 20 21 20
16 14 13 11 9 8 7 5 3 2 1 1 3 5 5 7 9 9 11 16 21 22 26 29 32 36 41 42 39 35 35 34 31 30 26 22 20 19 20 21 22 22 23
16 14 13 10 8 6 5 3 2 2 3 3 4 5 6 8 9 12 18 20 21 24 27 31 38 41 39 37 36 34 31 30 27 24 22 19 19 20 20 19 20 21 19
16 13 11 9 7 6 5 3 3 3 3 3 3 5 7 9 10 13 18 20 21 24 27 31 37 36 34 34 31 28 24 24 25 24 21 17 14 17 21 19 18 16 15
14 12 10 8 6 6 6 5 4 4 2 1 2 5 7 9 10 16 18 20 23 26 29 26 24 26 27 26 28 27 21 18 20 21 18 13 15 17 18 17 15 14 16
14 11 9 8 6 5 4 5 2 1 4 2 3 4 6 7 13 17 18 20 23 21 22 20 21 22 24 26 26 28 28 15 13 9 10 12 14 14 16 17 17 17 16
11 11 9 8 6 5 3 2 2 2 3 4 4 7 6 9 15 18 17 20 18 18 18 20 20 22 24 25 25 26 26 26 10 9 11 14 17 17 17 17 18 18 16
10 10 7 6 5 4 2 1 1 2 4 4 5 7 8 11 17 16 16 19 16 16 17 19 21 21 23 24 25 27 27 27 25 15 14 17 18 18 19 19 19 18 16
9 7 5 5 3 3 2 2 2 4 5 7 8 8 8 13 17 14 13 15 17 18 19 20 21 22 22 24 24 25 26 25 27 29 19 20 19 18 17 18 18 17 15
7 9 5 4 2 2 2 2 3 4 6 7 8 10 11 15 15 14 14 15 17 18 19 21 22 22 23 24 24 24 24 26 25 26 31 15 16 15 17 17 17 15 16
5 5 5 1 1 2 2 3 4 5 6 7 9 9 9 12 13 15 16 16 18 19 20 20 22 23 23 23 24 24 23 24 25 25 25 27 14 13 17 15 15 14 13
5 4 3 2 2 3 3 4 5 6 7 8 9 10 10 11 13 15 16 17 18 19 20 22 22 23 24 23 24 25 25 23 24 24 24 26 24 21 14 13 14 14 15
4 3 2 2 2 4 4 5 6 7 8 9 10 11 12 13 14 15 17 18 18 19 20 21 23 24 24 24 23 24 25 24 24 24 25 26 25 24 16 13 15 15 16
3 1 1 3 4 5 5 6 7 7 8 9 10 11 12 13 14 16 17 18 19 20 21 22 23 25 24 25 26 25 26 26 25 26 24 24 25 25 24 15 15 16 16
1 1 3 5 6 7 7 8 8 9 9 10 11 12 13 14 15 16 17 18 20 21 21 25 25 24 26 27 29 28 26 26 27 28 24 22 25 25 26 20 17 17 16
2 3 5 6 8 8 9 9 10 10 10 11 11 12 13 15 15 16 17 18 19 22 24 24 25 26 28 29 27 26 30 32 32 28 25 24 25 25 23 20 20 19 18

GFSGL_925_spd_060.txt.gz
Wind_Speed
27 25 27 28 29 24 12 11 13 16 17 15 17 18 18 20 21 21 16 15 14 12 10 9 12 16 19 21 19 19 20 21 16 21 22 23 23 23 21 20 20 21 20
25 25 26 25 19 9 12 12 15 16 14 14 15 17 20 22 21 17 16 14 11 11 10 12 15 16 20 21 23 24 24 24 24 23 27 28 29 28 26 22 21 19 18
17 19 21 18 17 16 15 15 15 14 10 10 13 17 19 18 17 15 13 13 10 9 10 13 17 18 20 21 23 25 26 26 27 28 26 28 28 25 24 23 17 19 21
25 24 23 21 19 16 13 11 10 9 11 12 13 15 15 16 15 14 13 11 8 8 11 16 23 25 23 24 26 26 27 29 28 27 25 27 29 27 24 23 18 16 17
22 21 21 19 16 16 15 14 14 15 15 14 15 14 14 14 12 13 9 8 8 11 16 17 20 20 24 26 28 29 30 33 30 29 28 26 25 22 22 21 17 17 19
21 23 22 20 19 19 17 18 17 18 17 16 15 17 17 14 9 6 6 7 10 13 16 17 20 22 24 27 27 28 29 33 32 29 29 26 27 27 29 25 18 14 9
22 21 20 22 22 22 21 21 21 18 17 16 16 11 7 4 3 2 5 7 9 13 15 19 21 20 24 27 29 28 29 29 30 34 30 30 28 31 32 21 16 14 17
22 21 22 22 22 21 20 19 17 16 13 11 8 6 5 5 6 5 3 5 8 11 14 18 21 22 23 27 34 36 34 31 29 30 32 36 36 35 31 23 19 18 17
22 22 22 22 21 19 18 17 14 12 12 11 9 8 12 11 5 0 3 6 10 13 14 15 18 24 26 28 33 33 33 32 30 31 31 31 34 36 31 20 17 16 12
22 23 22 21 19 17 16 15 13 13 12 10 10 7 7 7 4 8 11 11 10 14 21 23 23 23 26 29 31 30 32 34 35 36 37 35 32 30 27 26 23 18 12
23 21 20 18 18 17 16 15 14 11 13 10 7 6 5 3 5 9 10 11 13 19 19 21 23 25 30 36 37 35 35 39 38 33 30 29 26 25 31 28 26 26 20
22 21 19 18 17 16 16 13 11 12 11 10 8 7 4 4 4 4 8 12 14 16 18 22 26 31 34 34 34 35 36 36 32 28 26 26 24 22 25 25 24 25 25
22 20 19 17 16 14 14 11 11 11 9 8 6 5 5 4 4 8 12 15 15 17 20 23 27 27 30 29 28 29 28 30 27 24 23 25 26 23 24 23 18 21 22
21 20 19 17 15 13 12 9 10 9 7 6 5 3 3 3 6 10 14 17 16 18 23 26 25 25 23 26 27 29 28 29 35 24 21 24 27 20 20 21 23 21 18
20 18 17 18 15 14 13 10 9 8 8 7 7 4 2 1 5 11 15 17 18 20 22 23 22 20 22 23 25 26 28 30 30 35 20 24 20 14 12 16 19 18 16
19 18 17 15 13 15 14 11 8 5 4 1 2 1 1 3 7 11 15 16 18 17 19 19 18 20 20 22 23 26 26 29 30 32 27 17 8 7 10 16 19 18 15
17 17 15 14 12 10 9 12 12 6 3 1 0 3 4 6 8 13 14 15 16 16 13 17 18 19 20 20 21 24 25 27 31 29 28 28 14 13 12 14 18 19 17
18 15 12 11 10 9 7 6 3 4 4 5 5 1 4 5 10 14 12 14 13 14 14 16 18 20 21 21 22 24 26 26 26 30 29 27 26 18 16 16 17 18 17
15 13 13 11 10 8 6 4 3 2 2 2 3 3 6 3 12 12 10 10 12 15 16 16 18 20 20 22 23 24 25 26 26 27 27 28 29 25 19 18 19 23 20
15 14 11 9 8 5 3 2 1 1 2 3 3 4 6 12 17 12 11 12 13 13 15 17 19 19 21 21 23 23 25 26 26 26 28 27 27 33 17 12 15 13 18
12 10 10 7 6 4 2 1 1 2 3 4 5 8 7 10 13 12 11 12 13 14 18 18 18 20 21 22 22 23 25 25 26 26 26 27 28 29 28 26 19 18 20
10 8 5 5 3 2 1 1 2 3 5 6 6 7 9 11 10 10 12 13 15 17 16 19 21 20 21 21 23 25 24 25 26 25 27 27 27 28 26 25 28 15 15
8 7 4 3 2 0 2 3 3 5 5 6 8 10 10 10 10 12 13 15 16 16 19 21 21 20 23 25 23 23 25 25 27 29 29 27 27 28 28 26 26 14 16
6 5 2 1 0 2 4 4 5 7 7 7 9 10 11 11 12 13 14 15 17 18 20 18 21 24 22 24 26 27 28 28 28 29 23 30 31 28 25 26 26 27 17
4 3 2 2 3 4 4 6 6 7 8 8 10 11 11 13 14 13 16 16 18 19 17 24 21 22 26 27 28 27 28 28 30 30 30 29 29 29 28 26 26 25 15
2 1 2 4 5 6 6 6 7 8 9 9 10 11 14 14 14 16 16 18 16 20 24 20 24 24 27 28 28 30 33 35 35 33 30 28 28 28 26 24 24 23 17

GFSGL_925_spd_063.txt.gz
Wind_Speed
43 43 41 41 41 26 22 17 22 24 27 29 24 25 22 19 17 18 21 21 18 15 13 11 10 9 12 15 17 19 21 20 15 20 25 25 26 26 28 29 28 29 31
38 38 32 26 27 17 2 27 28 26 23 22 22 19 16 17 19 21 22 19 16 12 9 8 8 8 11 16 20 22 24 26 28 25 27 33 35 35 36 37 37 34 31
25 25 25 24 27 21 29 30 29 23 20 18 16 15 17 19 19 17 16 16 12 11 8 7 7 10 16 20 20 22 25 27 29 32 30 31 32 31 29 29 27 27 25
26 26 29 29 28 26 26 24 21 18 16 14 13 14 16 18 18 16 15 14 12 9 7 7 10 16 20 20 22 24 27 30 30 32 31 31 28 29 28 27 28 31 30
26 28 29 28 27 24 21 19 17 15 14 14 16 16 16 17 17 16 16 13 9 7 7 10 11 14 16 17 20 19 19 23 25 25 24 24 25 26 27 30 30 31 23
26 27 25 24 22 21 20 19 18 18 17 17 18 19 20 18 17 16 11 8 6 5 7 8 12 14 14 14 16 18 20 21 23 21 21 19 25 26 28 30 27 18 10
28 26 26 26 24 22 22 22 21 22 21 20 20 20 19 16 11 10 9 6 3 3 5 6 9 12 17 21 25 28 30 31 28 23 26 23 25 25 27 27 25 22 20
23 23 24 26 27 26 24 25 24 23 22 22 20 17 14 12 11 10 7 5 3 2 6 9 11 16 19 22 27 30 31 31 28 25 26 31 31 30 29 30 31 29 27
23 25 26 29 30 31 30 27 24 21 20 18 17 17 16 17 13 10 7 4 3 5 6 9 10 12 15 20 25 30 33 35 33 28 28 31 34 36 34 32 25 20 14
26 26 30 30 29 27 27 25 21 19 19 15 19 22 19 16 8 5 2 1 2 6 9 11 12 16 18 21 23 28 28 32 35 38 36 33 29 29 27 27 29 20 14
29 31 31 29 28 25 23 23 22 22 27 25 24 20 16 11 6 1 2 3 6 9 12 15 17 18 19 18 19 22 26 33 31 29 31 31 28 26 26 28 27 27 19
32 30 29 28 26 27 25 24 26 25 22 19 20 20 16 12 6 3 2 6 7 9 12 15 18 18 17 17 19 22 26 24 25 27 28 29 28 26 27 26 26 28 33
32 30 29 28 29 27 26 26 24 21 21 19 19 20 18 12 7 1 4 7 8 9 11 15 17 16 16 19 22 21 23 23 25 24 25 32 28 28 32 27 26 26 24
27 28 26 28 28 25 22 23 23 21 20 19 19 18 15 9 3 3 7 9 10 12 15 16 16 16 17 19 22 22 22 23 24 23 28 29 30 29 25 26 21 18 18
28 27 27 27 28 25 23 22 20 16 16 19 16 13 9 5 1 4 8 10 11 13 13 15 17 18 20 18 19 19 22 23 24 27 27 30 29 32 22 8 6 13 14
24 25 25 23 25 24 23 19 13 11 9 8 7 5 4 3 2 6 8 8 10 10 13 13 15 16 18 19 18 20 20 23 24 26 27 26 28 28 27 13 11 15 15
27 23 20 18 20 20 19 19 18 11 9 7 5 3 3 1 1 7 8 6 8 7 12 13 13 16 19 15 17 19 21 22 26 23 26 27 26 26 29 24 15 15 16
24 19 18 20 20 18 15 12 12 13 10 7 6 4 5 3 3 8 7 6 6 9 10 12 14 17 18 16 18 20 22 24 23 24 25 25 26 24 26 28 21 15 18
24 22 20 18 16 14 11 10 9 7 5 6 6 8 10 4 4 12 6 6 7 8 8 11 15 17 17 19 20 23 23 23 25 24 25 24 25 24 26 26 30 23 19
21 15 12 13 11 9 8 6 4 4 3 3 3 7 10 5 10 12 4 6 7 7 11 14 15 15 19 21 22 20 21 25 21 23 24 22 23 23 23 25 26 23 18
16 13 12 10 8 6 5 4 3 2 1 1 1 3 3 6 8 5 4 6 8 12 13 14 16 19 20 21 18 22 26 24 21 25 22 24 24 23 23 24 24 24 25
12 10 9 7 4 3 2 2 1 2 2 2 1 3 4 6 5 4 7 9 11 12 13 16 18 19 18 19 23 22 23 22 23 22 27 26 24 23 23 25 25 24 26
10 8 5 3 2 1 2 2 2 2 4 5 7 8 8 8 6 7 8 9 11 13 15 17 18 18 23 19 19 20 24 25 25 26 28 26 23 26 26 24 23 22 23
7 6 5 3 0 2 4 4 5 7 6 5 6 6 7 6 8 9 9 11 13 15 17 17 18 23 18 22 23 23 23 23 25 28 27 31 29 26 25 24 22 23 24
6 5 4 4 4 5 5 5 5 5 7 7 6 7 7 9 10 10 12 14 16 17 16 20 23 20 22 22 23 22 24 28 30 29 30 29 30 30 28 26 24 24 22
6 4 5 6 6 7 8 9 8 8 9 9 9 10 11 11 11 14 16 17 16 17 23 26 23 20 21 23 23 26 29 28 26 26 27 28 28 27 25 25 25 22 22

GFSGL_925_spd_066.txt.gz
Wind_Speed
44 43 36 36 34 32 32 21 21 15 23 30 32 31 28 29 25 24 23 23 24 21 20 18 15 12 11 10 11 11 15 19 15 20 23 27 28 30 29 31 33 35 38
25 25 29 28 26 23 21 23 28 28 31 29 28 27 30 29 25 25 23 24 23 22 18 16 12 9 7 6 8 12 17 21 23 20 21 27 32 33 35 36 36 37 40
31 28 29 28 25 23 26 30 32 31 28 29 29 31 28 25 24 23 23 23 20 18 15 13 9 6 5 9 13 18 21 23 23 29 26 27 29 30 33 33 35 33 33
37 30 26 30 37 42 32 33 30 29 29 27 25 25 24 22 22 22 21 20 18 16 13 8 5 4 8 10 12 12 13 15 17 19 23 23 23 25 24 27 31 32 35
30 24 29 26 34 32 33 32 31 29 27 26 24 21 20 21 22 23 22 21 18 13 10 6 2 1 2 3 3 5 10 14 18 20 21 22 21 22 22 26 28 31 35
23 24 26 28 31 33 34 32 30 28 26 24 21 21 22 23 23 21 20 18 13 11 9 7 4 4 3 5 9 13 16 16 18 18 18 20 23 22 24 26 25 23 18
25 27 30 31 31 32 32 31 29 26 25 25 25 26 26 23 20 20 17 16 14 10 8 6 5 5 8 11 14 16 16 17 17 18 22 21 25 24 27 27 24 26 28
27 27 28 29 28 30 30 30 30 29 30 30 29 26 25 24 21 19 18 15 13 10 6 5 5 5 7 9 13 15 16 17 16 18 20 25 28 30 30 29 29 31 33
26 27 28 31 31 30 30 33 33 32 30 30 28 26 23 22 20 19 18 15 11 7 3 1 2 4 7 9 11 15 18 17 16 18 21 25 28 28 27 25 22 21 22
26 28 31 31 30 29 32 32 30 31 30 29 26 24 23 23 19 18 14 11 8 4 3 1 2 4 7 7 9 14 13 17 25 21 20 21 22 25 25 24 24 22 21
25 27 29 30 31 32 31 29 29 27 27 28 27 25 24 22 17 12 9 7 5 5 3 0 3 5 7 7 9 12 15 19 21 24 23 21 22 24 23 24 24 27 23
28 27 28 29 26 28 29 26 27 29 29 30 30 24 19 16 12 10 7 4 3 2 1 2 5 5 5 6 10 13 16 19 23 24 20 20 25 26 30 28 28 29 29
29 27 29 27 25 26 28 27 28 31 33 29 27 25 20 16 12 7 4 1 1 1 1 3 4 4 4 9 12 13 16 19 20 19 19 21 23 29 31 31 30 26 24
28 27 25 24 24 23 24 27 31 29 25 23 21 21 20 14 9 5 2 1 1 2 3 4 5 4 6 9 13 12 16 16 17 17 20 22 27 27 27 30 31 24 19
27 26 25 25 25 23 20 17 19 16 18 22 21 22 21 14 7 4 1 1 3 4 3 4 5 6 9 10 9 11 14 15 15 19 19 23 24 25 26 27 32 15 7
26 25 26 27 25 24 25 22 16 12 10 10 12 11 9 8 6 2 2 2 3 2 2 4 5 8 11 10 11 12 12 15 16 19 19 20 21 24 25 27 26 26 16
31 28 27 26 24 24 21 20 19 13 11 8 6 6 5 6 4 3 4 2 2 3 4 4 6 9 11 9 10 11 13 14 18 18 19 19 20 22 23 23 23 22 24
30 28 26 23 21 18 16 14 12 10 8 6 5 2 3 4 1 3 5 3 3 4 3 4 7 10 9 10 11 14 17 17 19 23 19 24 21 19 22 21 21 22 22
32 30 29 25 21 17 14 11 10 10 7 5 7 8 9 5 3 6 5 2 1 0 2 5 9 11 12 15 17 18 16 19 22 19 18 22 19 20 21 20 21 23 24
27 21 18 18 17 15 13 10 7 6 5 5 8 11 13 7 4 6 3 2 3 3 6 8 10 12 14 17 17 16 20 22 20 18 20 19 21 25 20 21 20 23 23
20 16 16 14 12 10 10 9 7 5 3 2 3 4 5 3 4 4 4 5 6 8 9 10 12 14 17 16 16 19 17 18 18 19 22 20 24 23 21 20 22 22 22
18 15 14 13 10 8 6 5 3 2 1 3 3 2 3 5 5 4 5 5 7 8 9 12 14 15 15 17 18 16 19 19 23 21 22 23 23 22 21 22 24 22 22
15 14 12 11 9 7 6 4 3 2 1 2 3 4 3 2 2 3 4 5 6 9 12 14 15 17 18 19 16 18 19 21 20 22 24 26 25 23 24 23 22 22 21
15 14 13 10 8 7 6 4 5 5 3 3 3 3 2 3 4 3 5 7 9 12 13 14 17 20 22 20 18 18 18 18 20 24 25 26 27 26 24 23 23 23 23
14 13 12 11 10 10 9 8 8 8 7 7 6 5 6 8 8 9 10 13 14 14 15 17 20 22 19 17 19 18 17 20 24 24 24 24 26 28 28 27 26 24 22
16 15 13 12 12 11 11 11 10 10 10 9 8 8 8 9 9 11 14 15 14 16 19 22 23 20 19 19 18 19 23 22 20 22 23 24 26 27 27 26 25 23 22

GFSGL_925_spd_069.txt.gz
Wind_Speed
27 27 27 29 32 34 42 38 34 31 30 29 36 29 40 33 30 26 27 26 22 21 20 18 18 16 15 12 10 9 11 12 10 12 18 22 23 23 27 29 31 31 33
33 35 35 33 36 38 40 34 31 29 25 22 30 33 34 31 28 31 29 27 24 22 20 20 17 14 13 11 9 9 10 12 14 15 17 17 21 24 26 28 30 31 33
36 36 38 47 54 48 38 38 38 35 34 30 34 35 28 29 30 32 28 26 23 22 21 19 18 15 12 10 8 11 11 13 12 11 11 15 21 23 26 28 30 31 31
40 40 42 44 36 35 35 32 42 40 34 32 33 33 32 31 32 29 26 24 21 21 20 17 15 13 12 10 10 10 9 9 9 12 16 20 21 26 28 25 30 27 30
40 39 41 38 36 39 38 38 33 33 32 29 28 27 28 29 28 27 24 22 22 19 18 15 13 11 10 9 7 6 6 9 13 16 19 21 22 21 22 24 26 30 28
37 38 35 36 39 37 39 37 33 31 28 28 29 27 27 24 22 22 23 23 22 22 20 15 13 10 8 7 8 9 11 10 12 12 15 17 19 23 25 24 24 22 14
31 28 28 30 30 32 31 31 30 29 30 29 28 25 22 20 20 20 22 23 23 20 17 16 12 7 6 6 7 10 10 7 8 10 14 17 21 23 26 27 22 22 24
26 24 24 25 26 27 28 27 27 28 29 26 22 21 21 21 21 22 22 21 19 16 14 11 9 7 5 6 6 6 7 7 7 9 14 19 21 22 21 22 26 28 29
23 25 26 26 26 26 24 24 26 26 22 21 22 23 24 24 22 21 21 20 16 12 9 6 5 5 5 5 5 6 9 10 12 14 14 17 19 21 19 23 22 20 22
21 23 26 27 28 26 26 25 24 23 24 25 25 24 26 25 21 19 17 17 14 11 7 5 3 4 3 2 3 6 8 11 15 16 18 17 16 16 17 17 22 22 21
23 24 25 26 27 26 25 25 25 25 26 27 26 22 23 22 19 16 14 13 11 10 8 7 5 4 2 1 2 4 6 10 13 15 17 16 16 18 19 18 19 23 26
26 25 24 24 23 24 26 26 28 30 31 28 27 23 21 19 18 14 11 8 7 8 8 6 4 2 2 3 3 4 7 11 13 15 15 13 15 20 25 26 26 24 28
23 22 22 23 22 26 29 29 28 29 27 23 23 24 21 17 15 11 9 7 6 6 5 4 3 3 4 3 4 5 9 13 15 16 13 15 18 25 26 27 27 28 26
23 23 26 27 25 24 25 26 28 26 23 22 22 22 23 18 15 12 9 6 5 4 3 3 3 4 3 3 5 7 12 12 14 13 18 18 21 22 24 25 26 28 28
26 25 25 26 26 25 22 21 24 23 27 31 26 28 27 20 15 11 9 7 5 4 5 5 5 3 2 4 5 7 10 11 12 16 17 19 19 22 21 24 22 24 18
28 24 25 27 26 27 29 26 16 14 15 18 19 20 18 14 14 10 7 7 4 5 7 6 4 1 2 3 5 6 7 10 11 14 16 17 18 21 21 23 20 19 19
30 28 26 26 25 25 23 25 25 20 17 16 15 13 11 15 11 7 5 6 6 4 4 5 4 1 3 2 4 6 9 11 12 14 19 17 20 22 19 21 20 19 20
26 26 25 24 24 25 24 22 21 20 17 16 11 11 9 8 8 6 4 5 5 3 4 4 2 3 3 4 6 8 11 12 13 17 18 15 18 19 17 20 18 17 19
26 26 27 26 23 20 17 15 14 13 13 12 10 8 7 7 5 3 2 3 6 6 4 3 4 5 6 8 10 12 12 13 16 15 15 14 19 17 21 21 19 19 20
30 24 22 20 17 15 13 13 12 9 7 6 7 9 12 9 3 2 2 3 4 4 4 5 5 7 9 11 13 12 14 16 16 16 17 19 20 19 22 22 20 19 19
24 22 20 19 16 13 11 11 10 8 7 5 4 2 6 4 2 3 4 5 5 5 5 5 6 9 11 13 14 16 16 16 16 17 20 19 19 21 21 19 20 20 21
23 22 20 19 16 15 13 11 10 9 7 5 4 2 1 3 4 4 4 4 5 4 5 8 10 11 13 15 17 17 17 18 18 18 18 19 21 21 22 21 21 22 20
24 23 21 19 16 15 14 13 11 9 7 4 3 3 2 1 1 2 2 2 3 7 9 11 13 15 16 17 19 17 17 18 18 17 19 22 23 22 22 23 23 22 20
23 22 20 19 17 16 14 13 12 11 9 7 6 5 4 4 4 4 6 8 11 13 14 15 16 17 19 21 19 16 17 16 15 18 20 24 26 25 24 23 23 23 23
22 21 20 18 17 15 14 13 12 11 9 9 7 6 6 6 6 8 10 12 13 14 16 17 19 21 22 20 19 18 16 16 19 21 19 20 23 25 26 26 26 25 24
19 19 17 16 16 15 14 14 13 12 11 9 9 9 7 6 8 10 11 12 15 18 20 21 22 21 21 20 18 16 19 20 19 16 18 20 22 24 25 25 26 25 24

GFSGL_925_spd_072.txt.gz
Wind_Speed
33 36 36 38 39 41 41 40 38 36 34 32 32 31 34 37 35 27 26 30 33 31 25 21 18 17 17 17 16 12 11 11 8 6 11 14 17 20 18 20 21 22 24
40 40 43 44 44 48 51 48 45 42 37 35 35 39 36 33 35 25 24 28 29 30 27 22 21 19 18 17 15 12 10 9 8 7 9 14 15 16 17 21 25 28 29
36 36 37 41 45 40 36 35 31 35 39 34 37 35 32 30 23 24 26 30 32 32 28 25 23 21 19 17 14 12 10 7 7 5 4 9 14 18 21 27 27 28 27
34 35 35 35 45 34 35 31 31 36 35 32 39 36 33 31 26 22 27 30 30 28 23 22 20 21 16 15 14 10 9 6 5 3 6 12 13 18 22 23 26 31 32
35 35 37 40 38 31 30 29 32 35 39 37 38 37 30 29 28 30 30 31 27 23 18 18 17 17 15 13 11 10 8 5 4 6 9 9 14 14 17 18 23 27 29
35 38 34 33 33 33 31 30 32 37 38 38 38 37 30 30 29 29 29 28 25 22 24 20 19 15 13 13 10 8 6 5 6 6 7 8 14 16 19 22 21 17 10
34 32 32 32 32 28 27 29 31 33 36 36 33 28 28 27 24 23 24 23 24 25 23 22 17 14 11 7 6 6 5 4 4 5 7 9 13 16 19 16 17 20 23
28 28 28 28 26 27 28 28 29 29 29 29 29 28 27 22 21 23 23 25 24 23 21 19 15 12 9 8 5 5 4 2 2 3 7 11 14 17 17 18 21 25 26
25 27 28 29 26 26 25 23 23 23 24 25 25 26 26 25 25 24 26 26 25 21 18 14 12 11 8 6 6 5 2 1 4 6 7 10 13 14 14 16 16 17 22
22 24 25 26 25 24 23 23 22 23 24 25 24 23 25 28 24 24 25 26 24 20 16 12 11 9 7 6 5 2 1 4 8 11 11 12 11 12 13 13 14 16 19
20 22 21 21 22 22 22 22 24 26 26 26 26 25 28 27 23 21 19 20 20 19 15 11 8 6 6 5 2 1 2 5 9 12 13 14 14 15 14 16 16 16 19
20 20 19 19 20 23 25 24 25 26 28 28 29 26 24 22 20 18 16 13 12 12 12 10 8 6 7 6 2 1 3 6 9 11 12 11 13 13 18 19 18 20 20
21 20 20 20 20 21 24 25 24 25 25 22 23 23 22 20 18 14 12 11 10 9 9 7 6 7 7 4 0 3 5 7 8 9 8 11 12 15 18 20 20 20 24
22 21 21 21 20 18 19 22 24 23 22 21 20 19 20 18 16 15 14 11 8 8 8 6 6 7 5 3 3 5 6 7 8 7 10 13 14 15 16 16 19 22 23
22 21 20 22 22 22 19 18 20 19 22 25 23 25 26 20 16 13 11 9 7 7 7 7 7 6 4 3 3 4 6 7 8 9 11 12 14 14 16 16 16 18 16
23 22 24 23 21 22 22 22 13 11 11 15 19 21 15 15 14 10 7 5 6 6 6 8 7 6 5 4 5 5 8 8 9 10 12 13 14 14 16 16 14 16 18
22 21 21 22 19 16 16 20 25 28 23 16 14 13 9 13 10 6 4 7 7 8 6 7 7 6 4 4 4 6 7 10 11 11 13 14 14 14 16 15 15 16 18
22 23 24 25 23 24 22 21 20 19 19 20 15 14 12 10 8 9 8 9 8 4 4 6 6 6 5 5 6 7 9 13 13 14 16 16 16 15 15 15 16 17 17
26 25 27 27 28 27 24 20 18 17 17 17 15 11 10 10 9 7 6 5 6 6 7 8 8 8 8 8 9 11 13 14 15 18 17 16 16 17 16 16 18 19 19
33 31 30 27 24 22 19 18 16 15 13 13 12 13 15 9 5 3 2 3 5 8 8 7 7 7 8 9 11 12 14 16 17 17 18 17 18 17 19 20 20 16 16
30 30 29 27 25 22 20 20 17 17 15 14 12 8 7 4 3 0 2 4 6 5 5 5 6 8 9 11 12 15 16 18 19 19 19 19 16 18 18 19 19 19 18
31 30 29 26 24 23 22 19 18 17 15 13 11 8 5 5 4 3 2 2 1 2 3 5 8 10 11 13 15 17 20 21 21 19 19 18 18 19 20 19 19 20 19
30 29 26 25 24 22 22 19 18 16 14 12 10 9 8 7 6 5 4 3 4 7 10 11 13 15 16 17 18 20 22 21 20 19 19 19 20 18 20 21 20 20 20
28 26 25 23 22 21 20 18 17 15 13 12 10 9 7 6 5 5 5 7 8 9 11 14 16 18 20 21 22 22 21 20 17 16 18 23 25 25 23 22 21 22 23
26 25 23 21 20 19 18 18 17 15 12 10 9 8 5 4 4 5 7 9 10 13 15 18 20 21 22 22 22 21 19 17 18 21 22 22 21 22 23 24 25 25 23
23 22 21 20 20 18 17 16 14 12 11 9 8 6 4 5 7 8 10 13 16 18 20 21 20 20 21 23 23 20 19 20 21 19 19 18 20 22 23 24 25 23 23

GFSGL_925_spd_075.txt.gz
Wind_Speed
35 35 34 36 38 40 41 44 44 39 36 39 39 35 34 33 30 27 28 28 29 27 28 26 29 25 22 21 21 21 18 17 10 7 11 10 11 7 6 10 12 14 15
35 36 36 33 35 40 47 50 43 42 41 38 32 33 33 34 30 38 40 37 35 29 28 25 26 23 23 24 25 23 16 16 12 11 11 9 12 6 11 13 14 14 16
31 34 34 36 34 37 35 31 31 31 32 28 31 34 36 34 36 37 33 32 34 26 24 28 27 29 27 26 23 18 16 14 14 12 9 6 9 6 6 10 13 16 16
33 33 33 35 39 37 34 30 30 32 31 32 34 38 32 30 33 30 27 26 26 26 24 25 28 30 30 27 26 23 18 15 11 10 7 6 7 5 7 8 10 10 14
34 34 38 37 34 32 33 33 34 34 33 32 35 38 37 36 35 30 26 28 27 26 24 24 25 26 25 27 25 22 20 16 12 10 7 6 7 7 5 6 11 13 15
33 36 33 32 32 34 34 33 33 35 35 34 34 36 38 35 36 31 31 29 29 27 25 25 22 22 22 21 19 16 14 13 11 8 7 8 7 6 5 8 10 10 6
33 31 31 31 31 32 32 31 32 32 29 32 32 31 36 36 34 32 29 28 27 27 28 30 27 25 23 20 17 14 11 10 12 9 7 6 5 4 7 9 9 10 13
29 28 28 29 29 27 27 29 28 28 30 32 34 35 36 33 29 26 25 25 26 27 29 28 27 24 20 18 14 11 8 5 4 4 3 3 5 7 8 10 12 14 16
27 27 25 23 22 21 22 23 24 25 25 28 30 29 27 25 22 24 29 28 27 28 26 23 21 20 17 13 11 10 8 7 6 5 4 5 7 9 8 7 9 11 12
23 20 19 21 24 23 21 21 23 23 23 21 19 19 21 20 27 32 29 30 29 28 23 19 16 15 13 12 11 11 10 7 4 2 3 5 6 6 7 4 6 10 12
16 20 20 19 18 19 19 20 19 18 17 17 17 16 18 25 26 25 27 32 33 27 23 19 15 13 12 12 10 8 7 6 2 2 4 4 4 5 4 5 7 9 13
16 17 18 18 18 18 18 19 20 21 23 22 23 22 22 24 24 23 23 22 21 25 22 19 16 15 14 12 9 8 5 3 2 2 3 4 5 5 6 9 11 12 15
20 22 21 18 16 15 18 19 20 21 23 21 20 19 21 24 22 20 18 19 17 19 18 16 16 17 14 10 7 5 3 1 1 2 3 5 6 8 10 11 13 14 17
19 19 22 23 21 17 16 16 20 21 20 20 20 21 21 21 23 23 23 21 19 18 18 16 16 13 9 8 6 2 1 1 2 3 5 7 7 9 10 11 14 15 18
20 20 21 23 22 23 19 16 16 14 18 21 20 24 25 20 19 20 20 18 15 14 14 12 10 8 7 5 4 2 1 2 3 4 6 8 9 10 11 12 13 15 17
21 17 19 21 20 23 27 28 19 15 16 17 22 24 19 24 22 17 14 12 11 10 9 9 8 7 6 4 4 4 3 4 5 7 9 10 11 12 13 13 14 14 17
21 21 20 18 19 18 19 22 27 29 26 20 20 21 22 22 17 14 13 12 11 8 7 5 5 4 3 3 3 4 5 6 7 9 10 12 13 14 14 14 15 15 17
26 26 22 23 23 24 22 22 22 22 23 23 24 24 21 18 16 15 14 13 8 5 4 3 2 3 3 3 4 5 6 8 10 11 12 13 14 15 15 16 16 16 18
29 27 26 27 27 26 25 24 22 21 19 19 18 18 17 17 16 13 8 6 4 3 2 1 0 1 2 3 5 6 8 10 12 13 14 14 14 15 16 17 17 18 19
31 29 30 28 24 22 22 20 18 17 16 15 14 13 10 8 9 8 7 6 5 3 2 1 1 1 2 4 6 8 10 11 13 14 15 16 16 15 17 17 17 18 18
32 30 28 29 25 20 20 20 18 18 17 16 15 11 9 9 8 7 6 6 6 5 4 3 3 4 5 7 9 11 13 15 16 17 17 17 16 17 17 17 17 18 18
30 26 25 25 23 21 21 19 19 18 17 16 14 13 12 11 10 9 9 8 7 6 5 5 5 6 8 9 11 13 15 17 17 17 17 16 16 16 17 17 18 18 19
27 26 24 24 22 22 21 19 18 16 15 14 12 11 11 11 10 9 8 7 6 6 6 6 7 9 10 11 12 14 16 18 18 17 17 17 16 17 17 18 19 19 18
25 23 22 22 21 20 18 18 16 16 14 13 11 10 10 9 8 8 7 6 6 7 9 11 12 14 16 16 14 15 16 16 16 16 15 17 19 20 19 19 18 19 20
24 23 21 18 18 18 17 15 14 13 12 10 9 8 8 7 7 6 6 7 9 11 14 16 16 16 15 18 19 19 19 18 15 16 18 19 20 20 20 19 20 20 20
22 20 18 17 17 15 14 13 12 11 10 10 9 8 7 6 5 6 8 10 12 13 14 13 14 16 18 19 18 18 20 19 19 19 16 16 18 18 17 18 19 20 21

GFSGL_925_spd_078.txt.gz
Wind_Speed
34 34 34 36 37 36 35 36 37 35 37 37 37 35 34 33 33 32 31 29 28 24 22 20 24 26 28 28 29 25 26 22 13 11 11 13 17 13 11 10 11 12 13
35 36 36 35 36 38 39 39 37 38 37 38 37 37 37 37 35 34 33 30 30 24 28 28 29 30 27 31 28 22 24 24 18 17 16 15 15 14 15 11 11 12 13
33 34 34 34 36 38 39 38 37 37 38 38 38 39 39 38 37 35 34 36 32 30 28 32 36 33 27 33 33 30 28 24 20 17 12 14 16 12 11 10 12 12 13
33 34 34 36 38 38 37 36 36 36 36 37 37 37 36 36 34 32 30 28 25 25 28 29 32 30 33 35 34 32 28 24 22 14 11 11 11 10 10 10 13 11 12
35 35 36 35 34 33 33 34 35 34 35 36 35 36 35 34 34 33 30 27 24 25 29 29 31 32 34 34 34 28 30 21 20 15 10 7 9 11 10 9 10 10 13
34 37 34 33 33 35 34 33 33 34 35 34 35 34 33 32 34 40 36 28 29 31 33 30 31 30 29 32 33 33 29 28 19 15 12 11 13 10 10 11 10 10 9
33 31 31 32 33 33 31 31 31 32 30 32 31 32 32 31 31 37 39 27 27 33 33 31 27 26 28 29 27 27 26 20 17 17 15 11 10 9 9 10 11 12 13
30 29 29 30 29 28 29 30 30 29 29 28 29 30 29 27 31 34 33 32 34 30 30 29 30 28 28 28 24 21 17 14 11 11 11 10 7 7 8 9 11 13 15
29 29 29 29 28 28 28 27 26 25 24 26 24 27 31 34 37 35 32 32 27 23 23 25 27 27 25 24 25 19 16 12 11 11 11 11 11 11 9 7 10 11 14
28 27 25 25 26 26 25 22 18 17 21 26 26 26 29 30 27 24 31 31 27 25 23 23 25 26 23 19 16 18 16 12 9 6 3 4 5 6 8 9 9 11 13
22 23 23 22 19 17 17 20 25 24 21 17 15 12 12 13 17 28 33 26 27 26 25 24 23 23 20 17 15 13 12 12 11 6 6 5 6 7 8 8 9 11 14
15 19 20 20 24 23 22 21 21 21 21 18 18 15 12 14 18 21 20 20 25 30 27 24 19 16 18 17 15 13 14 9 6 4 4 6 6 7 8 9 11 13 15
11 13 19 20 20 22 21 19 19 19 20 17 17 18 19 19 19 18 20 23 23 23 21 22 20 17 17 14 12 12 8 5 4 4 5 6 6 7 9 11 12 13 15
17 18 18 22 19 20 18 15 15 18 19 19 18 19 20 22 24 26 26 24 24 25 22 24 20 14 10 11 9 6 3 2 3 4 5 6 7 8 10 11 14 15 17
15 17 18 20 23 25 20 14 15 10 16 21 21 23 24 20 19 24 26 23 23 23 23 18 11 8 8 7 6 5 4 3 3 3 5 7 9 11 13 13 14 15 17
16 14 15 19 21 21 25 30 19 14 16 19 25 28 24 28 26 24 22 21 21 18 13 11 10 8 6 6 6 5 3 3 4 6 8 10 11 13 14 15 16 16 18
19 17 18 17 20 19 22 22 26 30 29 24 25 28 28 26 23 23 22 20 15 12 9 8 7 5 4 3 2 2 3 3 4 7 9 11 12 14 15 16 17 17 18
21 23 24 19 20 26 23 22 21 25 25 28 28 28 25 23 21 21 19 15 12 8 7 6 5 3 2 1 2 3 4 6 8 10 12 13 13 15 16 17 17 17 18
25 24 25 28 25 24 23 23 26 26 26 26 24 23 22 22 19 15 8 9 9 8 7 6 5 4 4 3 4 5 6 9 10 12 13 14 14 15 17 18 18 18 18
31 30 30 29 26 23 23 21 21 22 21 21 18 14 12 12 12 11 11 10 9 9 7 7 7 6 5 6 6 8 10 11 13 14 16 17 17 17 19 19 19 19 19
28 29 28 26 24 22 22 23 18 19 20 20 18 14 12 12 12 12 12 12 10 10 8 7 6 6 6 8 9 11 13 15 16 17 18 18 18 19 19 19 19 19 19
24 25 26 24 22 22 21 21 19 19 18 18 16 15 14 13 12 11 11 11 10 8 7 6 6 6 8 9 11 12 14 15 16 16 17 17 18 18 18 18 18 19 19
22 22 22 21 20 20 21 20 19 17 17 16 14 13 12 12 11 10 8 7 7 6 6 6 6 7 8 9 10 12 13 14 15 15 16 17 17 17 17 18 19 19 19
22 22 22 21 20 19 19 18 17 16 15 13 12 11 10 9 8 7 6 6 5 5 5 6 7 8 9 10 10 11 12 13 13 15 15 16 16 16 17 18 19 19 19
20 20 20 19 17 15 15 14 14 13 12 11 10 8 8 7 6 6 5 5 5 6 7 8 8 9 9 11 13 13 13 14 13 14 14 15 17 18 19 19 19 19 19
18 18 17 15 15 14 13 13 12 11 10 9 8 7 6 5 5 5 5 6 6 8 8 8 9 11 13 13 12 13 15 17 16 14 14 14 16 17 17 18 19 20 21

GFSGL_925_spd_081.txt.gz
Wind_Speed
31 31 32 34 34 32 32 35 38 38 39 40 38 38 38 37 37 37 36 31 30 29 30 30 29 26 25 23 26 23 25 25 15 16 17 20 23 21 18 20 17 17 16
31 32 32 31 33 36 36 34 34 35 37 40 37 37 38 38 38 38 36 34 33 32 32 29 30 28 29 31 29 32 32 29 26 17 19 17 20 20 20 15 17 16 15
32 32 32 32 34 35 36 35 35 35 35 36 37 37 39 39 38 38 37 35 34 34 34 31 31 29 29 31 33 31 32 28 31 21 18 20 20 20 21 17 19 20 16
32 32 33 34 35 34 34 35 36 36 36 36 38 38 38 37 38 38 37 37 37 37 35 31 31 30 31 33 33 34 31 28 30 26 20 17 17 14 21 17 15 17 17
32 34 35 34 34 34 34 36 36 38 39 39 37 38 39 38 39 39 38 39 38 35 32 34 32 34 37 30 32 34 32 30 27 23 15 15 14 15 21 15 15 17 17
32 34 33 32 33 34 34 35 35 37 38 37 39 39 39 39 40 42 41 35 35 33 31 33 35 39 36 30 33 35 36 33 28 21 17 18 18 19 18 16 14 11 10
32 33 34 33 34 35 35 35 36 36 35 38 37 37 37 38 39 40 42 41 31 29 32 31 35 35 34 30 30 32 32 31 28 24 17 13 14 18 19 15 14 11 14
31 32 33 33 34 33 34 36 36 35 36 36 36 35 35 35 37 40 41 40 40 33 33 35 36 34 33 31 29 25 24 20 17 16 10 14 10 13 16 15 12 12 13
30 31 33 33 33 33 33 34 33 32 32 34 31 31 31 29 30 34 31 33 34 35 32 30 29 28 26 29 31 28 21 17 16 13 13 10 12 14 12 9 10 9 11
27 28 29 29 31 31 31 30 29 28 27 25 25 24 26 25 26 25 27 30 30 23 17 15 16 18 21 23 27 26 20 13 12 12 12 11 10 12 13 13 7 10 10
21 23 25 25 26 28 27 25 25 21 20 17 15 11 13 14 16 16 20 23 23 18 16 16 17 21 20 18 17 16 10 16 10 4 5 6 6 7 4 5 7 9 11
9 17 19 21 20 20 18 16 21 25 25 20 17 13 8 7 9 14 17 16 17 19 22 23 21 21 20 17 16 15 14 9 12 8 3 2 3 5 6 6 8 10 12
7 9 9 11 10 8 11 12 14 17 20 22 23 18 19 17 17 14 16 17 18 25 28 27 25 22 18 15 13 14 10 7 6 5 2 3 4 5 6 8 10 11 14
12 11 10 13 15 14 13 12 10 9 16 13 22 23 18 19 23 24 27 29 32 35 31 27 23 20 15 15 12 10 7 5 4 0 3 5 6 7 8 9 11 13 16
16 17 18 18 20 25 24 17 13 8 9 16 17 22 23 17 18 29 32 32 32 31 29 23 18 15 12 10 7 5 4 2 1 2 3 6 8 9 10 11 12 15 16
20 20 18 18 21 20 23 32 26 21 16 17 23 25 23 25 24 25 28 30 30 25 19 16 13 10 8 8 6 5 3 1 3 3 6 7 9 10 12 13 14 16 18
25 22 22 18 15 19 22 25 26 36 38 32 33 33 31 26 28 25 26 25 20 16 16 14 11 10 11 8 7 6 5 6 5 4 5 7 9 11 13 15 16 17 18
23 26 23 23 18 20 24 23 24 26 26 28 32 31 29 28 25 24 22 18 17 17 16 14 12 10 10 9 7 6 4 5 5 6 8 10 11 13 14 15 16 18 19
29 28 26 27 27 27 28 28 27 25 27 26 27 28 25 23 20 18 18 16 16 16 14 13 12 10 9 8 6 4 4 4 6 7 9 10 12 15 17 18 19 19 19
30 31 29 26 26 26 25 24 23 25 22 21 19 18 16 16 18 19 20 18 17 15 14 13 11 9 7 7 6 5 7 9 10 12 13 14 14 16 18 19 19 20 20
26 29 27 26 26 23 22 23 23 22 22 22 23 24 21 21 19 18 18 18 15 14 12 11 8 7 6 6 6 8 9 10 10 12 13 14 14 16 17 18 18 18 19
27 26 25 25 23 23 22 22 22 21 20 20 19 20 18 18 16 15 14 13 12 11 9 8 6 6 7 6 7 8 9 10 10 11 12 13 14 15 16 17 17 18 19
23 22 21 21 21 22 23 21 20 19 18 17 15 15 14 14 13 12 11 10 9 8 8 7 7 6 6 7 7 8 9 10 10 11 13 14 15 15 15 17 17 18 19
21 21 21 21 19 19 19 18 18 17 15 14 14 13 12 11 11 10 9 7 7 7 7 7 7 7 7 7 7 7 8 9 10 11 12 13 14 15 15 16 17 19 20
19 19 19 18 16 16 16 16 14 13 13 12 12 11 10 10 9 8 7 7 7 7 7 8 6 7 8 10 10 10 10 12 11 12 11 11 14 15 16 16 17 19 20
18 18 17 16 16 15 14 13 13 12 11 11 10 9 9 8 7 7 7 7 8 8 7 7 8 9 10 9 9 10 15 15 12 11 10 10 12 13 15 17 19 20 21

GFSGL_925_spd_084.txt.gz
Wind_Speed
35 34 33 33 33 36 36 39 39 37 38 35 39 41 41 40 39 37 35 32 33 34 33 32 34 34 34 34 33 33 32 31 19 25 30 25 22 24 30 27 24 25 24
34 35 36 33 35 33 36 36 39 42 41 41 39 40 40 40 40 39 38 37 38 35 34 33 35 35 33 35 31 34 34 29 24 22 24 25 24 32 33 30 27 24 23
30 33 35 36 37 37 37 36 38 41 42 43 43 42 43 43 42 42 40 40 39 39 38 36 36 33 34 31 31 30 31 32 31 30 20 23 24 27 27 30 32 26 27
26 30 33 36 37 37 36 36 34 39 41 42 44 45 44 42 42 43 42 40 39 38 39 39 39 38 36 32 32 36 35 30 31 27 22 19 27 31 32 33 30 32 29
30 29 32 33 34 33 34 38 38 37 38 39 39 41 42 40 42 41 41 40 40 41 40 41 40 40 39 40 38 36 35 33 28 26 22 17 21 23 31 30 27 31 29
30 32 29 30 33 36 35 35 37 39 39 39 39 39 40 43 44 45 44 40 40 39 39 40 42 43 42 41 42 40 40 34 29 27 25 21 27 22 23 21 15 9 3
31 30 30 31 33 35 35 35 37 38 37 40 41 41 42 43 44 47 48 45 38 37 38 38 37 38 38 39 38 36 37 37 38 34 26 22 17 20 23 17 15 9 5
27 28 30 31 33 31 33 37 37 37 38 37 38 39 39 42 43 44 45 46 42 40 38 34 34 36 36 36 35 34 30 26 26 24 21 16 14 16 16 17 12 10 11
24 27 28 29 29 29 31 35 35 33 33 36 36 36 37 37 38 40 41 43 42 35 33 32 30 32 33 30 29 22 14 13 12 11 15 15 15 15 12 8 7 6 5
25 19 27 28 29 30 33 29 30 31 32 30 31 33 36 36 37 38 37 40 33 28 22 18 14 14 12 17 19 21 20 14 16 14 13 13 9 8 6 5 9 4 3
29 29 22 30 28 30 29 31 29 30 30 30 29 22 16 19 22 24 25 28 30 21 16 14 14 15 18 18 17 19 21 21 19 18 14 10 6 6 6 4 2 5 5
23 24 25 19 8 11 22 16 16 18 17 16 17 14 10 8 7 11 16 18 19 22 25 25 25 24 25 25 28 27 26 21 19 18 13 12 9 4 2 3 3 6 9
22 24 23 19 17 15 11 10 16 18 21 16 14 14 13 12 13 10 14 21 25 29 31 32 31 32 32 30 24 22 20 19 17 14 12 11 7 2 1 5 10 10 11
21 23 24 26 24 20 18 15 9 8 12 14 21 18 19 17 13 22 26 30 40 41 38 32 29 29 28 26 22 18 17 17 15 13 10 6 3 3 3 3 6 9 11
17 21 23 23 24 26 37 30 22 15 6 19 21 18 23 28 13 21 19 24 33 34 32 30 27 25 20 17 18 15 16 16 14 11 9 8 7 8 8 9 10 11 12
13 18 20 23 21 26 26 34 41 34 27 22 27 34 29 31 32 31 31 32 32 28 28 21 20 20 17 14 14 14 13 15 13 10 9 7 7 8 9 10 12 13 14
18 18 18 21 21 18 24 26 29 37 41 41 32 42 38 37 35 33 27 24 23 26 25 24 23 23 20 18 17 18 16 14 11 11 11 10 10 10 11 11 13 13 15
26 28 24 23 24 22 24 25 26 26 23 31 30 38 37 33 30 28 27 30 29 28 26 24 23 21 19 17 16 15 13 11 10 9 8 8 9 10 12 13 14 15 15
24 23 25 26 26 26 31 22 29 26 23 24 25 28 33 33 36 31 30 27 24 23 23 24 23 22 19 15 13 12 11 10 9 9 9 10 11 11 11 12 14 15 17
29 28 24 22 23 22 23 22 24 22 19 18 18 23 25 30 29 29 29 28 26 22 22 21 19 17 15 14 12 10 11 10 10 10 10 10 9 10 12 13 14 15 15
25 26 27 27 24 24 24 24 24 24 25 25 26 27 26 26 24 24 24 24 22 21 20 17 15 14 13 12 11 10 9 8 8 8 8 9 10 12 12 13 14 15 15
25 25 25 25 24 24 23 23 23 23 23 22 23 26 25 25 23 21 20 18 15 16 14 15 14 13 10 8 7 7 7 7 6 6 7 9 10 11 12 13 14 15 17
25 24 24 25 24 25 25 24 23 24 22 22 21 20 21 21 20 19 18 16 14 12 9 10 8 8 5 6 5 5 6 6 5 7 8 8 10 11 12 13 14 16 17
23 23 23 23 21 21 20 20 21 20 18 19 18 18 17 17 16 15 12 10 11 9 8 8 7 7 5 4 4 4 5 8 8 7 9 8 7 9 12 14 15 17 18
22 21 20 19 19 19 20 19 19 18 19 18 17 16 15 15 14 12 11 7 7 7 7 5 6 5 7 9 7 5 8 11 13 12 6 4 7 8 9 15 17 17 18
21 20 20 19 19 18 18 16 16 16 16 15 13 12 12 11 9 8 7 6 8 7 5 5 5 7 7 5 6 10 13 10 7 8 8 7 9 11 15 16 18 19 20

GFSGL_925_spd_087.txt.gz
Wind_Speed
34 29 30 29 34 34 33 35 36 37 36 35 41 41 35 38 39 38 37 37 37 38 39 37 38 35 37 35 35 36 34 30 20 28 29 32 30 33 31 32 34 35 35
34 33 32 31 32 34 35 36 36 37 38 38 39 42 41 40 41 42 39 36 37 35 37 38 40 38 39 40 40 38 36 36 30 26 28 28 31 34 39 34 37 39 39
36 34 34 34 33 34 36 35 37 39 40 41 40 42 42 42 42 43 41 41 39 38 37 39 40 39 41 37 38 36 37 37 36 29 26 25 29 29 32 34 38 40 38
34 36 35 38 38 36 33 37 36 38 39 42 44 42 42 44 44 44 43 43 43 42 40 42 41 40 43 40 40 38 36 31 29 27 26 26 29 31 34 31 31 38 38
34 34 37 38 38 38 39 36 36 37 40 40 40 42 43 42 45 45 44 43 42 42 41 43 44 46 50 47 39 37 34 33 28 26 26 22 24 21 28 31 32 27 28
34 34 33 36 38 39 39 38 39 39 38 39 42 42 43 44 46 47 46 42 42 41 42 42 44 45 49 48 48 47 45 39 33 27 27 24 29 34 30 29 27 15 6
32 32 33 32 37 38 36 37 40 40 38 38 38 40 43 44 47 50 51 46 40 42 44 41 40 43 47 46 46 45 45 40 41 36 34 31 28 30 32 25 24 14 6
15 24 31 33 32 30 34 37 35 35 38 39 38 39 38 42 44 48 49 49 46 44 41 42 42 43 45 46 44 41 35 30 31 33 28 20 15 15 18 18 15 12 10
23 23 20 18 29 29 32 37 38 35 32 36 37 37 40 42 40 44 46 49 46 44 41 44 44 45 43 39 34 27 17 11 8 7 11 13 12 13 13 16 13 11 4
22 20 23 26 15 28 34 33 33 35 38 34 33 35 37 39 40 44 45 45 37 36 36 33 33 34 35 34 36 32 26 23 25 25 25 22 19 18 15 13 10 10 8
21 18 19 24 20 17 13 26 30 30 28 29 28 26 26 28 28 33 38 40 40 36 28 18 15 15 18 18 20 22 26 26 24 23 22 22 21 18 16 13 10 7 9
19 18 21 23 24 22 22 17 5 21 30 26 23 14 10 9 11 12 12 17 20 27 20 20 22 19 21 21 23 32 33 32 31 27 25 19 16 16 13 11 7 6 5
19 18 19 20 25 27 27 28 24 15 5 6 8 10 16 13 17 14 14 17 20 28 27 32 35 37 35 36 32 30 30 27 23 24 20 25 14 10 7 2 5 5 6
17 20 20 22 28 30 30 29 29 24 16 16 17 18 19 15 20 29 36 40 44 47 38 41 32 33 36 29 31 26 26 21 25 23 21 20 15 14 13 8 6 8 8
16 16 17 19 22 27 37 31 27 26 17 16 18 24 22 13 22 17 26 35 40 38 38 38 32 26 22 28 25 24 24 22 20 21 19 17 14 12 10 9 11 11 9
15 16 17 18 20 22 25 37 45 38 40 36 35 37 37 34 34 32 33 31 34 29 28 26 25 19 22 23 19 23 23 19 17 18 17 15 14 13 11 12 12 12 10
17 17 19 18 20 21 23 23 27 36 42 44 39 34 37 36 32 30 31 31 27 31 29 24 25 21 22 23 22 21 20 18 16 17 15 13 12 12 12 12 12 12 10
20 22 22 21 22 23 23 22 22 21 23 29 35 34 28 34 32 32 31 32 31 29 29 22 23 22 21 22 20 19 17 15 17 17 16 14 13 12 13 13 13 14 13
19 20 22 24 24 24 24 24 22 21 21 23 25 31 29 31 31 30 31 29 27 26 24 24 24 23 21 21 20 20 18 18 16 14 13 13 12 12 12 12 13 14 16
26 26 24 24 24 24 24 24 23 22 23 21 22 21 25 30 28 29 30 29 27 24 23 22 22 21 19 17 17 15 14 14 13 12 11 11 10 10 10 12 13 15 15
25 26 24 25 24 24 24 23 22 23 24 24 25 27 26 27 25 25 27 26 25 23 20 19 18 17 16 15 14 13 12 11 10 9 8 8 7 9 9 9 10 12 14
27 26 24 24 24 25 24 24 23 23 22 22 23 25 24 25 23 23 22 21 19 18 16 15 15 14 13 12 10 9 9 8 7 6 6 5 5 5 7 9 10 12 14
27 25 23 23 23 24 23 22 22 21 21 21 22 22 22 22 22 22 21 18 16 14 12 11 11 10 9 9 7 5 5 5 6 7 8 5 3 5 7 8 10 13 15
24 22 21 22 22 23 22 21 23 23 23 23 22 21 20 19 18 17 16 15 14 12 11 10 10 10 9 5 1 2 3 5 7 9 9 8 4 3 6 7 10 14 14
23 22 22 21 21 22 24 23 23 23 22 21 20 20 17 15 14 13 11 10 11 11 9 8 8 8 6 4 4 5 8 10 10 6 3 3 3 3 4 8 12 15 16
22 22 22 21 21 21 22 22 19 18 19 19 16 14 13 13 11 9 8 8 7 6 5 5 5 5 5 5 7 10 9 7 7 7 5 3 2 4 7 10 12 16 19

GFSGL_925_spd_093.txt.gz
Wind_Speed
26 24 28 31 31 29 29 31 30 30 30 31 36 38 37 36 35 36 33 37 36 36 34 32 34 35 35 36 32 31 32 29 14 28 29 33 31 34 36 37 39 41 41
27 23 24 30 30 29 29 30 32 32 32 35 35 39 38 35 38 37 35 35 40 39 41 38 39 38 39 38 36 37 34 32 26 27 31 31 34 41 42 43 44 44 44
22 20 20 25 28 28 28 29 29 31 33 35 37 38 37 37 37 39 40 39 38 40 40 42 41 39 40 39 37 34 34 35 31 30 31 31 33 37 39 43 46 46 44
22 22 21 24 29 30 30 29 29 30 32 34 36 37 38 38 40 41 40 39 38 40 43 45 44 44 43 37 38 39 36 30 28 28 28 31 28 29 32 31 30 37 42
26 26 21 21 21 25 26 30 30 30 31 32 34 36 37 40 42 40 39 38 38 37 42 42 41 42 46 46 40 38 34 31 30 26 26 27 28 27 29 33 29 32 34
23 21 18 20 23 23 25 28 30 32 34 36 36 36 38 39 40 43 41 38 38 39 39 41 44 45 49 50 50 51 43 35 31 30 30 29 32 31 34 32 34 28 11
4 2 10 18 23 26 27 27 26 27 30 34 35 37 40 42 40 42 45 45 37 38 40 40 38 41 45 49 51 54 54 54 52 46 40 40 39 38 38 35 33 33 33
22 17 14 11 8 8 22 28 28 27 30 30 32 35 36 40 40 43 45 47 44 43 42 43 42 43 42 46 46 42 49 55 58 61 60 52 47 43 40 35 34 26 18
19 17 15 14 12 11 10 9 22 29 31 33 32 29 30 34 36 42 43 47 44 45 45 45 44 44 46 46 46 43 43 45 47 47 46 42 42 40 38 37 23 18 5
18 17 16 15 14 14 14 13 14 13 17 27 30 29 25 27 21 25 39 41 38 40 43 44 46 48 46 47 50 45 38 34 33 19 13 10 8 8 8 11 13 11 11
15 15 16 16 14 16 15 15 17 15 10 4 11 8 6 6 5 12 15 22 30 27 29 24 21 25 32 46 48 41 36 25 22 22 24 23 24 24 24 22 17 15 17
14 16 19 19 18 18 18 18 19 20 16 12 11 15 16 18 22 20 22 17 8 2 12 14 13 3 4 2 4 13 23 31 33 31 27 25 26 28 27 26 26 27 24
12 18 18 20 23 23 24 24 22 22 19 17 16 15 16 16 19 26 24 19 16 25 31 32 28 29 31 39 37 34 35 30 25 25 23 25 26 23 23 25 23 21 20
11 14 17 21 25 26 23 24 22 21 18 16 15 14 15 17 17 19 26 27 30 32 30 31 34 34 34 33 33 32 31 32 32 28 24 25 22 22 23 19 19 14 19
12 13 16 16 20 27 34 29 27 31 23 19 18 18 16 18 20 21 24 27 28 25 30 30 29 28 25 31 30 27 30 30 27 23 25 24 22 21 22 18 17 17 16
12 13 14 14 15 18 20 28 38 39 36 32 27 26 28 26 25 26 26 27 26 26 32 27 24 24 25 25 26 25 28 27 24 23 24 21 20 17 16 16 15 14 13
15 13 14 14 14 14 15 15 16 26 35 36 33 30 28 26 26 27 29 30 28 33 32 26 23 23 21 23 23 24 23 22 21 22 22 18 17 16 15 14 13 13 13
19 19 19 19 19 19 18 18 19 18 18 22 29 30 28 28 26 23 22 29 32 31 28 25 23 21 19 20 21 21 21 20 20 20 18 16 14 14 14 13 12 12 9
19 20 21 23 23 23 23 23 23 23 22 22 23 24 23 23 26 27 27 31 25 24 23 24 23 22 21 19 19 19 18 18 18 18 18 15 14 14 15 14 12 12 11
20 20 22 22 22 22 22 21 21 22 23 24 25 22 20 23 29 28 27 26 25 24 22 22 20 19 18 16 15 15 16 16 16 16 14 13 13 14 14 13 12 12 11
19 20 21 22 22 21 21 20 20 20 20 22 23 22 22 25 23 22 23 23 23 21 20 19 18 17 15 14 13 14 14 14 13 12 11 11 10 11 10 10 10 11 12
18 19 20 20 20 21 21 20 20 20 19 20 20 19 19 22 22 22 21 20 20 18 16 15 15 15 13 13 11 10 10 10 9 9 8 7 8 8 7 7 9 10 11
16 18 18 18 18 19 20 19 19 19 20 19 19 20 21 21 20 19 18 16 15 15 14 12 11 11 10 9 8 7 7 8 8 7 6 5 5 5 6 7 7 7 9
14 16 16 16 16 17 17 18 18 17 18 18 19 18 17 16 16 15 14 12 11 11 12 11 10 9 8 8 7 7 8 8 8 6 5 3 3 4 4 3 5 7 9
14 15 16 16 16 16 16 16 16 16 15 15 15 14 13 12 11 10 9 7 7 8 9 9 9 9 7 7 8 9 7 7 6 5 4 3 2 1 2 4 5 6 8
15 16 16 15 15 14 14 14 13 13 12 11 10 9 9 9 7 5 4 4 6 6 6 6 6 7 9 9 8 8 9 8 7 4 2 2 2 2 3 3 4 7 10

GFSGL_925_spd_099.txt.gz
Wind_Speed
24 23 20 19 19 18 16 16 16 16 16 15 15 15 17 21 23 26 26 25 28 29 31 25 29 29 28 30 25 23 26 31 23 24 21 21 27 29 35 36 41 33 35
21 19 18 18 17 18 17 17 18 18 19 17 19 20 18 20 22 20 22 24 27 28 29 24 29 32 34 32 29 30 28 30 31 26 27 22 26 30 35 38 37 40 43
21 18 15 15 16 16 17 19 19 18 19 19 17 23 24 23 25 25 27 25 28 28 29 33 35 33 30 27 28 29 27 29 26 27 27 26 25 28 34 39 40 42 43
20 17 15 14 14 16 15 17 19 19 19 20 20 21 22 24 27 28 30 29 27 28 28 30 34 35 33 33 32 30 28 24 23 25 27 27 28 29 27 28 28 31 34
15 13 12 11 11 12 14 16 18 18 18 19 19 19 19 21 22 23 27 31 32 32 28 28 30 33 35 40 37 35 28 27 27 26 26 26 28 26 29 31 31 34 35
8 7 7 11 12 12 13 13 14 17 17 17 19 20 20 22 25 28 26 25 29 29 29 30 31 36 41 42 43 44 38 31 31 29 29 28 34 33 34 33 33 30 21
23 17 16 12 7 1 12 14 17 17 16 17 17 17 19 20 25 27 30 29 26 29 30 31 31 33 37 36 41 47 49 50 51 45 38 37 37 37 37 35 36 36 35
26 24 18 13 12 10 9 9 4 3 15 21 22 22 22 10 23 30 30 31 33 31 30 31 31 32 31 33 35 35 37 44 49 51 49 45 40 37 36 34 36 37 33
25 17 16 17 16 14 13 11 8 6 5 8 7 6 8 3 5 16 27 30 31 33 32 25 24 28 29 32 33 35 35 34 31 34 18 17 17 26 39 41 28 22 15
18 16 17 17 16 15 14 14 12 11 12 13 18 18 14 13 12 7 3 9 20 14 10 8 10 15 19 30 31 30 24 22 20 12 8 3 4 6 7 6 10 16 10
14 13 16 17 17 16 14 15 15 16 19 21 21 20 22 22 20 16 9 7 7 11 12 16 18 13 6 5 10 15 11 14 16 16 18 21 22 23 22 21 17 15 14
14 17 19 20 20 18 17 17 17 16 19 20 20 22 21 21 26 25 20 16 15 19 22 20 21 25 20 19 21 25 26 24 25 29 27 26 23 27 28 29 29 31 29
15 18 19 20 21 22 22 20 19 18 17 17 18 17 16 17 19 23 25 23 23 26 24 22 21 23 26 30 26 25 23 26 29 28 24 23 23 20 18 19 21 24 25
13 14 17 22 21 21 25 25 22 19 19 19 18 17 16 17 14 14 15 17 20 22 24 25 26 28 29 26 29 30 29 27 25 22 19 15 14 15 15 12 10 9 16
12 13 14 15 19 25 32 26 27 30 21 19 18 17 17 19 21 18 15 15 16 21 23 22 24 24 25 25 24 24 21 19 19 16 15 13 12 12 13 11 12 13 14
12 13 12 11 12 15 18 25 31 29 27 26 23 23 22 20 19 20 20 21 22 22 26 23 22 21 21 19 19 19 18 18 16 14 13 12 12 11 11 12 12 13 13
11 10 10 11 11 12 12 12 13 20 26 28 25 21 19 17 19 21 22 24 25 25 25 20 20 18 17 17 16 16 16 14 12 13 12 11 10 10 10 11 11 10 11
13 14 12 12 12 12 12 12 12 12 14 15 22 22 21 19 17 16 18 21 22 22 19 18 17 15 14 14 14 14 13 13 13 12 12 11 11 10 11 11 11 9 9
12 12 12 12 11 11 12 12 12 13 13 13 11 14 15 17 19 19 19 20 18 17 16 15 14 13 13 12 13 14 14 14 12 11 11 11 10 10 10 9 10 11 9
12 13 12 11 11 11 11 12 12 14 14 14 14 12 10 11 17 18 19 17 16 15 14 13 13 12 12 11 10 11 11 12 11 10 10 9 9 9 9 8 8 8 8
10 11 13 12 12 11 12 13 13 13 14 13 13 13 14 14 14 15 15 15 14 13 13 12 12 11 11 11 10 11 11 11 9 8 7 7 7 7 7 6 6 7 7
10 10 11 11 10 11 11 10 11 11 11 11 11 13 14 14 14 13 13 13 12 12 11 10 10 10 10 10 9 9 9 9 7 6 5 5 5 5 5 5 6 6 7
9 9 10 10 10 10 10 10 10 10 11 10 10 10 11 12 12 12 11 11 11 10 10 9 9 9 10 9 8 7 7 6 5 4 3 3 3 3 4 4 5 6 6
9 9 9 9 9 9 9 10 11 12 11 10 10 9 10 10 10 10 9 9 10 10 10 9 9 8 8 8 7 7 7 5 5 4 3 3 2 2 2 3 3 4 5
10 10 10 9 9 9 9 10 10 9 9 9 8 8 7 7 8 7 7 7 7 7 7 7 6 6 6 6 6 6 7 7 4 2 2 2 1 1 1 2 3 3 5
11 11 10 9 9 8 8 8 8 8 7 8 7 7 5 5 5 4 5 5 4 4 4 4 4 4 4 3 3 5 6 7 6 2 1 1 1 1 1 2 3 3 4

GFSGL_925_spd_102.txt.gz
Wind_Speed
23 23 24 22 20 18 16 16 15 15 13 12 12 12 17 21 24 26 25 25 27 25 27 27 26 26 27 26 27 24 25 19 12 22 28 24 21 21 24 29 30 30 35
22 22 21 22 20 18 16 16 16 16 15 14 13 12 13 14 16 18 19 19 23 24 24 25 29 28 27 26 26 26 23 23 22 20 23 26 34 24 26 27 28 36 38
23 21 19 19 19 17 16 16 16 16 16 15 14 15 16 16 17 17 18 18 20 24 25 27 25 20 20 22 24 25 24 25 21 22 28 30 30 30 30 28 28 28 31
20 18 17 17 16 15 15 15 15 15 15 17 16 15 17 16 16 16 17 18 19 20 22 24 27 28 30 29 27 28 30 26 23 22 26 26 28 30 31 30 29 30 31
16 15 15 13 13 13 12 13 13 14 14 15 16 16 16 17 18 20 21 21 22 22 24 26 27 30 32 34 33 33 30 29 29 27 28 24 26 28 29 32 32 33 34
19 15 10 13 12 12 11 11 11 12 13 14 15 16 16 16 19 24 22 22 24 27 27 29 31 32 32 35 39 39 33 30 31 29 30 29 34 35 37 35 33 30 22
23 21 20 15 12 10 8 8 9 11 12 13 13 14 13 13 17 21 27 25 22 24 25 26 27 29 30 30 32 40 45 45 43 36 33 33 32 30 29 31 33 32 31
25 23 19 14 15 17 14 10 7 3 5 7 8 11 10 9 17 19 22 27 30 23 17 16 18 21 20 21 25 26 28 35 41 48 45 40 39 40 39 35 32 32 28
25 23 19 17 20 19 16 13 11 9 11 12 10 11 8 5 3 10 15 17 26 21 11 12 14 17 22 25 28 29 29 20 17 18 18 17 19 22 27 31 23 18 16
23 25 20 20 21 19 16 15 15 15 16 17 20 18 15 14 11 5 4 5 7 10 6 3 8 5 10 13 14 17 21 12 12 9 9 8 8 9 9 7 6 4 3
20 25 22 18 15 19 17 16 16 17 19 21 22 22 23 20 21 15 7 6 12 14 16 18 17 13 10 8 5 1 9 15 18 16 18 20 23 22 23 20 15 10 7
20 20 19 17 19 18 19 16 14 15 17 17 18 19 19 22 24 24 21 17 14 18 20 18 20 22 20 19 20 20 19 18 21 23 23 22 21 24 22 22 22 24 22
17 18 16 16 18 20 18 17 15 15 14 14 14 14 14 13 15 23 24 23 22 23 21 20 19 22 24 28 26 24 22 22 23 22 19 17 15 12 11 13 15 17 18
14 16 17 20 20 19 21 18 16 15 14 14 13 13 14 14 12 11 12 15 19 20 21 23 25 25 25 24 24 24 23 20 18 16 15 13 11 11 12 11 10 7 12
12 12 13 15 18 23 29 23 23 25 16 15 15 14 14 15 16 13 12 14 15 17 19 18 18 17 18 18 18 18 17 16 16 13 12 11 10 10 11 10 10 10 10
10 11 11 10 10 12 15 21 28 27 25 23 21 18 20 18 17 18 19 19 18 17 18 18 17 16 16 15 15 14 14 14 12 11 10 10 10 9 9 9 9 10 9
11 8 8 8 8 9 9 11 14 19 26 26 23 22 21 19 20 21 21 22 18 18 19 17 15 14 13 13 13 13 13 12 11 11 10 9 9 9 8 9 9 8 8
11 12 10 10 9 10 10 10 9 9 11 14 20 21 21 20 19 16 13 15 20 20 17 15 14 13 12 12 12 12 11 10 10 10 11 10 9 8 8 9 8 8 6
11 11 10 10 10 10 10 10 11 11 11 11 11 15 15 18 21 22 21 19 17 15 14 14 13 12 12 12 12 12 12 12 11 10 10 10 9 8 8 7 7 8 5
11 11 10 9 9 10 10 10 10 11 12 13 14 13 11 12 16 17 17 15 14 13 12 12 12 11 11 11 10 9 8 8 8 8 8 8 7 6 7 6 6 6 6
8 9 9 9 10 10 10 11 11 11 12 13 14 14 14 13 13 13 13 13 12 12 11 11 11 10 10 10 9 8 8 7 7 7 6 6 6 5 5 5 5 5 6
8 8 8 9 9 10 10 10 10 10 10 10 11 12 12 12 12 12 11 11 11 11 10 10 9 9 9 8 8 7 7 7 6 6 5 5 5 4 4 4 5 5 6
8 7 8 9 9 9 9 9 9 9 9 9 9 9 10 11 11 10 10 10 10 10 9 9 8 7 8 7 7 7 6 6 6 5 4 4 4 3 3 4 5 5 5
7 7 8 8 7 7 7 8 9 10 9 8 8 8 8 8 8 9 8 8 8 8 7 8 7 7 6 6 6 6 5 5 5 5 3 3 3 4 3 4 4 5 6
7 7 7 6 6 7 7 7 7 7 7 6 6 6 6 6 6 6 6 5 5 5 6 5 5 5 6 5 5 5 6 7 4 2 4 4 4 4 4 4 5 5 6
8 7 7 6 6 6 5 5 5 5 5 5 5 5 4 4 4 4 4 4 4 4 4 4 4 5 4 4 4 6 8 8 7 6 3 4 5 5 5 5 6 6 7

GFSGL_925_spd_105.txt.gz
Wind_Speed
24 23 23 24 23 21 19 19 17 18 16 15 16 13 22 23 23 24 23 24 27 26 29 28 27 26 27 30 30 28 25 23 14 21 23 23 16 20 23 23 27 30 31
23 24 25 21 23 22 20 19 18 20 17 15 15 15 15 17 21 23 23 24 24 25 27 28 27 28 28 27 27 24 23 27 17 16 23 26 29 28 28 26 28 27 27
21 21 21 20 20 19 19 19 19 18 18 16 15 16 15 15 16 19 21 20 21 21 20 25 25 27 26 23 24 25 24 23 21 21 19 24 23 21 24 30 26 33 33
20 20 15 17 18 18 18 18 20 18 17 16 15 14 14 14 15 16 16 18 18 18 19 20 22 24 28 28 24 24 21 22 21 23 25 24 24 24 25 24 26 28 30
15 13 15 15 16 15 15 17 17 17 16 15 14 12 13 14 13 16 17 18 16 18 21 20 21 22 23 22 22 24 22 22 22 23 26 25 28 27 24 26 30 34 33
25 20 11 14 12 11 12 13 14 14 14 14 13 13 12 11 13 16 14 13 14 14 14 15 17 20 25 28 31 29 24 24 27 23 24 25 29 29 27 29 31 29 21
25 22 22 18 15 11 10 12 12 12 12 8 8 11 10 8 12 15 19 17 12 15 15 18 20 20 22 26 29 33 35 36 37 28 25 24 21 18 15 16 20 18 14
30 27 23 21 20 16 15 14 11 11 16 13 8 10 8 2 7 12 14 17 20 17 15 11 6 3 5 10 13 7 11 20 27 35 30 23 27 33 32 30 30 29 25
33 27 21 22 23 23 22 18 14 17 17 15 12 11 8 9 5 9 14 14 9 6 1 4 6 9 13 18 18 16 4 3 5 10 12 12 9 14 21 20 14 11 3
32 23 19 20 27 26 22 23 21 24 21 22 22 19 18 16 13 4 1 6 12 11 9 10 14 10 9 7 7 8 3 7 7 6 7 7 9 10 11 9 3 1 1
19 18 19 21 25 22 22 29 25 24 25 26 28 28 26 23 24 18 12 14 17 18 18 19 18 14 13 11 8 7 13 13 15 17 17 19 19 21 20 17 14 10 6
22 19 21 27 27 23 25 21 18 16 17 17 20 19 21 26 27 27 24 21 18 22 22 23 23 24 24 23 23 20 19 18 19 21 20 20 21 21 19 19 19 18 17
19 19 19 24 22 25 23 21 20 17 17 17 16 16 18 20 22 27 25 25 25 27 24 22 22 23 25 29 27 24 22 21 19 18 16 15 13 11 10 11 14 14 15
12 15 17 26 28 26 24 24 24 18 15 15 14 16 17 18 16 14 14 19 22 25 25 25 24 24 24 23 24 24 22 20 17 15 14 12 11 10 10 9 7 5 8
12 14 15 17 19 24 30 26 23 27 23 17 19 20 17 18 19 13 14 16 17 17 18 17 17 17 17 18 19 19 18 17 16 14 11 10 10 9 10 9 8 7 8
13 13 13 12 12 13 16 21 28 28 27 25 23 22 24 20 18 19 19 17 15 15 17 17 17 15 16 15 15 15 16 15 13 12 12 11 11 10 9 9 8 8 8
14 13 12 12 12 11 11 11 13 19 27 25 24 22 21 19 19 19 20 20 17 18 18 17 15 14 14 14 13 13 14 13 12 12 12 11 11 9 9 9 9 8 8
13 14 12 11 11 11 10 10 10 11 13 15 20 21 21 20 19 15 11 13 15 17 16 14 13 13 13 13 12 11 11 11 11 11 12 12 10 8 8 8 8 8 7
13 12 11 11 11 10 10 10 10 11 12 12 10 13 13 17 19 18 17 15 14 14 13 13 12 11 11 11 11 11 11 12 12 11 11 10 9 8 8 7 6 7 8
12 12 11 9 9 9 9 10 10 11 11 11 10 10 9 10 13 14 14 13 13 13 11 11 10 10 10 10 10 10 10 10 10 10 10 8 7 7 7 7 7 8 8
10 10 10 9 9 9 9 10 10 10 10 10 10 10 11 10 11 11 11 12 11 10 10 9 9 9 10 10 10 10 10 10 10 9 7 7 7 7 7 7 7 7 7
9 9 9 9 9 10 9 9 9 9 9 9 9 10 9 10 10 10 10 10 10 10 9 8 9 9 9 10 9 9 9 9 8 7 7 7 6 6 6 6 7 7 8
9 8 8 8 8 8 9 9 8 8 8 7 7 7 8 8 8 9 9 8 8 8 8 8 8 8 9 9 9 9 8 7 7 8 6 7 6 6 6 6 7 8 9
8 8 8 7 8 7 7 7 7 8 7 6 6 6 6 7 7 8 7 7 7 7 8 8 9 9 7 7 7 7 7 6 6 5 6 6 6 6 6 6 7 6 7
8 7 6 6 6 6 5 5 5 5 5 5 5 5 5 5 5 6 6 6 6 6 7 7 6 6 7 8 7 6 8 8 6 3 3 5 6 6 6 6 7 8 8
8 7 6 6 6 5 5 4 4 4 4 4 4 4 4 4 4 4 5 5 5 6 6 5 5 7 7 5 6 10 10 9 7 6 3 4 6 6 7 8 8 8 10

GFSGL_925_spd_108.txt.gz
Wind_Speed
18 24 24 26 28 22 24 21 20 24 23 21 21 19 22 27 29 30 28 27 28 28 28 28 29 30 29 30 32 32 28 22 12 14 20 22 20 14 26 25 25 30 29
10 12 20 20 23 20 21 19 20 19 18 19 19 20 18 22 28 27 27 26 25 25 25 26 26 25 26 28 29 28 27 27 21 17 21 25 27 29 21 22 25 27 26
11 16 18 20 19 22 22 19 22 21 20 18 19 18 18 21 24 24 26 25 25 26 27 27 27 26 26 25 28 26 27 27 28 19 18 21 26 27 24 24 29 31 32
10 15 16 13 18 22 22 23 20 20 20 20 18 19 18 17 17 20 23 21 21 21 22 22 24 25 26 26 26 27 24 23 21 21 20 21 25 23 20 22 24 26 28
14 3 7 11 17 19 15 22 20 18 20 19 16 19 16 15 14 15 16 16 17 17 17 18 18 19 22 24 24 23 23 23 20 19 15 18 18 17 20 23 22 25 27
28 27 23 9 12 13 21 23 20 20 18 18 17 16 16 15 16 17 17 18 18 17 19 20 20 20 20 23 24 22 24 23 19 18 18 18 20 21 22 25 24 21 5
30 31 32 26 20 14 16 20 19 16 17 17 16 16 16 11 15 18 18 12 8 15 13 10 11 10 22 21 23 23 25 26 25 22 18 11 10 12 18 16 10 7 4
32 33 33 31 28 24 15 18 17 16 16 15 14 13 12 7 9 13 14 13 10 7 4 3 4 5 6 11 11 12 11 16 23 23 20 17 19 20 18 18 19 16 11
31 28 32 32 28 29 27 18 17 21 20 19 16 14 13 13 5 6 10 12 11 9 6 3 5 4 4 7 7 8 10 9 9 8 9 7 3 6 10 9 4 6 2
30 29 29 30 30 31 30 22 22 29 28 26 27 25 23 23 14 6 8 14 17 16 15 16 15 8 4 4 7 13 15 11 8 10 13 13 13 13 11 10 6 5 2
24 26 30 23 26 28 29 24 19 32 28 29 34 33 32 29 26 17 14 17 20 23 22 22 21 19 16 14 11 15 19 17 18 20 19 22 20 21 22 19 16 10 8
25 27 28 25 27 28 22 20 20 20 26 22 24 30 34 30 29 26 23 23 22 28 29 28 27 25 27 28 26 24 23 21 22 23 23 22 22 22 22 22 22 20 18
22 24 24 27 27 29 28 26 21 24 20 20 23 21 20 22 30 28 28 27 27 31 28 26 27 27 30 31 28 26 24 22 21 22 20 19 18 15 15 14 14 16 18
16 17 20 26 29 31 27 30 30 25 20 22 19 19 19 22 21 20 20 24 29 28 27 27 27 28 29 29 29 29 26 24 22 20 18 16 14 14 14 12 11 7 12
17 17 15 17 22 25 33 29 28 31 24 21 21 22 17 19 19 18 20 21 20 16 18 22 22 22 23 24 25 24 22 21 20 17 15 14 13 14 14 13 13 11 13
17 16 17 14 13 16 19 25 28 28 27 27 25 24 24 21 20 20 21 20 19 21 24 22 21 20 20 19 20 21 21 20 18 17 17 15 14 14 13 12 11 12 12
19 17 16 16 16 13 10 13 16 22 25 25 24 21 20 17 19 19 20 22 22 24 24 21 19 19 19 20 19 18 18 17 16 17 16 15 13 12 13 13 13 11 10
17 16 16 15 14 14 14 14 14 14 13 15 20 20 19 20 21 18 16 20 22 24 22 20 19 18 18 18 17 16 16 16 16 15 15 14 13 12 12 11 12 9 11
16 16 12 13 13 12 12 13 14 15 15 14 13 14 15 17 19 20 21 23 21 20 19 19 19 18 17 16 15 15 14 15 14 14 13 13 13 11 12 11 10 9 10
12 14 13 13 12 13 13 13 14 15 15 14 13 17 13 16 19 21 22 20 20 19 17 18 17 15 16 14 12 15 12 14 13 14 12 8 12 11 10 9 8 9 9
12 12 12 12 12 11 11 11 11 12 12 12 12 15 14 15 16 17 17 19 18 16 16 14 12 14 14 14 12 10 12 11 12 11 8 8 8 8 8 6 9 10 9
12 10 10 10 10 11 10 10 10 11 10 10 10 12 12 14 15 15 14 13 14 15 12 13 12 10 10 9 10 12 9 8 4 6 7 7 9 6 8 7 7 10 10
12 12 11 12 10 9 9 10 10 9 10 10 10 11 11 13 14 13 12 12 10 7 7 7 8 8 11 9 5 3 4 6 9 5 5 7 10 4 8 7 8 7 8
11 10 10 8 9 9 9 8 9 10 10 10 9 9 10 9 9 8 8 9 6 7 9 10 9 7 5 4 2 3 4 3 1 1 5 6 7 5 5 4 9 5 10
13 12 11 10 10 9 8 8 8 9 9 9 8 8 7 7 8 9 7 5 6 8 6 5 4 4 7 6 6 8 8 5 3 2 3 5 5 6 4 4 6 7 8
12 12 11 11 11 11 10 9 7 7 7 7 6 6 6 5 7 6 4 3 5 5 5 3 4 7 5 3 7 10 8 7 5 2 5 4 4 2 5 5 4 7 9

GFSGL_925_spd_111.txt.gz
Wind_Speed
8 31 36 34 36 33 29 36 33 32 32 30 31 31 31 30 29 30 27 28 31 27 28 30 32 30 31 29 23 19 21 16 5 8 22 24 19 19 25 25 27 27 32
23 6 27 31 30 32 28 29 29 31 31 30 28 25 24 27 29 30 30 27 27 27 27 27 25 29 31 31 33 30 28 27 19 15 15 23 26 26 22 18 25 27 27
22 14 6 14 26 26 29 26 28 30 27 24 24 24 22 26 29 31 29 28 27 26 25 25 26 24 25 26 28 28 29 27 27 21 17 23 29 28 27 26 24 24 26
26 17 14 9 5 25 28 29 28 25 24 20 19 21 22 21 24 26 26 27 25 25 24 24 25 26 27 25 25 25 25 23 23 21 15 16 20 22 22 20 23 24 21
27 29 25 17 4 19 25 28 26 23 19 18 18 18 19 19 19 22 25 25 24 21 21 22 23 22 22 24 24 23 22 22 18 16 14 15 17 17 17 19 20 15 16
31 29 29 27 22 9 25 28 27 24 22 21 17 18 17 15 17 18 19 21 20 19 19 19 18 18 18 17 20 20 23 24 22 19 17 14 19 22 25 25 24 17 6
30 29 31 34 32 30 21 18 17 20 23 20 22 21 17 13 17 18 18 18 18 17 18 19 18 16 20 20 20 24 24 24 25 17 16 14 13 17 18 19 17 13 9
30 30 32 34 33 33 31 28 18 18 17 19 17 18 15 9 16 20 21 16 19 15 12 12 14 15 14 19 18 22 18 16 18 20 18 17 15 15 12 10 9 7 6
31 29 29 36 34 32 33 33 28 27 26 21 16 15 12 8 2 13 23 21 16 12 8 7 8 8 8 12 17 18 15 13 10 9 11 9 4 3 5 10 9 7 3
29 25 31 36 33 30 29 33 36 28 37 28 32 26 24 20 10 10 17 20 20 18 14 12 7 4 6 12 16 20 20 17 15 16 16 15 12 12 10 6 6 9 8
26 28 30 31 29 25 27 33 31 26 37 31 35 32 34 30 23 14 14 21 23 23 21 20 18 12 8 10 16 17 21 19 22 22 20 21 21 19 20 17 12 10 13
27 28 30 29 29 26 26 24 25 24 24 24 30 29 35 32 27 26 26 28 28 31 28 26 27 27 28 24 25 27 23 27 25 25 21 21 24 23 24 24 22 22 21
23 28 29 29 28 27 27 26 25 23 18 20 20 22 22 21 29 29 30 32 33 34 31 25 26 30 28 30 29 24 19 22 24 23 20 22 20 18 18 19 21 22 22
19 19 25 27 28 27 27 28 25 23 20 17 16 18 22 19 19 19 24 30 30 31 29 27 29 29 27 28 28 25 24 23 25 24 22 19 17 17 17 13 15 20 20
20 20 14 19 20 23 29 26 25 28 21 19 19 21 17 17 19 19 21 22 24 25 27 24 24 23 25 26 27 25 22 24 23 18 19 19 18 18 19 16 15 16 18
19 19 20 14 15 17 19 23 26 25 24 25 24 24 24 23 20 21 22 21 22 23 25 21 21 19 20 23 23 22 21 20 21 19 16 18 18 17 18 17 16 16 16
20 19 18 17 16 11 15 17 16 20 22 23 24 23 20 18 19 19 21 22 20 23 27 22 21 20 19 19 20 19 19 18 17 18 17 17 16 15 14 16 16 15 13
19 17 17 16 16 16 16 15 16 16 16 19 21 20 20 20 19 17 17 21 25 25 23 20 19 19 18 17 16 17 18 17 16 16 18 17 17 16 16 16 16 14 15
19 18 16 15 14 13 14 14 15 15 17 18 16 16 14 17 19 20 21 24 22 21 22 21 19 18 17 16 16 16 17 16 14 14 16 18 15 15 14 13 13 12 11
16 15 15 15 14 14 13 13 13 13 13 16 18 15 13 14 20 21 22 22 21 19 18 19 18 18 17 14 12 13 15 15 15 14 14 14 15 12 12 12 13 10 10
15 14 13 13 14 14 14 13 12 15 15 17 17 15 13 17 17 17 18 19 20 18 15 13 13 13 13 12 11 10 11 12 12 12 12 13 10 11 10 8 10 11 11
15 12 14 11 11 13 13 12 13 12 13 13 14 15 14 16 16 16 15 14 13 12 10 9 11 11 9 9 8 7 8 8 8 9 11 11 9 10 11 9 9 9 9
13 13 11 12 11 10 10 13 13 13 13 12 11 11 11 12 13 13 12 9 8 7 6 6 6 7 7 7 5 4 3 5 7 5 5 7 8 6 8 10 9 9 8
14 14 14 13 12 12 11 12 12 12 11 11 10 10 9 9 9 8 8 7 7 7 7 7 8 5 5 6 7 7 5 1 1 3 3 4 6 4 5 5 6 5 6
12 13 14 15 14 14 10 9 9 8 8 9 10 9 9 8 7 6 5 4 5 5 7 8 5 4 6 8 9 10 8 4 1 3 4 3 3 4 4 3 3 4 8
12 11 12 10 11 11 11 11 10 9 8 8 7 6 5 7 5 4 5 3 4 4 5 7 4 5 6 8 10 10 6 5 3 5 5 3 2 0 1 2 1 2 5

GFSGL_925_spd_114.txt.gz
Wind_Speed
32 28 13 29 30 38 39 38 38 35 34 32 35 34 33 31 29 29 28 27 26 28 29 30 31 29 31 32 31 32 30 29 13 14 25 24 20 35 29 27 30 27 28
33 30 20 10 23 32 33 37 36 36 35 33 34 33 31 28 32 30 30 29 30 27 29 29 30 29 30 33 33 31 30 28 21 16 19 24 24 23 23 22 23 26 28
33 30 25 17 2 16 31 33 32 33 33 32 31 30 27 28 29 30 30 31 31 31 31 29 29 30 28 26 28 28 28 26 25 14 12 18 26 29 29 27 24 25 26
32 31 29 27 17 4 20 28 31 32 33 33 29 27 26 25 25 29 30 30 29 28 27 29 28 28 25 26 26 27 27 24 23 23 20 15 20 26 29 23 25 25 22
32 32 30 30 22 10 9 24 29 31 33 31 28 25 22 21 21 27 27 27 25 25 25 26 25 25 25 25 24 24 22 21 17 18 12 11 13 11 19 23 22 21 19
32 32 32 30 31 21 15 2 23 31 30 27 25 23 22 20 23 23 22 21 23 25 25 25 22 21 22 21 20 18 20 21 19 16 15 12 19 21 23 22 22 15 6
31 34 32 34 30 32 25 23 17 12 16 19 19 19 20 18 21 21 19 20 23 22 20 19 19 18 19 18 19 20 19 21 22 19 17 19 18 20 20 19 20 17 14
34 31 34 31 30 27 27 33 29 25 21 19 16 13 9 5 15 21 20 20 19 16 15 17 18 19 19 20 22 21 19 17 19 19 18 18 19 19 17 16 17 15 11
33 33 32 33 31 30 30 33 35 36 34 30 27 20 13 11 1 13 23 22 20 15 11 11 14 14 15 22 24 23 17 12 8 15 17 16 17 20 18 15 14 15 4
28 30 31 29 30 26 25 27 33 39 31 35 32 32 28 20 13 9 18 21 23 19 14 10 6 8 8 13 20 25 23 17 15 14 14 12 9 7 9 11 14 15 8
27 29 29 29 29 25 25 29 29 30 30 26 31 34 34 29 26 15 13 17 18 21 19 18 15 9 7 8 10 15 18 20 17 17 18 17 15 15 13 10 5 8 9
29 28 28 28 27 25 27 26 26 24 27 22 26 24 34 32 28 27 26 25 22 29 27 21 28 23 22 20 18 20 22 22 21 21 21 22 22 23 20 21 19 17 16
23 27 26 28 28 28 29 26 26 25 20 20 21 20 24 28 27 29 27 27 28 32 28 22 27 32 31 31 26 22 21 21 22 23 20 18 22 21 22 24 21 21 21
21 21 25 24 26 28 25 26 26 24 22 21 18 18 21 22 21 19 22 25 27 27 24 24 27 27 27 26 26 23 21 19 22 24 23 18 14 12 18 20 21 19 21
20 20 17 21 22 22 25 27 24 28 23 18 18 20 17 19 20 16 17 20 20 21 23 23 24 25 27 23 26 25 23 21 22 22 21 20 18 17 17 12 15 17 19
17 18 18 14 17 18 17 20 23 23 25 25 22 23 23 20 18 17 17 17 16 15 21 21 20 21 22 20 21 21 20 19 18 18 17 17 17 16 16 16 16 16 18
17 19 18 16 14 10 17 17 16 18 22 23 24 22 21 18 18 18 16 16 15 16 24 21 19 19 19 18 17 18 18 17 15 16 14 14 15 15 16 16 15 15 16
18 16 15 14 13 12 12 12 13 15 16 19 20 21 20 18 17 15 12 14 21 20 20 18 18 17 16 16 16 16 16 16 16 15 15 14 14 15 15 16 16 16 14
16 16 14 13 12 10 10 11 11 13 15 14 13 15 14 15 15 14 13 20 20 19 18 18 17 17 17 16 17 16 16 16 16 16 15 14 12 13 14 13 12 12 10
14 13 12 12 12 10 10 11 10 11 14 15 15 13 10 10 17 18 18 17 17 17 17 16 15 16 15 14 14 13 13 13 13 14 14 13 12 11 11 11 10 12 11
13 12 11 11 11 11 8 10 12 13 14 15 14 12 11 14 14 15 15 14 14 13 13 13 13 12 11 10 9 9 10 11 12 11 11 11 9 10 10 9 9 8 9
11 12 10 10 10 9 8 7 10 10 10 11 11 11 10 12 13 13 13 12 11 10 9 7 9 9 9 9 8 6 6 8 9 9 8 9 8 8 7 8 7 8 8
12 11 12 11 8 9 10 9 9 8 8 8 8 9 9 10 10 11 10 9 8 7 7 6 7 9 9 8 6 4 4 5 5 5 5 6 6 7 6 6 6 5 5
12 12 12 12 10 9 8 8 8 8 7 7 7 7 7 8 8 7 7 7 8 8 8 7 6 6 7 9 8 7 4 1 1 3 3 1 1 3 3 3 4 3 2
11 11 12 12 11 11 9 8 7 7 7 7 6 6 5 5 5 5 4 3 4 7 7 7 6 5 5 8 8 7 4 1 2 4 3 2 3 3 3 3 2 2 3
10 11 10 9 9 9 8 8 7 6 5 5 4 4 2 2 3 3 4 2 2 4 4 6 7 6 7 9 9 7 5 3 0 4 5 3 3 2 1 1 2 1 2

GFSGL_925_spd_117.txt.gz
Wind_Speed
31 30 27 25 17 28 30 36 38 34 37 38 38 34 33 35 34 33 28 26 26 25 25 27 27 26 25 27 28 28 26 23 10 12 26 34 29 29 35 30 27 29 28
28 28 28 27 18 19 29 34 31 33 36 38 36 33 32 31 33 32 29 28 27 27 27 26 27 27 28 26 27 26 25 28 19 14 16 19 26 28 28 31 30 28 27
29 29 29 31 28 18 10 24 30 32 34 33 33 32 31 32 32 29 32 30 30 29 29 28 28 28 27 26 28 27 28 26 29 19 16 17 23 21 26 30 32 28 23
30 29 32 32 31 25 15 11 25 30 30 32 32 32 28 29 30 29 30 29 29 29 31 31 30 30 29 29 28 30 27 25 26 24 16 16 21 26 25 24 23 30 25
31 34 34 31 32 29 22 15 7 22 29 32 31 31 31 30 30 29 27 28 28 28 30 31 31 31 33 32 27 24 25 23 19 19 16 11 15 14 21 22 24 21 19
36 33 33 35 35 33 33 24 18 14 4 24 27 27 27 26 25 25 24 26 28 28 26 28 28 26 25 25 23 24 26 24 20 15 12 12 17 19 22 22 21 11 4
32 35 38 35 34 34 32 35 34 28 20 15 15 15 14 11 21 22 22 25 27 26 26 24 24 24 22 22 23 22 20 21 19 18 17 16 17 22 20 20 20 15 8
31 33 37 36 32 33 35 31 33 34 32 31 25 16 10 6 12 21 21 22 22 20 20 20 20 19 19 19 20 17 15 13 16 19 18 16 17 16 18 20 21 19 11
31 31 32 33 34 34 34 33 29 30 37 35 28 31 24 21 11 7 17 16 16 14 12 11 14 18 20 22 23 22 16 12 9 13 14 15 16 18 19 16 17 18 5
29 28 31 32 30 31 31 31 30 28 30 31 33 35 34 28 22 13 5 14 16 13 10 7 5 12 16 22 24 26 22 16 12 9 8 7 4 5 8 13 13 18 8
29 32 34 32 30 29 27 28 27 30 29 25 30 34 34 33 29 22 16 14 19 22 23 22 17 6 7 9 17 22 21 19 15 13 13 14 12 10 9 5 4 7 9
34 34 33 31 30 30 29 29 29 27 26 26 26 27 33 35 32 29 26 23 19 25 26 23 24 22 21 16 14 18 21 22 19 20 20 20 20 20 19 18 16 14 10
24 31 31 30 28 30 30 31 28 27 23 22 22 24 27 29 28 27 28 26 26 27 26 25 25 25 26 26 22 22 23 21 23 24 24 25 22 21 18 21 19 19 20
21 21 25 26 26 26 27 27 28 25 22 21 21 20 21 23 22 20 20 20 21 21 23 25 27 26 26 25 23 22 20 21 23 24 24 24 23 19 20 19 21 19 22
20 19 20 23 23 21 24 26 25 29 25 20 22 23 20 21 22 20 17 17 17 17 19 21 24 26 26 26 26 25 23 22 24 21 21 22 20 18 17 17 16 17 19
19 19 19 18 18 19 17 17 19 23 25 27 24 22 20 19 19 17 16 14 12 11 21 23 22 22 22 21 22 22 21 20 18 18 19 18 19 19 19 17 17 19 19
22 21 20 20 17 16 17 18 18 16 17 22 23 23 20 18 17 16 16 18 17 17 23 21 21 20 19 20 19 19 18 16 14 16 16 15 15 16 17 17 18 18 18
20 19 18 16 15 14 14 14 14 15 17 19 18 17 19 19 19 16 12 12 21 22 21 20 19 17 17 17 17 16 15 15 16 16 15 14 13 14 15 15 15 15 14
19 18 16 14 12 12 13 12 10 12 15 16 16 17 17 15 16 17 17 21 20 20 19 19 17 17 16 16 16 16 16 16 15 16 15 14 13 13 15 14 13 12 10
16 15 15 14 13 11 12 13 12 13 15 16 18 18 17 14 20 20 20 19 19 18 17 17 16 15 14 14 13 13 14 14 14 15 14 13 12 11 12 13 11 11 11
13 12 11 12 12 9 7 9 10 11 13 14 14 14 14 15 16 17 16 16 15 14 13 13 12 12 12 11 11 11 12 12 12 12 11 11 9 11 11 11 11 11 11
12 11 11 10 11 9 6 4 6 8 9 10 10 11 11 13 13 14 14 13 12 11 10 9 10 10 10 10 10 7 7 9 9 9 9 9 9 9 8 9 9 9 9
12 11 10 10 7 7 6 5 5 6 6 7 8 9 11 11 11 12 12 11 10 9 8 8 8 9 9 8 7 5 5 5 6 6 5 5 6 6 6 6 6 6 7
12 11 11 11 9 5 5 5 5 5 5 5 5 6 7 8 9 9 9 9 9 9 8 7 7 9 10 9 8 6 4 3 3 3 2 2 2 3 3 3 3 4 4
11 11 11 10 9 9 6 4 4 4 4 4 3 3 4 5 5 6 6 5 5 8 10 9 8 8 9 10 9 7 6 4 1 2 3 3 3 3 3 3 3 3 3
10 10 9 8 7 7 6 6 5 4 4 4 4 3 3 3 4 5 5 4 3 5 6 7 8 9 10 9 9 7 5 5 4 0 1 0 1 1 1 1 1 1 1

GFSGL_925_spd_120.txt.gz
Wind_Speed
29 27 27 27 24 19 16 24 26 30 32 37 35 33 36 34 37 36 36 35 34 30 28 26 25 24 22 24 25 27 25 22 4 10 24 30 27 30 40 38 35 32 31
29 29 29 30 30 26 18 14 23 26 30 35 35 31 30 35 35 36 36 35 35 32 28 27 26 26 25 24 25 27 22 27 14 8 22 27 31 33 32 34 32 31 29
32 30 31 33 32 31 28 20 11 22 26 28 29 28 29 34 35 35 36 36 35 33 29 28 27 28 26 24 25 24 25 26 24 15 15 19 25 24 29 26 28 29 29
33 33 34 34 34 32 31 26 19 9 16 23 25 26 27 30 33 33 32 33 32 32 31 28 28 29 28 27 27 27 25 23 23 22 17 16 19 20 21 23 20 25 27
32 34 34 31 32 33 32 34 28 21 14 7 20 25 25 28 30 30 31 29 29 30 30 27 28 30 30 30 29 27 26 24 22 22 18 18 19 17 23 22 21 22 24
30 30 32 34 34 34 34 34 33 33 28 20 15 12 0 14 25 30 28 29 29 28 26 28 28 28 29 29 31 33 30 25 21 17 19 17 20 21 21 23 23 12 4
30 32 33 32 32 34 34 34 37 35 34 33 30 23 20 21 6 25 28 27 26 26 27 26 27 28 27 26 25 26 23 25 26 24 18 18 17 24 25 22 22 17 10
32 31 33 32 31 31 35 36 35 33 34 32 36 32 32 32 24 6 15 21 21 19 19 21 25 26 25 25 24 23 21 20 22 19 22 18 18 19 22 22 23 18 12
33 32 32 31 31 32 32 30 33 33 34 34 35 37 34 35 34 23 5 9 12 9 6 6 11 17 22 24 25 23 18 15 12 17 18 19 19 19 19 18 18 21 4
32 30 31 33 33 31 29 31 29 29 29 32 34 37 38 41 34 26 20 17 19 15 13 9 5 8 10 21 24 28 25 21 17 13 12 11 11 11 16 16 17 19 8
28 30 30 27 27 29 28 30 31 30 30 31 32 37 40 40 40 35 27 24 23 23 24 25 20 11 5 3 12 18 18 22 17 15 14 12 11 10 8 8 10 11 11
25 29 30 29 26 28 30 30 32 30 29 29 28 29 35 37 35 35 32 31 26 24 23 23 23 25 21 15 17 17 16 16 15 18 19 19 20 20 20 18 15 13 11
22 25 32 31 32 29 30 31 30 29 26 25 25 26 27 29 31 28 27 29 26 26 22 21 21 24 26 26 23 22 20 20 19 24 22 21 22 21 23 26 24 24 24
22 25 24 29 29 31 29 28 29 30 25 24 25 25 24 26 28 30 27 23 21 21 21 25 27 27 28 27 26 26 24 23 25 24 25 22 21 21 21 22 22 23 27
21 21 22 21 27 27 25 24 26 30 29 26 25 24 24 24 27 24 23 22 19 17 20 23 28 28 27 28 29 29 27 26 25 22 22 22 20 17 20 17 15 17 18
19 19 18 18 24 25 25 22 19 19 23 24 25 25 23 21 21 21 23 21 17 16 25 23 23 23 23 23 22 24 25 23 21 21 20 18 17 19 21 21 22 21 18
18 18 21 22 22 22 22 21 21 19 18 20 22 22 23 22 20 17 16 19 20 21 27 22 21 22 21 22 21 21 21 20 17 18 17 16 16 17 19 19 19 19 16
21 21 21 19 18 19 20 18 17 19 21 23 22 21 20 20 21 20 15 17 26 26 25 23 22 21 21 20 19 18 18 17 18 17 16 15 14 15 17 17 15 14 12
20 20 19 19 17 17 17 17 17 18 19 20 23 23 21 16 17 20 21 25 22 22 21 21 20 20 19 19 18 18 18 19 18 18 17 15 14 16 17 16 14 13 11
19 17 17 17 17 15 15 16 17 17 18 19 21 21 20 19 22 22 22 21 20 18 17 17 16 16 16 15 14 14 15 15 16 17 17 15 14 15 16 15 13 13 11
17 17 16 15 16 14 11 12 13 14 15 15 16 16 16 17 18 18 18 18 17 15 14 14 13 13 13 12 12 12 12 13 13 13 13 13 12 15 13 13 13 13 11
16 16 15 14 13 12 11 9 10 11 11 12 12 13 14 16 16 16 16 15 13 13 13 12 12 12 11 10 10 9 10 11 11 11 11 10 10 11 10 11 11 11 11
16 16 15 15 13 11 9 9 9 10 10 10 10 11 12 13 13 13 13 14 13 11 10 10 10 11 11 10 8 7 6 7 8 8 7 7 7 8 7 8 8 8 9
15 15 15 14 13 12 10 9 8 9 9 9 8 8 9 10 10 10 10 10 12 12 11 10 10 11 11 10 9 7 5 4 4 4 4 4 4 5 5 5 6 6 6
14 14 13 12 12 12 11 11 9 9 8 8 8 7 7 7 8 8 8 7 8 9 10 9 9 10 9 10 8 7 6 4 3 4 4 5 4 5 5 5 5 5 5
14 12 12 11 11 12 11 11 10 9 9 9 9 8 7 6 6 7 6 5 5 6 6 6 8 9 9 10 9 7 5 5 3 2 3 2 2 2 3 3 3 4 5

GFSGL_925_spd_123.txt.gz
Wind_Speed
29 21 18 21 19 18 16 16 15 18 24 26 25 24 24 25 28 33 33 32 33 32 34 33 31 29 25 25 24 21 21 21 10 13 18 23 30 28 26 26 26 27 30
28 28 29 29 29 27 26 23 19 11 18 22 24 24 24 24 27 33 33 31 33 33 34 30 30 23 24 25 24 22 21 19 19 11 17 20 26 34 34 33 32 39 32
27 29 31 31 29 29 30 30 26 20 10 13 19 22 26 27 29 34 36 35 36 35 34 33 31 24 25 24 25 22 19 18 23 15 13 20 23 30 30 30 26 30 29
31 32 32 32 32 32 31 32 32 30 25 16 9 14 22 22 27 30 31 32 34 34 35 37 31 26 26 25 26 25 20 21 22 18 14 14 18 20 25 22 20 25 22
31 33 33 32 31 33 35 35 33 35 32 29 24 18 12 6 7 13 23 32 30 30 33 33 28 27 28 27 27 25 24 22 19 19 14 14 16 15 23 20 20 20 23
31 31 31 31 33 33 34 35 34 36 35 37 35 32 31 28 25 12 18 25 34 32 30 31 27 32 30 30 31 28 26 25 22 19 19 16 21 23 21 23 21 14 5
32 32 32 32 33 35 34 33 34 33 34 36 36 34 34 39 32 19 15 19 20 30 30 25 25 29 31 30 30 29 31 33 30 27 23 23 21 28 26 24 27 25 19
31 30 32 32 31 32 32 32 33 33 33 34 35 36 34 44 37 28 16 4 8 5 7 8 15 21 26 29 29 30 30 28 31 29 25 22 23 23 30 28 25 19 12
31 30 30 30 31 32 32 31 30 29 29 30 33 37 37 42 40 34 27 24 23 23 19 17 4 4 16 27 30 28 23 20 20 23 25 26 24 23 24 25 23 23 4
31 29 28 28 31 30 29 29 27 27 27 27 30 33 33 35 43 38 31 27 27 25 26 27 26 15 9 9 21 29 29 25 21 17 15 15 15 17 22 24 25 21 10
27 28 31 31 29 30 28 29 28 27 27 28 27 30 34 36 36 38 38 36 30 27 31 27 29 24 16 9 4 14 14 20 16 14 14 10 8 8 8 9 13 17 17
23 28 28 28 27 25 26 26 25 27 27 27 28 28 30 32 34 35 34 31 29 29 26 24 23 26 26 21 21 15 12 15 15 16 16 17 15 15 13 10 8 6 7
24 24 24 24 24 23 24 25 25 25 25 24 24 25 27 30 30 30 29 26 25 24 23 22 24 24 24 26 22 16 17 18 19 25 23 22 20 19 21 22 23 22 20
22 22 21 23 21 21 20 21 24 25 23 23 23 23 23 26 30 32 29 25 22 22 22 24 25 27 29 29 28 28 27 24 26 22 22 25 22 23 25 21 25 26 30
19 20 20 19 20 19 17 18 18 22 24 22 23 21 25 25 26 24 25 23 18 17 19 23 25 23 24 25 26 26 25 24 22 20 19 18 19 19 18 18 22 24 19
18 19 18 17 18 17 16 14 17 17 19 22 22 23 20 22 21 20 21 21 17 17 18 20 20 20 20 19 19 19 21 21 17 18 17 16 16 15 16 16 15 17 18
17 17 17 17 17 17 16 16 16 15 19 22 24 22 22 22 23 19 16 18 20 19 20 18 17 17 16 16 16 16 16 16 16 16 14 15 15 15 14 14 13 13 14
15 18 15 14 14 14 14 14 14 15 16 18 20 23 21 21 21 20 15 14 18 21 18 16 15 15 15 15 14 13 12 12 14 14 13 12 12 12 12 12 12 12 12
15 15 14 13 12 12 11 12 13 14 15 16 17 20 22 18 18 19 20 18 16 16 15 14 13 13 13 12 12 12 12 13 12 11 11 11 10 10 11 11 12 12 10
13 15 15 12 12 11 11 12 13 13 14 15 17 18 18 17 19 18 18 16 15 13 12 11 11 11 11 11 10 10 10 11 11 12 11 11 11 10 11 10 9 9 9
13 13 15 12 12 11 10 10 11 11 12 12 12 15 18 15 14 14 14 14 13 12 11 10 10 10 10 10 10 10 10 10 10 9 10 10 9 10 9 9 9 9 8
13 12 12 12 11 11 10 9 10 10 10 10 10 11 15 13 13 13 13 12 11 10 10 10 10 11 11 10 10 9 9 9 10 9 8 8 8 9 9 9 9 9 8
12 12 12 12 11 12 10 10 9 10 9 9 8 9 10 10 11 11 11 12 11 11 10 10 10 10 11 11 9 8 7 7 8 8 6 6 6 7 7 7 7 8 9
12 12 11 11 11 11 11 11 10 10 10 9 8 8 8 8 9 9 9 9 10 10 11 11 11 11 11 11 10 8 6 5 6 6 5 4 4 5 5 6 7 7 7
11 10 10 10 10 11 11 11 11 10 10 10 9 9 8 8 8 8 8 7 8 8 9 10 11 11 11 11 10 8 7 4 4 5 6 5 5 5 6 6 6 5 5
12 11 10 10 10 11 11 11 12 11 11 10 10 9 8 8 7 7 7 7 7 7 8 8 8 9 10 11 11 10 6 5 4 3 3 3 3 4 3 3 4 4 4